GFSMA_con_sbcape_000.txt.gz
CAPE
2022 1892 1738 1785 1651 1542 1342 1341 1392 1438 1409 1053 964 575 293 294 547 507 667 1548 1243 1469 1980 1769 1557 1689 1532 1343 1698 1434 1314 1072 903 859 915 993 1024 1211 837 560 566 965 866
2080 1572 1533 1372 1464 1529 1232 1288 1561 1521 1236 824 354 319 240 138 225 498 339 668 1368 1226 1610 1848 1891 1721 1705 1651 1154 1514 1839 1896 1901 1306 1558 1899 1774 1785 1245 863 845 804 819
1887 1612 1548 1412 1436 1548 1827 1521 1474 1215 759 520 279 146 299 252 242 374 453 243 713 1748 1698 1689 2481 2545 1915 1814 1820 1972 1976 2229 2206 1965 2104 2011 1892 1680 1775 1709 1539 1409 1428
1956 1864 1675 1403 1260 1358 1453 1330 1193 758 528 383 177 244 316 180 242 319 338 440 130 206 1745 1778 1626 2581 2552 1626 1785 1858 1972 1798 2084 2145 2211 2144 2026 1918 2114 2065 2029 1960 1828
1639 1817 1520 1445 1603 1338 1504 1139 835 614 328 136 79 40 218 169 173 111 418 626 736 522 267 1977 1362 1519 1762 1641 2170 2208 2235 2143 1690 1947 2079 2250 2174 1952 1844 1966 2029 2035 2092
1762 1913 1639 1484 1458 1528 1139 938 842 367 433 129 16 32 229 129 160 170 127 59 133 546 886 1576 1344 1513 1578 1290 1594 2211 2437 2057 2231 1956 1823 2041 2079 2164 2035 2024 1992 2054 1990
2002 1944 1498 1625 1543 1471 929 599 316 201 15 78 14 26 188 168 113 34 5 0 0 1 226 967 1243 1372 1724 1465 1428 1401 1531 1612 2030 2349 2212 2045 1972 1975 2082 2050 2036 2129 2053
2225 1957 1896 1695 1598 507 746 340 213 46 23 48 92 19 25 220 190 48 2 0 0 0 0 73 471 848 903 1140 699 700 508 771 1014 1248 1659 2071 1995 1789 1670 1816 1846 1932 1995
2518 2404 2224 1528 1357 371 3 156 126 31 14 338 348 61 19 24 22 83 89 0 0 0 0 0 2 3 0 5 10 21 0 18 126 424 776 964 1314 1511 1803 1662 1604 1645 1745
2451 2323 2147 1652 429 1 60 119 26 55 193 27 27 48 217 283 39 38 50 16 0 0 0 0 0 0 0 0 0 0 0 0 0 0 0 9 94 439 927 1324 1604 1631 1619
2490 1703 2200 875 346 126 314 151 61 140 62 28 20 37 68 22 12 9 11 21 21 15 0 0 0 0 0 0 0 0 0 0 0 0 0 0 0 0 27 348 1060 1327 1440
1795 1916 2061 936 294 48 281 172 34 99 86 61 65 134 23 19 25 15 10 10 15 14 9 3 1 0 0 0 0 0 0 0 0 0 0 0 0 0 0 0 12 336 807
807 1413 2095 1016 327 414 216 40 62 22 65 45 120 48 49 51 56 45 41 35 40 44 31 19 26 1 0 0 0 0 0 0 0 0 0 0 0 0 0 0 0 0 46
386 610 1821 857 436 298 231 33 2 10 29 36 58 153 58 63 58 67 55 74 55 42 58 87 61 15 6 4 0 0 0 0 0 0 0 0 0 0 0 0 0 0 0
432 1064 1139 729 271 366 93 45 2 9 8 12 12 67 156 43 52 70 98 106 68 28 15 23 39 43 25 38 35 26 1 0 0 0 0 0 0 0 0 0 0 0 0
1403 918 741 323 286 244 94 143 25 11 10 0 0 7 73 50 77 94 95 96 63 30 15 23 8 29 38 42 101 76 72 45 0 0 0 0 0 0 0 0 0 0 0
1396 947 789 263 277 232 175 235 186 9 22 4 3 97 264 431 149 84 80 60 85 84 71 7 16 31 57 111 106 155 132 86 54 19 0 0 0 0 0 0 0 0 0
973 1038 534 397 305 173 196 298 185 10 24 0 47 235 396 271 356 447 185 254 204 181 137 217 160 67 285 52 87 214 192 65 76 46 4 0 0 0 0 0 0 0 0
649 360 432 663 738 695 276 358 399 294 113 64 187 312 363 375 370 265 256 142 149 142 173 130 139 115 77 51 171 401 366 342 90 136 35 5 0 0 0 0 0 0 0
325 199 430 274 272 535 553 512 410 401 188 136 321 439 586 599 559 438 263 450 380 242 341 120 173 93 122 209 193 99 97 112 80 119 97 15 1 0 0 0 0 0 0
438 7 33 0 13 629 317 735 355 259 290 394 499 642 769 865 409 345 226 402 331 225 162 127 150 99 78 103 267 134 115 176 328 337 148 42 8 13 10 1 2 3 0
392 32 2 10 32 155 24 19 158 321 432 656 831 921 998 853 499 189 65 36 71 148 130 89 83 121 346 435 330 203 213 173 202 323 293 24 126 129 45 5 1 0 0
327 197 134 133 62 329 58 29 40 242 412 797 1065 950 722 439 328 575 159 20 12 0 0 131 299 270 467 405 331 481 311 258 144 32 258 184 155 62 33 18 1 0 0
227 364 304 191 167 253 251 0 2 449 905 1094 824 526 548 401 403 624 504 271 220 221 286 217 188 127 155 113 50 35 51 54 84 47 378 231 58 21 31 25 0 0 0
562 644 657 555 552 646 0 0 0 474 859 891 593 320 245 416 89 0 93 154 268 238 39 0 0 0 0 0 0 8 5 38 27 23 37 47 39 58 21 1 0 1 0
826 471 598 664 330 1108 0 0 0 435 745 518 420 222 5 29 0 0 24 132 153 149 93 2 16 13 0 8 1 20 13 33 44 25 8 57 46 18 6 10 27 22 8

GFSMA_con_sbcape_003.txt.gz
CAPE
2434 2262 1800 1559 1709 2227 2047 1435 1345 1305 1220 1341 781 433 305 83 38 25 184 1828 1461 1384 1810 2022 1759 1631 1796 1615 1927 1803 1607 1217 992 1051 1402 869 1079 1033 1207 868 628 760 864
2325 1752 2861 2206 1995 2027 2238 1099 1721 1471 1562 1066 389 350 217 180 172 197 130 938 1914 1381 1296 1972 1968 1819 1755 1777 1636 1976 1798 1583 1297 1114 1045 1505 1780 1327 1190 912 719 671 896
1711 2158 2351 1889 1461 1613 1861 1736 1874 1596 1088 88 98 81 146 134 111 227 197 108 1032 2054 1401 1484 2319 2294 2059 1937 1891 1985 2373 2195 1838 2045 2102 2151 2133 2036 1975 1750 1312 1325 1436
2174 2268 1780 1533 2182 1421 2122 1488 1303 760 87 34 23 63 62 81 127 166 155 148 100 158 2014 2108 1661 2498 1900 1741 1959 1811 2133 2252 2348 2166 2219 1910 2227 2085 1969 1958 1989 2009 1847
2374 2256 1875 1920 2196 1725 1372 1222 1060 892 11 20 30 15 62 92 52 80 56 166 422 420 263 2160 1953 1705 1828 1673 1833 1863 1792 1944 1917 1961 2039 2223 2200 2172 2118 2078 2209 2162 2128
2360 2320 1788 1863 1737 2028 1164 1049 783 76 25 75 5 2 75 139 63 19 7 8 56 234 644 911 1608 1671 1898 1657 1746 1972 1897 1888 2111 2158 2019 2078 2176 2188 2186 2092 1980 2005 1963
2288 2191 2070 2331 1508 1929 1386 394 146 27 27 62 0 51 134 103 63 22 4 0 0 0 78 475 973 1633 1680 1355 1431 1499 1472 1367 1341 1654 2138 1844 1900 2121 2136 2074 2059 2088 2179
2684 2137 2846 1546 1430 1316 961 362 131 0 26 124 45 12 169 317 130 137 2 0 0 0 0 49 399 817 1167 1205 1063 368 308 613 967 1104 1211 1415 1540 1696 1947 1907 1953 2011 2035
2398 2423 2204 2218 2001 907 0 281 46 9 5 290 299 43 28 379 233 317 84 0 0 0 0 0 0 0 7 84 469 32 0 0 1 43 206 353 465 693 953 1512 1739 1761 1852
2501 2364 2383 1662 1586 152 465 38 16 26 73 29 32 20 58 123 87 112 350 42 0 0 0 0 0 0 0 0 0 0 0 0 0 0 0 0 0 3 65 357 1048 1334 1660
1927 1486 1417 1842 1045 68 171 93 2 84 158 12 7 19 117 11 0 0 12 47 32 33 5 0 0 0 0 0 0 0 0 0 0 0 0 0 0 0 0 0 23 192 875
1772 1410 1122 1772 887 12 112 114 33 91 106 118 51 40 25 13 35 27 13 18 31 41 33 13 1 1 0 0 0 0 0 0 0 0 0 0 0 0 0 0 0 0 0
861 2417 1622 2173 933 323 166 98 146 170 65 66 71 51 539 147 91 44 29 40 36 54 61 61 37 29 0 0 1 0 0 0 0 0 0 0 0 0 0 0 0 0 0
741 1571 1665 1642 1141 273 287 234 27 1 306 33 30 641 47 46 112 72 147 273 83 73 82 199 180 81 26 0 3 0 0 10 0 0 0 0 0 0 0 0 0 0 0
846 521 1240 1729 1320 579 426 399 39 510 35 9 192 738 211 21 31 42 52 174 121 62 92 91 48 146 63 73 54 17 40 61 3 0 0 0 0 0 0 0 0 0 0
1857 1860 1267 1324 1102 937 982 915 506 528 343 16 4 541 688 52 6 32 57 72 42 27 37 41 52 110 105 57 94 91 58 138 34 0 0 0 0 0 0 0 0 0 0
2798 2110 2168 1628 974 740 395 475 363 153 730 774 602 285 544 966 103 30 46 56 42 44 21 48 20 133 781 713 453 351 138 422 84 35 19 0 0 0 0 0 0 0 0
2901 2194 1975 1412 665 606 624 678 274 108 234 103 134 710 514 307 1357 1546 205 1282 690 436 94 591 264 21 427 780 891 882 222 43 97 43 38 0 0 0 0 0 0 0 0
2884 1813 1647 1344 794 656 764 684 682 458 188 142 130 657 611 1191 1394 700 1152 545 316 660 380 117 81 113 127 179 232 694 895 361 139 41 7 7 0 0 0 0 0 0 0
2492 1550 1372 951 803 602 477 445 494 390 588 506 460 746 822 1035 1205 1211 1163 1454 1188 759 465 189 89 100 166 90 217 140 139 120 112 67 41 1 4 42 5 0 0 0 0
2010 1180 919 703 585 318 441 709 452 466 970 656 499 433 855 1071 677 607 1103 367 1135 677 385 310 225 169 204 146 184 234 189 173 80 104 74 112 240 260 115 61 156 120 1
1548 999 443 424 427 101 0 38 465 239 863 911 738 756 1150 854 366 286 276 157 60 167 427 252 141 206 428 444 417 492 339 67 21 123 212 117 92 185 314 446 233 9 0
1510 1108 483 522 337 487 1 0 0 256 487 830 1167 1019 1099 535 330 443 439 146 72 26 29 219 361 584 494 366 525 499 333 169 30 9 126 49 85 237 412 356 25 0 0
1846 1286 662 862 560 486 0 0 0 216 328 571 885 1000 1246 1130 964 480 633 526 496 796 579 198 286 519 418 157 65 38 75 60 71 87 255 115 111 140 294 361 8 0 0
2330 1209 584 743 754 660 0 0 0 434 612 999 1142 1050 1268 756 338 133 110 150 589 824 304 34 4 0 0 0 0 0 3 7 14 25 18 54 73 16 14 4 63 0 0
1915 875 610 885 769 1178 0 0 0 316 285 409 1733 1379 145 112 46 0 144 227 425 533 306 190 135 0 10 8 0 6 38 55 41 29 7 3 0 0 45 16 31 11 2

GFSMA_con_sbcape_006.txt.gz
CAPE
2251 898 2858 2698 2856 2380 1869 2276 1810 1778 2134 1824 820 721 376 406 256 154 1078 2279 1637 1236 1674 1801 1573 270 1144 1779 1699 1730 1543 1168 1171 1442 1450 1552 1646 1555 1373 1365 1442 1243 922
3069 1352 2277 1937 2197 1871 2697 2175 2489 2283 1734 1359 1546 389 377 478 352 436 288 1933 2170 1832 1425 1797 1913 1654 1602 1545 2065 1722 1750 1816 1762 1203 1565 1823 1638 1690 1627 1857 1536 1162 1124
3636 3297 2688 2898 2260 2119 2646 2192 2214 986 516 573 575 416 371 346 469 215 311 321 1743 2447 2061 1972 1985 2150 2036 1911 1891 2122 2119 1608 1865 1962 1832 1817 2068 2042 2007 1975 1694 1337 1288
3243 3224 2691 1328 545 2161 2278 1544 1445 1504 544 369 352 636 462 292 194 333 320 98 554 908 2241 2225 2305 2080 2008 1926 1638 1998 1930 2525 2370 2137 2118 2087 2288 2375 2309 2154 1943 1903 1820
2781 2818 2748 1564 2023 2036 2192 1176 390 1204 279 504 141 217 347 447 224 30 98 240 482 876 1356 2076 2293 2380 1876 1623 1821 2029 1905 1676 1671 1872 2050 2053 2081 2088 2044 2063 2089 2106 2167
2817 2800 2767 2191 2622 2897 1428 1703 1167 847 577 289 104 14 359 434 357 25 27 37 47 394 717 1380 1531 1600 1796 1493 1724 1709 1588 1869 2007 2012 1925 1911 1979 1903 2026 2063 1929 2029 2102
2643 3012 2735 2202 1791 2602 874 1133 870 487 603 425 218 136 429 357 381 206 0 0 0 9 237 654 1068 1615 1388 1364 1551 1574 1311 1226 1343 1592 1934 1850 1942 1951 1851 1840 2016 2164 2151
3468 2412 2629 2350 1865 1803 1803 1353 692 387 421 773 194 403 257 558 123 175 13 0 0 0 0 138 611 686 1177 1235 664 411 350 594 970 1163 1263 1248 1423 1526 1749 1789 1889 2014 2087
3213 1726 2535 2687 2426 1634 1276 1400 839 358 291 1161 307 398 413 514 458 475 229 10 2 0 0 0 0 0 0 520 441 0 0 0 3 51 209 272 288 441 706 994 1423 1735 1774
3074 3032 3101 2939 2629 1322 1729 1204 688 284 829 419 809 360 215 132 223 198 556 53 21 0 0 0 0 0 0 0 0 0 0 0 0 0 0 0 0 0 0 52 384 789 1286
2942 2578 2841 2833 2224 1435 1645 765 617 416 839 564 412 611 831 479 146 54 87 73 83 48 3 0 0 0 0 0 0 0 0 0 0 0 0 0 0 0 0 0 0 0 5
2818 2939 2353 2445 2115 1156 1341 852 807 960 590 665 508 731 400 423 43 297 70 46 69 114 44 31 17 2 0 0 0 0 0 0 0 0 0 0 0 0 0 0 0 0 0
2095 2351 2594 2419 1682 1294 1423 1147 1131 1162 757 604 808 537 451 333 217 122 150 48 50 70 101 55 84 77 14 0 0 0 0 0 0 0 0 0 0 0 0 0 0 0 0
1884 1771 2166 2473 2308 1100 1049 1057 827 535 713 601 191 562 475 523 409 219 130 95 55 67 56 118 123 276 123 37 13 0 0 0 0 0 0 0 0 0 0 0 0 0 0
2348 2193 1935 2350 1813 1382 1167 1344 404 571 608 993 847 669 470 145 311 334 199 271 47 57 22 92 77 117 48 75 57 43 10 117 50 0 0 0 0 0 0 0 0 0 0
2479 1646 2117 1674 1848 1118 1331 1217 596 852 674 558 434 614 592 325 472 340 52 243 64 95 43 102 115 152 206 149 106 125 132 163 118 16 0 0 0 0 0 0 0 0 0
2119 2152 1671 1845 1708 1300 1257 940 681 580 623 679 524 651 547 1003 606 410 658 314 152 199 240 118 87 116 132 160 125 154 237 149 124 41 22 6 0 0 0 0 0 0 0
2541 2003 2129 1907 1700 887 1112 800 509 159 734 684 842 890 675 468 1014 782 854 672 734 623 384 356 294 210 169 268 318 275 191 25 44 39 62 33 14 0 0 0 0 0 0
2835 2572 2076 1925 1306 768 933 670 573 569 700 523 530 712 720 824 1014 1003 740 810 553 419 266 149 128 239 84 33 48 81 45 293 349 108 22 0 5 3 0 0 0 0 0
2987 2920 2175 1906 1245 751 683 624 682 686 660 621 918 933 1039 809 925 1047 760 924 933 625 217 126 115 100 196 97 245 91 39 152 175 49 36 14 6 4 0 0 0 0 0
3581 3256 2284 1796 1178 617 560 698 656 665 784 868 672 999 965 1029 670 806 914 718 992 468 180 34 31 13 40 132 100 102 70 61 39 49 53 31 0 3 0 0 0 10 0
3474 3008 1751 1312 746 487 306 304 723 740 888 940 640 1000 1228 411 257 93 82 151 652 379 137 37 36 42 51 159 163 112 101 42 0 0 49 0 0 0 0 0 0 0 0
3062 2374 1402 833 441 575 4 18 285 564 561 871 675 1049 678 538 507 792 277 143 119 72 60 20 35 71 118 194 158 104 80 45 0 0 0 0 0 7 0 5 9 10 10
2521 2206 1381 483 411 560 85 3 1 63 406 851 710 830 307 827 1099 1218 729 825 302 244 193 119 57 49 245 414 167 26 0 0 0 0 3 4 0 0 0 0 0 0 0
2239 1995 1191 592 627 706 0 0 0 3 157 425 655 621 769 1314 1195 142 230 236 236 592 546 152 163 201 56 0 0 8 0 0 0 0 1 0 5 1 0 0 0 0 0
2333 2279 1347 975 702 1226 0 0 0 105 321 556 741 905 313 518 694 45 143 385 656 617 629 480 118 14 3 2 0 0 4 8 19 16 5 0 0 0 0 0 0 0 0

GFSMA_con_sbcape_009.txt.gz
CAPE
447 404 625 416 522 560 811 539 1075 1086 975 1009 477 97 12 1 0 63 980 1689 1690 1736 1966 1808 1354 266 1586 1888 1737 1668 1491 1240 1469 1431 1207 1213 1433 1330 1506 1172 1238 1381 930
971 806 966 886 1248 1342 1430 1220 1005 689 420 349 531 35 9 45 22 28 280 1225 1815 1439 1660 2007 1737 620 617 2098 1832 1841 1862 1783 1376 1111 1627 1458 1763 1644 1725 1309 1105 984 1146
1131 1568 1318 905 1292 1262 1434 793 777 150 24 41 2 1 15 11 6 0 0 29 1273 2002 1471 2073 2114 1697 1261 1845 1884 1967 2129 2271 2047 1817 1747 1681 1890 1911 1885 1689 1789 1567 1399
1789 1612 1226 1067 371 1126 985 799 717 430 240 0 0 17 9 11 8 12 79 0 581 1047 1786 1716 2161 2273 1924 1734 1655 2030 2399 2321 2102 2059 2040 1823 1736 1934 2264 2162 2007 1698 1765
1741 1159 1316 806 522 971 723 263 158 330 0 0 0 4 1 0 3 3 2 24 14 282 1049 1476 1588 1557 1325 1451 1640 1753 1513 2276 2351 2257 2256 2119 1995 1936 1925 1980 1988 2101 2092
1179 1227 1189 789 1087 886 268 249 191 0 0 0 0 0 3 1 0 0 0 0 2 730 780 951 743 1024 1714 1594 1560 1737 1758 1847 1901 1837 1938 1966 2030 1999 1998 2021 1920 1918 1815
1418 1298 1310 1169 1307 998 388 437 37 0 0 0 0 8 29 20 24 0 0 0 0 0 105 296 425 680 1336 1432 1576 1604 1253 1137 1332 1396 1365 1842 2059 1925 1685 1928 1897 1905 1961
1535 1334 1323 1251 1042 1002 295 3 0 0 0 0 0 0 20 58 29 2 0 0 0 0 0 0 31 529 763 440 364 431 369 491 750 1118 1270 1136 1024 1042 1371 1342 1343 1249 1609
1747 1267 1429 1108 754 453 273 5 0 0 0 0 0 0 16 13 32 32 0 0 0 0 0 0 0 0 213 58 0 0 0 0 0 4 24 48 57 110 273 583 919 1208 1405
1922 975 1180 1321 904 186 114 5 8 0 10 0 60 0 0 0 20 19 13 0 0 0 0 0 0 0 0 3 0 0 0 0 0 0 0 0 0 0 0 0 14 94 334
1696 1597 1553 1448 513 0 76 69 3 0 63 5 7 35 1 0 0 0 10 4 11 0 0 0 0 0 0 0 0 0 0 0 0 0 0 0 0 0 0 0 0 0 0
1432 1839 1458 1034 391 156 34 28 47 14 62 39 0 3 0 0 0 0 0 0 3 8 7 0 0 0 0 0 0 0 0 0 0 0 0 0 0 0 0 0 0 0 0
1620 1583 1353 761 231 160 118 46 47 76 28 41 0 0 2 0 0 0 0 0 0 0 16 17 1 0 0 0 0 0 0 0 0 0 0 0 0 0 0 0 0 0 0
1424 1188 1191 812 337 80 278 269 79 88 52 1 10 0 0 0 0 0 0 0 0 0 0 1 0 9 0 0 0 30 0 0 0 0 0 0 0 0 0 0 0 0 0
1098 1072 1271 1021 530 187 258 185 102 11 129 54 0 0 0 0 0 0 6 1 0 0 0 0 0 0 3 5 1 4 0 0 0 0 0 0 0 0 0 0 0 0 0
1254 833 1329 1390 946 220 169 175 38 112 29 32 6 5 0 0 0 18 11 5 1 4 0 0 6 0 52 39 23 50 2 54 15 15 0 0 0 0 0 2 0 0 0
1127 1131 1015 1455 963 343 325 281 16 24 149 0 0 0 44 28 16 16 70 27 11 16 3 5 0 4 7 0 0 0 6 25 24 15 1 0 0 0 0 2 8 0 0
1122 1236 1253 851 1028 560 355 358 62 111 28 79 15 8 3 0 76 81 157 141 141 107 12 30 52 39 21 4 2 7 32 62 13 3 3 6 0 0 0 0 0 0 0
1611 932 799 963 887 697 428 417 101 11 123 59 94 88 59 46 84 172 174 212 167 137 69 38 15 28 30 8 3 0 0 0 18 62 34 30 14 0 0 0 0 0 0
1881 1086 947 946 968 663 405 382 200 106 126 132 60 97 84 64 107 282 157 138 165 168 83 42 30 30 17 14 11 17 0 0 0 10 12 6 2 0 0 0 0 0 0
2130 1888 1248 1209 836 452 347 273 287 266 213 183 95 277 166 310 290 204 211 240 209 171 127 63 31 0 0 0 13 0 0 0 0 0 0 0 0 0 0 1 0 2 0
2384 2145 1681 1268 923 504 402 301 291 327 300 289 310 427 81 519 492 321 295 263 283 229 77 5 2 11 0 2 4 0 0 0 0 0 0 0 0 0 0 0 0 0 0
2838 2592 1728 1143 780 456 258 232 333 276 266 267 361 435 339 372 259 177 89 74 105 218 126 41 6 0 0 0 10 0 0 0 0 0 0 0 0 0 0 0 0 0 0
2828 2218 1426 796 505 281 87 3 59 222 224 195 426 389 176 37 202 161 192 110 118 105 73 30 0 4 0 4 27 27 1 0 0 0 0 0 0 0 0 0 0 0 0
2263 1931 1173 485 229 233 73 0 0 35 47 62 125 165 85 54 176 173 177 149 23 22 92 141 70 25 12 12 35 0 0 0 0 0 0 0 0 0 0 0 0 0 0
1653 1554 1031 288 164 258 100 29 0 0 0 0 5 94 120 164 418 80 32 1 22 66 0 0 0 0 0 0 0 0 0 0 0 0 0 0 0 0 0 0 0 0 0

GFSMA_con_sbcape_012.txt.gz
CAPE
167 57 214 410 292 487 396 675 782 871 765 554 357 55 3 3 37 347 480 1813 1695 2467 2026 1420 457 1083 1710 1771 1589 1612 1598 1076 909 977 1214 1175 893 1045 968 944 804 799 971
166 227 155 535 608 578 689 716 731 421 55 15 31 370 9 27 0 10 445 995 1609 2076 2534 1941 1558 524 1257 1988 1866 1671 1586 1353 1450 1352 1455 1395 1547 1399 827 1131 1211 1160 1014
350 476 574 408 698 610 884 405 246 41 5 11 0 2 9 10 2 0 2 386 839 1746 2127 2147 2036 1079 716 1796 2081 1885 1939 2166 2123 1618 1740 1567 1368 1518 1188 1309 1330 1291 1319
736 898 925 968 564 479 544 510 365 229 144 0 0 0 1 10 9 6 13 65 466 801 1687 2170 2636 2094 1419 1357 1482 2103 2395 1657 1683 1945 1885 1592 1113 1304 1640 1826 1543 1712 1719
1325 983 759 701 271 712 355 105 81 106 1 0 0 0 5 2 2 5 2 10 19 352 661 1203 1366 1609 1337 1042 1450 1667 1905 1993 2114 2236 1923 1729 1602 1636 1807 1816 1950 1955 1862
1372 608 906 503 303 494 173 67 38 0 0 0 0 0 1 1 0 0 0 0 399 672 706 751 550 875 1600 1327 1437 1742 1619 1519 1569 1742 1769 1933 1750 1718 1722 1872 1957 1851 1810
933 684 719 906 652 518 106 49 0 0 0 0 0 0 5 7 0 0 0 0 10 77 163 181 492 856 1303 1325 1710 1511 1316 1219 1308 1342 1809 1641 1485 1544 1381 1253 1327 1459 1826
812 891 765 818 838 720 154 0 0 0 0 0 0 0 1 26 10 0 0 0 0 0 0 61 236 350 376 170 414 692 615 693 904 1187 1102 1045 1077 931 1014 1185 1298 1399 1489
1006 1083 877 810 636 433 90 0 0 0 0 0 0 0 0 0 9 5 0 0 0 0 0 0 0 75 265 20 26 0 0 0 5 38 53 46 34 53 151 293 521 685 866
1202 938 800 611 280 96 36 0 0 0 0 0 4 0 0 0 0 1 0 0 0 0 0 0 0 0 102 0 0 0 0 0 0 0 0 0 0 0 0 0 0 8 68
1349 956 817 709 226 36 4 0 0 0 0 0 0 0 0 0 0 0 0 0 0 0 0 0 0 0 0 0 0 0 0 0 0 0 0 0 0 0 0 0 0 0 0
1244 1049 887 942 105 7 0 0 0 0 6 8 0 0 0 0 0 0 0 0 0 0 0 0 0 0 0 0 0 0 2 0 0 0 0 0 0 0 0 0 0 0 0
1034 1239 1026 833 97 0 0 0 0 0 0 0 0 0 0 0 0 0 0 0 0 0 0 0 0 0 0 0 0 19 48 0 0 0 0 0 0 0 0 0 0 0 0
1349 991 1076 560 44 0 0 0 0 0 1 0 0 0 0 0 0 0 0 0 0 0 0 0 0 0 0 0 0 215 0 0 0 0 0 0 0 0 0 0 0 0 0
1099 913 1058 437 65 3 2 10 0 0 18 0 0 0 0 0 0 0 0 0 0 0 0 0 0 0 0 0 0 0 0 0 0 0 0 0 0 0 4 6 10 8 0
1003 915 825 540 146 14 72 15 4 0 9 7 0 0 0 0 0 0 0 0 0 0 0 0 0 0 0 0 0 9 0 4 1 0 0 0 0 0 5 19 24 18 14
587 859 711 662 305 87 26 0 1 3 0 6 5 0 0 0 0 0 0 0 0 0 0 0 0 0 0 0 0 0 0 0 1 1 3 5 0 0 0 4 13 17 11
643 823 710 897 655 243 32 80 0 0 5 0 0 0 0 1 11 1 0 21 27 0 0 1 0 1 7 6 0 0 0 3 0 0 0 0 0 0 0 0 0 0 0
698 697 633 1007 862 452 157 85 11 0 0 4 0 0 0 1 0 0 4 8 54 48 17 7 18 6 9 1 0 0 0 0 0 5 0 0 0 0 0 0 0 0 0
984 820 778 711 972 686 251 207 73 0 0 0 0 0 0 1 11 2 57 71 107 87 82 84 60 17 3 0 0 0 0 0 0 0 0 0 0 0 0 0 0 0 0
1292 939 604 784 620 701 493 255 188 31 0 1 1 0 0 29 31 9 70 69 62 100 116 89 26 0 0 0 0 0 0 0 0 0 0 0 0 0 0 0 0 0 0
1990 1072 724 524 591 716 583 241 238 134 22 3 0 0 25 177 136 183 73 30 59 119 85 5 0 0 0 0 0 0 0 0 0 0 0 0 0 0 0 0 0 0 0
1733 1514 923 773 691 732 500 52 91 184 66 53 0 0 45 100 79 79 47 6 28 77 99 1 1 0 0 0 0 0 0 0 0 0 0 0 0 0 0 0 0 0 0
2044 1885 1328 1006 856 487 87 34 111 156 83 17 15 35 172 152 42 12 11 23 17 13 30 9 4 5 0 0 0 0 0 0 0 0 0 0 0 0 0 0 0 0 0
2413 2250 1564 1119 859 562 0 0 42 89 125 33 21 142 233 129 2 21 23 16 12 14 18 16 5 0 0 0 0 0 0 0 0 0 0 0 0 0 0 0 0 0 0
2610 1848 1352 1059 668 327 0 1 0 0 12 3 12 18 3 1 1 4 26 4 5 11 0 0 0 0 0 0 0 0 0 0 0 0 0 0 0 0 0 0 0 0 0

GFSMA_con_sbcape_015.txt.gz
CAPE
285 0 0 232 141 300 333 459 626 715 732 192 89 24 1 109 347 321 273 1633 1646 1939 1924 1240 1532 1711 1759 1644 1536 1485 1311 1472 1389 1233 956 1228 744 527 593 828 791 759 759
205 26 0 200 266 303 435 645 595 420 36 18 92 157 8 16 40 186 194 318 1664 1771 2185 1585 1275 836 1613 1791 1709 1644 1612 1168 990 1074 1214 1323 1628 949 769 924 1033 1080 1155
159 104 33 276 466 525 612 480 212 10 5 8 0 0 6 0 7 3 22 187 567 1435 1700 1891 1412 890 775 1830 1548 1799 1840 1899 1648 1685 1509 1505 1442 1342 1317 1008 1157 1215 1043
240 202 466 355 408 375 568 270 217 129 41 0 0 0 1 2 4 3 3 9 124 450 938 1281 1693 1601 1193 1087 1432 1912 1899 1863 1878 1875 2026 1386 1519 1507 1512 1454 1245 1383 1221
498 568 612 547 218 402 130 98 16 2 0 0 0 0 0 0 0 0 2 14 36 405 421 698 1459 1698 1456 1216 1217 1331 1749 2023 1944 1582 1527 1665 1776 1760 1825 1853 1836 1948 1645
923 667 527 452 195 449 151 14 0 0 0 0 0 0 0 0 0 0 0 52 231 628 514 683 396 652 1314 1395 1291 1276 1373 1302 1175 1489 2016 2002 1957 1934 1834 1883 1835 1831 1719
1085 648 542 353 238 416 144 0 0 0 0 0 0 0 0 0 0 0 0 6 68 122 111 263 404 694 852 1098 1374 1397 1192 1029 1213 1187 931 992 1681 1568 1561 1553 1510 1621 1624
889 588 415 560 444 452 103 21 0 0 0 0 0 0 3 3 0 0 0 0 0 0 0 69 147 254 141 164 489 915 821 902 1088 1123 980 1072 1060 912 919 1002 1085 1206 1204
482 636 432 482 517 380 170 4 0 0 0 0 0 0 0 0 0 0 0 0 0 0 0 0 68 243 41 3 27 0 0 34 169 212 154 97 44 40 93 199 275 325 407
596 622 647 558 459 274 64 0 0 0 0 0 0 0 0 0 0 0 0 0 0 0 0 0 0 0 94 0 0 0 0 0 0 0 0 0 0 0 0 0 0 0 0
852 794 647 481 215 46 49 0 0 0 0 0 0 0 0 0 0 0 0 0 0 0 0 0 0 0 19 25 0 0 0 0 0 0 0 0 0 0 0 0 0 0 0
935 867 683 444 145 16 8 0 0 0 0 0 0 0 0 0 0 0 0 0 0 0 0 0 0 0 0 0 21 10 27 0 0 0 0 0 0 0 0 0 0 0 0
971 954 644 557 150 7 0 0 0 0 0 0 0 0 0 0 0 0 0 0 0 0 0 0 0 0 0 0 0 69 37 24 0 0 0 0 0 0 0 0 0 0 0
1024 1014 834 687 323 0 0 0 0 0 0 0 0 0 0 0 0 0 0 0 0 0 0 0 0 0 0 0 0 1 4 45 0 0 0 0 0 0 0 0 0 0 0
1005 886 915 774 248 9 0 0 0 0 0 0 0 0 0 0 0 0 0 0 0 0 0 0 0 0 0 0 0 0 0 0 0 0 0 0 0 0 14 27 39 33 34
842 746 931 721 216 18 0 0 0 0 0 0 0 0 0 0 0 0 0 0 0 0 0 0 0 0 0 0 0 0 0 0 0 0 0 0 0 1 19 36 38 42 45
655 817 816 723 274 30 0 0 0 0 0 0 0 0 0 0 0 0 0 0 0 0 0 0 0 0 0 0 0 0 0 0 0 0 0 0 0 0 6 25 31 25 23
606 729 659 670 369 87 17 6 0 0 0 0 0 0 0 0 0 0 0 0 0 0 0 0 0 0 0 0 0 0 0 0 0 0 0 0 0 0 0 0 0 0 0
626 695 575 674 449 157 37 7 0 0 0 0 0 0 0 0 0 0 0 0 0 0 0 0 0 0 0 0 0 0 0 0 0 0 0 0 0 0 0 0 0 0 0
872 621 646 732 706 432 171 40 2 0 0 0 0 0 0 0 0 0 0 0 0 0 0 0 14 0 0 0 0 0 0 0 0 0 0 0 0 0 0 0 0 0 0
1089 816 566 617 769 641 351 188 97 51 3 0 0 0 0 0 0 0 0 0 0 0 0 12 29 0 0 0 0 0 0 0 0 0 0 0 0 0 0 0 0 0 0
1287 801 740 590 547 741 604 234 217 131 17 4 1 0 0 0 0 1 2 4 0 0 0 3 0 1 0 0 0 0 0 0 0 0 0 0 0 0 0 0 0 0 0
1514 942 742 624 568 578 516 172 119 166 34 4 42 13 0 0 3 20 22 0 0 0 0 0 0 0 0 0 0 0 0 0 0 0 0 0 0 0 0 0 0 0 0
1784 1139 879 545 638 641 104 80 175 151 80 107 64 12 0 0 0 14 12 7 0 0 1 0 0 0 0 0 0 0 0 0 0 0 0 0 0 0 0 0 0 0 0
1729 1669 1193 953 930 832 61 30 28 144 143 114 84 0 0 0 10 2 1 2 0 0 7 3 0 0 0 0 0 0 0 1 0 0 0 0 0 0 0 0 0 0 0
2141 1833 1666 1402 1303 974 1 1 28 227 193 65 0 0 1 21 6 0 0 0 0 0 0 0 0 0 0 0 0 0 0 0 0 0 0 0 0 0 0 0 0 0 0

GFSMA_con_sbcape_018.txt.gz
CAPE
363 0 0 228 200 356 474 652 665 995 597 246 127 16 8 462 611 597 455 1022 1067 1420 1059 1156 1247 1593 1733 1527 1471 1505 1436 1191 1252 1322 1209 1136 719 757 571 710 808 920 603
233 211 41 138 279 257 480 783 712 408 20 26 180 103 10 37 258 315 297 386 1020 1097 1359 1177 1097 1387 1450 1523 1559 1539 1534 1276 1538 1425 1063 1441 1254 872 700 914 1028 986 1023
260 138 41 82 417 537 641 650 257 55 9 3 0 7 13 15 25 54 96 268 493 858 1089 1147 1250 967 823 1461 1569 1741 1711 1947 1410 1148 1729 1419 1489 1410 1283 1038 926 1181 1250
390 140 172 322 456 368 721 414 331 225 17 0 1 4 3 9 9 19 4 0 74 561 789 1303 1773 974 932 934 1456 1603 1649 1798 1795 1901 2003 1821 1727 1548 1521 1469 1346 1432 1196
654 255 405 606 481 273 386 276 108 26 0 0 0 0 0 0 5 0 14 66 82 547 674 622 1034 1187 819 1126 1323 1222 1531 1774 1792 1940 1704 1848 1816 1802 1783 2010 1940 1938 1861
680 379 395 509 195 332 153 33 6 0 0 0 0 0 0 0 0 0 44 197 637 660 697 875 863 833 956 950 1022 859 1066 1173 1229 1394 1876 2005 1862 1792 1604 1763 1747 1713 1633
821 654 555 488 127 395 234 69 2 0 0 0 0 0 8 0 0 0 0 100 264 156 267 586 718 1010 1110 987 879 1105 1068 987 953 971 1108 1274 1235 1196 1338 954 1026 1269 1382
859 797 532 519 273 402 113 62 0 0 0 0 0 0 3 11 1 0 0 4 19 13 0 256 471 462 465 572 892 888 842 954 1129 1062 1049 972 1006 907 787 884 918 1024 1004
775 791 451 434 469 404 338 79 0 0 0 0 0 0 0 9 0 0 0 0 0 0 0 24 286 418 117 110 4 0 0 54 157 222 180 94 50 36 55 99 106 154 162
516 631 581 407 452 404 268 98 0 0 0 0 0 0 0 0 0 0 0 0 0 0 0 0 0 10 322 30 0 0 0 0 0 0 0 0 0 0 0 0 0 0 0
569 580 603 543 485 311 236 37 0 0 0 0 0 0 0 0 0 0 0 0 0 0 0 0 0 0 51 111 36 0 0 0 0 0 0 0 0 0 0 0 0 0 0
667 711 668 585 435 142 130 34 0 0 0 0 0 0 0 0 0 0 0 0 0 0 0 0 0 0 0 27 68 63 31 12 0 0 0 0 0 0 0 0 0 0 0
678 783 725 545 302 109 63 15 0 0 0 0 0 0 0 0 0 0 0 0 0 0 0 0 0 0 0 0 7 88 151 63 0 0 0 0 0 0 0 0 0 0 0
765 895 786 730 488 104 62 0 0 0 0 0 0 0 0 0 0 0 0 0 0 0 0 0 0 0 0 0 0 0 45 0 25 0 0 0 0 0 0 12 24 9 1
690 827 874 763 579 109 58 0 0 0 0 0 0 0 0 0 0 0 0 0 0 0 0 0 0 0 0 0 0 0 0 3 6 10 0 0 0 0 10 26 35 34 27
810 841 949 898 601 177 43 0 0 0 0 0 0 0 0 0 0 0 0 0 0 0 0 0 0 0 0 0 0 25 1 0 0 0 0 0 0 1 11 22 38 53 60
621 867 938 900 624 245 75 4 0 0 0 0 0 0 0 0 0 0 0 0 0 0 0 0 0 0 0 25 14 0 0 0 0 0 0 0 0 0 0 8 8 14 24
614 823 842 943 730 354 141 71 3 0 0 0 0 0 0 0 0 0 0 0 0 0 0 5 0 11 16 20 30 43 3 0 0 0 0 0 0 0 0 0 0 0 0
631 743 833 905 779 491 216 131 89 43 1 0 0 0 0 0 0 0 0 0 0 0 0 0 5 0 0 0 10 0 0 2 0 0 0 0 0 0 0 0 0 0 0
742 792 847 936 871 612 346 253 163 102 80 36 0 0 0 0 0 0 0 0 0 1 0 1 4 51 30 1 1 0 0 0 0 0 0 0 0 0 0 0 0 0 0
972 813 916 931 947 726 520 294 231 163 127 98 19 1 0 0 0 0 0 0 0 8 4 8 24 15 0 9 14 2 0 0 0 0 10 0 0 0 0 0 0 0 0
1192 946 865 976 942 908 624 232 286 310 225 146 72 0 26 4 0 0 0 0 2 17 29 27 22 34 61 1 0 0 0 0 53 0 0 22 0 2 0 0 0 0 0
1228 1064 1016 985 1020 1082 537 225 182 522 431 289 192 104 55 62 3 31 0 0 0 2 9 52 48 27 17 2 0 0 0 0 22 17 0 47 0 0 0 0 0 0 0
1304 1248 1122 1021 985 931 476 188 135 744 497 279 214 229 229 175 54 57 88 0 0 16 12 24 40 71 15 4 2 0 0 2 0 0 0 3 0 0 0 0 0 0 0
1467 1480 1304 1044 1047 1062 363 46 78 650 495 313 279 243 196 164 1 0 49 56 3 7 0 0 0 0 0 0 0 1 2 2 1 0 0 0 0 0 0 0 0 0 0
1751 1737 1374 1087 983 1238 62 0 85 544 392 317 311 241 6 55 0 0 75 52 7 2 0 0 0 0 0 0 0 0 0 0 0 0 0 0 0 0 0 0 0 0 0

GFSMA_con_sbcape_021.txt.gz
CAPE
1712 1524 1141 1053 1194 1300 1372 1475 1571 1910 1066 385 676 108 189 276 557 275 550 859 956 919 718 1060 1059 1562 1451 1340 1435 1254 958 736 1339 1161 1284 1182 945 1088 754 649 763 936 593
1332 1398 1597 937 1400 1473 1417 1470 1622 1019 313 547 688 492 87 59 463 422 192 555 872 829 822 1184 908 1386 1568 1532 1532 1575 1547 1561 1431 1416 1262 1279 1192 835 633 751 1014 964 1060
1673 1854 1759 1085 1162 1733 1908 1868 1090 1054 55 20 16 102 117 124 41 229 275 309 517 731 818 879 1085 1191 1183 1420 1488 1644 1675 1668 1509 1597 1563 1142 1400 1439 1331 1034 875 1077 1240
1772 1891 1737 1281 1318 1801 2076 1970 1876 1543 403 27 39 83 168 120 94 77 147 201 490 379 664 991 875 1028 751 838 1363 1484 1526 1623 1766 1728 1659 1531 1666 1677 1568 1500 1470 1384 1307
1570 1809 1825 1621 1778 1565 1901 1961 1258 1017 201 25 16 52 95 122 60 40 274 374 568 669 714 721 1152 946 739 872 1055 1095 1259 1395 1576 1646 1627 1703 1791 1808 1942 1892 1809 1798 1581
1695 2021 1803 1807 1769 1605 1482 1290 1240 384 43 104 0 40 43 39 36 289 341 452 937 930 947 1001 873 845 880 875 958 865 925 1211 1339 1499 1885 1996 1893 1989 1866 1879 1797 1806 1789
2090 2134 1805 1814 1717 1554 1572 1482 868 408 41 141 61 121 152 22 17 123 278 145 103 184 506 858 919 1148 958 947 973 1096 1031 984 895 925 953 1091 1304 1402 1455 1291 1031 1035 800
2092 2117 2086 1944 1750 1470 1635 1421 922 209 27 82 42 50 13 26 0 0 70 70 145 0 0 304 984 1144 830 505 614 417 723 980 1161 1148 1097 990 975 1027 891 770 733 699 766
2176 2230 2183 2022 2008 1760 1588 1552 1005 575 111 105 60 33 0 1 34 0 1 5 33 3 3 93 211 571 474 79 0 0 0 111 120 189 171 101 86 90 84 87 73 97 101
2131 2210 2248 2123 2146 1807 1794 1655 1073 676 152 43 104 41 127 218 1 4 0 0 0 0 24 1 5 38 249 0 0 0 0 0 0 0 0 0 0 0 0 0 0 0 0
2096 2027 2222 2213 2198 1939 1903 1758 1073 628 201 46 64 64 27 59 107 37 8 0 0 0 0 13 1 14 49 68 21 0 0 0 0 0 0 0 0 0 0 0 0 0 0
1680 2027 2075 2307 2307 2054 2044 1793 1255 859 339 118 169 170 18 0 0 76 96 14 0 0 0 0 7 10 26 37 46 45 34 0 0 0 0 0 0 0 0 0 0 0 0
1467 2198 2214 2253 2128 2140 2039 1727 1262 880 489 201 253 173 216 92 13 0 0 22 28 0 0 30 26 20 14 41 26 86 292 87 10 0 0 0 0 0 0 0 0 0 0
1566 1971 2287 2290 2248 2133 1981 1553 1192 898 531 425 345 242 172 190 40 12 4 6 3 8 0 11 0 16 59 33 18 4 35 39 2 0 0 0 0 0 0 0 0 0 0
1541 1860 2146 2300 2317 2194 2002 1625 1237 936 455 416 289 326 208 151 21 0 0 0 0 0 0 7 0 24 59 81 43 31 69 15 25 12 0 0 0 0 0 0 1 13 38
1880 1725 1982 2208 2316 2219 2020 1735 1435 1055 571 319 176 306 219 108 110 39 0 0 0 2 0 0 0 52 72 59 71 184 143 0 0 0 0 0 0 0 0 11 20 31 45
2196 2149 2158 2137 2208 2216 2027 1825 1683 1244 685 588 279 303 323 302 95 59 54 52 50 2 4 12 7 79 202 241 63 146 65 175 91 0 0 0 0 0 0 0 5 9 22
2153 2644 2559 2228 2236 2277 2083 1837 1756 1347 980 790 642 342 235 124 231 159 50 155 58 78 35 253 118 144 306 313 387 532 247 9 84 4 0 0 0 0 0 0 0 0 0
2412 1954 2515 2629 2220 2170 2109 1874 1921 1732 1259 1087 832 528 409 276 139 35 51 38 27 123 118 80 88 115 115 139 271 415 464 188 39 0 0 0 0 0 0 0 0 0 0
2436 2491 2566 2582 2400 2097 2064 1911 1845 1897 1578 1250 1073 643 386 207 242 197 217 205 152 139 183 175 81 96 189 271 224 194 148 132 44 1 0 0 0 0 0 0 0 0 0
2382 2461 2607 2616 2444 2172 1909 2137 1868 1866 1826 1430 1156 752 439 314 78 195 221 300 290 234 147 118 88 67 68 228 296 139 147 132 103 130 92 118 147 184 151 0 0 0 0
2482 2514 2507 2586 2571 2050 1423 992 1687 2102 1919 1765 1593 1051 607 80 3 0 0 38 268 308 334 225 220 203 651 573 223 158 150 176 168 178 266 168 398 441 411 410 0 0 0
2494 2547 2510 2576 2624 2621 933 393 344 2033 1903 1978 1802 1459 919 524 145 205 1 0 0 0 62 718 641 495 349 489 295 202 204 211 234 275 336 296 363 431 207 71 0 0 0
2576 2655 2554 2582 2679 2599 725 218 148 1590 2117 2149 1820 1609 1290 1054 680 525 564 269 176 211 54 62 537 771 449 389 318 225 374 343 231 214 301 93 54 106 33 0 0 0 0
2768 2692 2698 2684 2627 2707 655 91 84 1415 2167 2126 1822 1574 1370 1334 880 71 503 754 748 756 103 0 18 0 0 0 37 113 66 50 108 41 44 19 3 4 0 0 0 0 0
2723 2593 2771 2774 2232 2710 731 6 56 1665 2089 1871 1711 1488 448 1053 157 0 370 910 853 703 305 0 1 0 0 0 0 38 0 0 0 0 13 0 0 0 0 0 0 0 0

GFSMA_con_sbcape_024.txt.gz
CAPE
1933 1734 1559 1344 1535 1154 1190 1665 1011 806 1347 1089 927 53 46 53 51 52 381 834 832 590 686 998 1288 1535 1318 1451 1445 1222 548 544 1294 1109 1152 1161 1078 1073 830 614 626 888 604
1748 1588 1664 1367 1441 1438 1658 1003 969 1607 506 634 493 57 49 66 46 40 86 480 799 688 618 1303 916 1641 1435 1331 1527 1555 1480 1199 1224 1355 1268 1451 1159 785 652 556 922 902 955
2122 2381 1797 1494 1202 2237 1261 1138 1085 1221 431 117 249 61 67 41 47 55 69 231 493 735 682 952 1025 1182 1225 1439 1634 1598 1469 1570 1547 1590 1638 1418 1400 1311 1384 1077 832 873 1168
2306 2456 1912 1388 1508 1577 1168 1018 921 898 620 221 51 56 57 55 45 41 48 87 198 488 615 668 815 1065 1060 910 1304 1441 1621 1525 1638 1620 1561 1554 1452 1594 1590 1522 1465 1446 1415
2047 2364 2159 1568 1992 1869 1284 1005 1132 1062 343 90 21 45 47 44 24 67 92 53 115 296 468 562 576 610 771 891 1017 1188 1406 1392 1509 1379 1548 1970 1718 1829 1972 1842 1770 1750 1687
1977 2490 2081 1477 1448 1716 1404 1563 1211 837 216 0 5 27 54 40 27 52 59 59 183 237 394 625 904 615 666 838 918 794 869 1104 1415 1460 1605 1727 1710 1878 2072 1947 1787 1775 1611
2431 2785 2254 1588 1475 1594 1428 1348 1336 988 168 15 35 32 82 28 15 39 44 29 5 14 96 256 662 1212 795 1007 1017 1022 963 909 834 890 961 912 1081 1559 1444 1253 1097 1305 1233
2743 2799 2937 2189 1693 1672 1677 1630 1479 561 198 17 54 35 54 40 28 29 21 12 4 3 2 8 328 565 464 663 308 356 749 1025 1129 1109 982 878 938 963 809 687 609 736 806
2553 2851 2439 2399 2127 1935 2845 2076 1675 1140 301 38 106 94 29 39 42 14 16 13 14 18 8 2 3 100 20 0 0 0 0 8 20 67 45 12 14 26 22 0 11 30 80
2335 2411 2666 2484 2721 1967 1961 2345 1725 1442 1396 99 30 0 206 394 34 48 31 24 5 9 4 11 7 0 3 9 0 0 0 0 0 0 0 0 0 0 0 0 0 0 0
2546 2214 2556 2526 2654 2775 2274 2390 2106 2042 1247 431 0 83 125 60 95 39 117 47 29 8 5 0 14 21 19 13 21 0 0 0 0 0 0 0 0 0 0 0 0 0 0
2047 2412 2379 2251 2356 2571 2582 2597 2454 2036 1698 812 16 66 28 0 0 6 8 22 29 39 24 22 18 20 37 50 36 38 4 3 0 0 0 0 0 0 0 0 0 0 0
1459 2543 2573 2746 2603 2876 2583 2692 2725 2048 2015 1243 867 8 40 77 11 0 0 0 3 17 13 28 36 22 18 30 45 27 295 75 0 0 0 0 0 0 0 0 0 0 0
1683 1736 2241 2513 2598 2564 2786 2802 2628 2227 1898 1593 958 309 20 98 115 46 3 0 3 6 18 63 11 11 5 4 38 72 7 61 61 12 1 0 0 0 0 18 29 57 37
1802 1926 2085 2561 2540 2654 2761 2866 2599 2447 1946 1791 1186 672 203 37 128 46 19 5 0 1 10 60 4 0 3 1 44 53 30 171 33 10 0 0 0 0 4 21 34 64 141
2876 2216 2401 2431 2462 2628 2810 2958 2553 2511 2315 1694 1039 679 549 44 120 67 13 0 0 0 0 0 1 6 0 5 46 49 86 41 22 0 2 0 0 0 0 0 0 44 93
3529 2955 2885 2508 2371 2601 2847 3091 3146 2385 2498 2140 1309 908 831 287 48 29 32 0 0 0 0 0 0 64 263 408 84 57 178 194 146 7 0 0 0 0 0 0 1 0 0
3678 3624 3142 2900 2598 2424 3039 2996 3021 2272 2479 2308 1887 1337 1005 434 510 527 116 461 253 107 0 133 37 43 539 427 679 666 455 133 135 35 0 0 0 0 0 0 0 0 0
3946 2880 3444 3800 3410 2916 3103 2944 3178 2931 2559 2501 2202 1862 1419 735 780 347 272 138 81 58 267 18 37 182 118 274 578 777 624 609 265 21 0 0 0 0 0 0 0 0 0
4041 3883 3943 4100 3680 3128 2940 2911 2908 3019 2943 2628 2555 2222 1742 1132 1015 669 374 435 179 128 405 113 12 11 163 311 179 65 458 696 395 110 25 0 5 0 0 0 0 0 0
3965 4086 4048 4112 3946 3046 2451 3426 3443 3007 3324 3165 2996 2558 2157 1340 563 574 392 989 1286 417 33 158 81 31 39 113 279 82 93 91 256 381 247 163 151 227 217 0 61 3 0
4102 4166 3980 4092 4098 3067 1851 1508 2625 3508 3680 3787 3482 2988 2427 998 465 108 86 162 931 981 1058 175 143 353 457 383 359 206 155 112 127 280 368 334 263 331 475 490 0 0 0
4156 4213 4167 4155 4254 4129 1502 727 1105 3086 3583 3553 3739 3204 2651 1980 925 1094 68 13 65 174 221 963 936 765 681 698 1041 718 421 341 273 303 586 394 275 263 219 114 0 0 0
4016 4130 4131 4180 4251 4113 2159 336 424 2679 3523 3536 3122 3093 3158 2809 1908 1403 1406 476 342 371 307 199 490 1015 1242 881 832 743 586 409 521 453 445 229 71 13 10 5 0 0 0
4095 4082 4089 4269 4274 4165 1816 259 215 2456 2666 3812 3386 3195 3291 3258 2339 611 1579 1617 974 964 129 78 1 1 0 0 138 335 219 146 154 94 181 25 6 8 1 0 0 0 0
3987 3341 3824 4109 3590 4165 2313 72 256 2174 2590 2668 3550 3896 1971 2710 2060 226 1319 1895 1856 1385 933 684 390 27 1 4 0 134 115 124 29 0 22 0 0 0 0 0 0 0 0

GFSMA_con_sbcape_027.txt.gz
CAPE
1726 1906 1529 2080 1889 1554 1104 899 1582 1149 1046 828 815 37 46 9 37 457 407 1482 995 577 848 963 1522 1096 1228 1391 1464 820 299 953 1269 949 1132 1130 1070 1052 751 506 492 823 745
1851 2450 1919 1904 1926 1893 1537 1216 1023 1632 646 730 159 39 50 46 2 113 289 601 1420 736 576 1185 1260 1662 1403 1385 1568 1377 1153 366 829 1423 1196 1410 1095 791 735 446 622 859 883
2085 2440 2370 1869 1990 1927 1760 1537 1348 485 585 38 20 32 206 37 39 13 284 321 504 1091 829 1237 1041 1602 1494 1436 1613 1612 1515 1494 1606 1517 1354 1277 1395 1382 1224 1149 878 756 796
2037 2467 1939 1436 1700 1417 1172 1534 1754 284 478 85 36 48 39 42 28 23 24 151 434 262 823 1015 981 1251 1162 1379 1470 1672 1658 1575 1538 1603 1655 1634 1616 1382 1474 1537 1525 1447 1408
2105 2369 1664 2535 2030 1730 968 962 910 702 121 26 35 39 45 35 162 34 12 53 76 416 247 1016 1152 949 1055 746 1084 1274 1394 1543 1659 1731 1601 1629 1679 1666 1726 1890 1729 1783 1761
2074 2405 2249 1798 1803 1235 1644 1215 1581 406 124 0 21 57 52 27 40 52 35 49 20 98 390 601 484 641 813 862 829 809 803 1027 1304 1454 1495 1678 1653 1626 1558 1465 1647 1595 1760
2115 2602 1973 2048 1727 2340 1589 1255 1176 758 45 22 26 40 28 21 35 33 39 14 0 20 34 297 986 636 596 1075 915 896 818 824 853 925 908 974 1037 1192 1350 1455 1134 1292 1630
2383 2743 2586 1897 1851 1828 1677 1660 1409 1501 39 0 271 69 87 19 16 27 18 7 7 6 2 15 303 928 801 833 478 572 939 1115 1277 1192 1043 901 1042 1119 967 759 643 788 920
2260 2851 2184 2086 2027 2308 2581 2067 1522 1237 793 0 184 182 101 590 36 16 0 18 1 8 6 1 16 32 143 2 0 0 6 46 36 63 22 0 3 39 20 0 0 30 65
2165 2350 2449 1932 2914 1956 2955 2365 1578 1849 1404 240 0 19 259 584 797 380 144 16 1 7 5 34 19 11 0 17 0 0 0 0 0 0 0 0 0 0 0 0 0 0 0
2655 2062 3083 2924 2905 2255 3027 2147 2113 2113 1428 1070 0 0 20 0 0 306 56 381 11 10 13 0 38 44 19 31 20 0 0 0 0 0 0 0 0 0 0 0 0 0 0
2350 3229 2600 3602 3204 3225 2669 2549 2789 2317 2190 1315 267 92 90 74 84 65 32 381 50 206 13 15 6 1 27 37 33 6 8 0 0 0 0 0 0 0 0 0 0 0 0
1173 2988 3584 3800 2664 3696 2845 3607 3615 2920 2282 1863 1688 29 55 71 53 7 1 6 8 38 12 10 26 14 8 10 44 70 95 0 0 0 0 0 0 0 0 0 0 0 0
1324 3007 3842 3557 3435 3392 3159 3760 2811 2499 2958 2008 1565 1431 71 83 108 65 25 17 13 10 20 32 26 14 23 10 108 157 22 118 73 19 0 0 0 0 0 25 20 16 0
1622 3193 3551 3592 3485 3566 3817 3944 2464 3348 3149 2719 2290 1847 502 32 65 84 39 18 4 52 440 175 0 188 9 14 33 0 20 113 145 8 0 0 2 19 43 47 27 27 75
3768 3496 3207 3314 3455 3732 3924 4201 3067 3456 3724 2565 1716 2607 1782 96 122 82 23 12 0 0 0 40 23 115 41 16 33 0 9 47 93 0 0 0 0 0 0 3 7 36 108
4479 3894 4220 3691 3721 3817 4065 4275 3806 3485 3751 3568 3003 2842 2248 2084 83 56 48 20 7 0 0 0 10 663 995 265 90 41 68 593 53 0 0 0 0 0 0 0 7 12 16
4300 4581 4332 4289 4130 3814 4017 4215 3946 2684 3727 3415 2977 2882 2053 1022 1924 1710 171 1502 319 564 0 1186 774 276 989 1359 1357 1637 430 73 385 12 1 0 0 0 0 0 0 0 0
4408 4203 4368 4539 4418 4009 4011 4278 4243 3966 3769 3675 3400 3277 2546 2247 2252 500 685 499 172 440 486 109 62 100 174 468 1223 1328 1646 1142 417 46 0 0 0 0 0 0 0 0 0
4425 4389 4353 4467 4461 4335 3944 3947 4083 4129 3947 3685 3677 3563 3229 2659 2321 2122 1618 1508 1236 627 492 215 58 3 80 858 425 401 899 747 657 257 59 11 2 0 0 0 0 0 0
4411 4463 4443 4410 4591 4420 3556 3926 3769 4018 4228 4022 3822 3849 3640 2823 1792 1824 1117 1399 1205 866 51 141 170 83 30 461 869 507 407 792 716 640 646 487 363 29 31 0 14 2 0
4550 4546 4510 4401 4378 4221 2771 1899 2999 3808 4224 4401 4206 4265 3999 2185 1263 843 665 690 1099 1741 1129 203 124 292 1700 727 352 287 461 350 656 515 504 495 773 834 421 181 5 35 0
4631 4608 4520 4512 4464 4480 2670 1085 1350 3603 4059 4294 4405 4295 3918 2750 2078 1893 329 220 25 573 726 1667 1348 1292 1424 1567 1508 754 1441 860 335 773 975 331 319 138 9 0 0 0 0
4594 4621 4616 4654 4573 4422 3195 744 555 2867 3701 4243 4197 4263 4300 3535 3063 2671 2278 1373 1122 893 1010 566 1350 1723 1766 1701 1093 1214 1390 1151 676 489 1021 211 103 6 0 0 0 0 0
4635 4556 4629 4671 4642 4540 2790 1140 48 2671 3184 3566 4132 4177 4078 4140 3160 1580 2721 2600 1819 1249 478 343 154 254 110 299 528 1001 287 252 94 184 820 114 10 0 0 0 0 0 0
4654 4486 4562 4620 4280 4652 3862 944 199 2905 3104 3261 3662 4175 2630 3486 2742 698 2470 2867 2565 1751 1275 469 10 10 20 26 0 1062 313 327 243 258 65 11 2 0 0 0 0 0 0

GFSMA_con_sbcape_030.txt.gz
CAPE
2279 2688 2803 891 680 533 376 894 1766 1824 1659 197 899 630 41 79 388 263 577 1896 1716 1583 1130 1462 1386 1412 1434 1485 827 364 990 1260 1057 1039 1260 1126 1056 1006 728 495 457 799 808
2379 2943 2788 1187 1829 850 400 762 384 274 447 537 1313 314 45 23 145 643 339 1202 1583 1382 1592 1359 1699 1389 1412 1415 1549 1298 583 426 957 1309 1137 1335 1161 922 872 510 492 841 886
3154 1966 2393 1945 2149 2561 2628 2277 1106 335 86 273 178 360 44 208 25 65 143 183 947 1396 1280 1837 1887 2149 1499 1390 1661 1502 1439 1412 1224 1440 1265 1231 1604 1569 1310 1267 1156 836 878
2755 3439 1787 1294 626 2179 1972 1829 1892 805 660 371 272 121 166 48 20 82 226 435 283 287 1302 1901 1601 1952 1393 1432 1382 1517 1537 1821 1855 1830 1867 1860 1729 1639 1750 1894 1630 1781 1642
2805 3152 2729 2271 2337 815 2021 1828 1919 1996 467 208 190 68 342 73 24 32 66 414 435 213 289 1746 1682 1647 1158 980 1208 1254 1431 1878 1929 1801 1809 1708 1598 1899 1850 1759 1847 2049 1954
2962 3497 2675 2610 2088 971 2398 2462 2436 1355 871 141 31 202 166 84 264 137 89 154 783 445 236 496 1112 924 1322 1025 918 812 877 1162 1537 1652 1635 1782 1844 1904 1844 1713 1697 1751 1786
3213 3793 2812 971 2360 1894 2456 2025 1918 1587 501 264 346 403 294 36 93 145 30 10 48 129 214 514 722 358 771 1316 990 926 792 809 854 1000 1096 1124 1117 1177 1145 1231 1094 1088 1380
3022 3200 2882 2237 2397 2357 2597 2673 2448 1720 526 105 960 157 197 181 44 46 64 0 39 20 27 803 634 778 688 777 908 1059 1150 1174 1197 1157 1018 991 1201 1358 1152 896 647 732 894
2789 3025 2840 3208 2281 2651 2306 2780 2633 2340 1493 321 1102 1233 207 147 365 117 23 13 3 12 0 82 371 793 862 0 30 29 233 241 251 160 73 41 171 213 101 28 0 0 15
2954 3162 3166 3207 3432 2800 2378 2413 3068 2575 2175 883 191 187 1036 971 552 136 253 97 104 2 93 44 27 22 136 0 3 0 0 0 0 0 0 0 0 0 0 0 0 0 0
2705 2778 2967 3338 3627 3036 2630 2485 2959 2931 2972 1602 537 431 702 783 790 597 526 386 147 145 108 89 38 22 115 0 0 0 0 0 0 0 0 0 0 0 0 0 0 0 0
2634 3095 3441 3086 3489 2751 3152 2923 3079 3487 2932 2802 1775 1617 581 423 574 580 390 300 169 301 146 47 10 80 108 30 0 0 0 0 0 0 0 0 0 0 0 0 0 0 0
2345 2538 3282 3382 2884 3123 3308 2846 3381 3566 3167 2775 2277 1563 1112 1348 1182 939 524 414 354 180 181 154 113 105 48 103 0 0 0 0 0 0 0 0 0 0 0 0 0 0 0
1644 2990 2584 3098 3156 3102 3103 3711 2984 2964 3077 2682 2977 1871 1224 1143 1053 742 692 787 291 129 510 250 152 236 121 144 0 0 0 0 0 0 0 0 0 0 0 9 54 146 183
2316 3280 2763 2789 2773 3130 3166 3308 2884 3245 3330 2872 2540 2628 1753 794 1065 936 810 611 573 460 320 631 171 70 421 3 29 0 18 0 0 0 0 0 0 0 0 0 22 31 31
2544 3824 3120 3062 3097 3164 3514 3367 3225 3197 3003 3149 2347 2154 1754 420 511 1043 759 648 514 304 235 152 358 33 21 241 32 193 146 6 0 0 0 0 0 0 0 0 0 1 8
4129 2858 4036 3351 3236 3180 3267 3530 3032 2804 3364 2875 2706 2576 1767 1115 910 849 649 765 611 507 125 231 780 699 522 143 1 65 57 20 0 0 0 0 0 0 0 0 0 0 0
2935 4060 3603 3444 3431 3123 3209 3183 3222 2415 3046 3125 2774 2675 2067 1353 1531 1582 1620 686 679 803 468 866 935 818 647 648 993 953 296 2 174 37 0 0 0 0 0 0 0 0 0
3931 3094 4036 3804 3283 3250 3126 3342 3204 3147 2522 3287 3071 2633 2307 1773 1606 858 1088 1399 892 1289 1574 554 722 1021 856 924 798 988 1186 805 582 86 0 0 0 0 0 0 0 0 0
3276 3674 3471 3601 3814 3351 3275 3157 3258 3312 3099 2857 3252 3055 2653 1978 1752 1622 1197 732 1369 638 740 1007 468 316 996 763 774 449 721 766 652 310 4 0 0 0 0 0 0 0 0
3481 3416 3551 3610 3509 3703 3438 3216 3161 3278 3385 3155 3005 3274 3007 2460 1858 1792 1122 1405 590 1512 904 468 477 592 480 790 582 473 567 418 637 468 133 13 5 2 0 0 0 0 0
3771 3860 3789 3656 3689 3613 3316 2745 2902 3197 3387 3332 3269 3116 3185 2547 1931 1387 1283 881 1133 660 701 413 391 349 449 646 818 435 389 376 158 738 318 324 388 291 0 13 11 3 0
4023 4004 3992 3968 3713 3717 3073 1954 1863 3103 3207 3283 3318 3353 3278 2946 2349 1768 789 840 628 716 655 576 401 512 933 1096 901 1181 924 790 433 554 232 141 207 253 8 0 0 0 0
4216 4117 4176 4186 4068 3918 3274 1224 976 2589 3091 3147 3229 3301 3280 3137 2908 2407 1663 992 871 582 378 664 832 663 1275 1599 1630 1348 955 894 694 470 356 82 203 217 8 0 0 0 0
4288 4317 4257 4301 4294 4144 3112 1515 192 2216 2681 2946 3250 3330 3345 3318 3111 1804 2065 1428 1153 959 646 427 549 888 625 297 1158 574 542 377 285 216 242 146 148 119 0 0 0 0 0
4442 4404 4393 4341 4226 4298 3968 1429 234 2754 2636 2640 2904 3228 2631 3261 3172 807 2120 2141 1738 1305 937 384 138 6 0 86 214 641 340 189 165 140 165 152 59 0 0 0 0 0 0

GFSMA_con_sbcape_033.txt.gz
CAPE
495 689 1211 673 558 469 0 0 734 125 605 179 64 18 245 140 102 243 824 1737 1945 1976 1769 1488 1603 1431 1247 737 795 1191 1203 1137 1218 1231 1250 1127 1014 1117 697 486 500 837 855
711 1102 876 380 362 199 6 166 256 0 59 106 137 34 37 124 65 126 633 1288 1874 1956 1791 1783 1427 1420 1375 1553 1258 493 431 1190 1293 1130 1164 1406 1210 1196 1018 623 489 843 974
1069 806 446 871 784 353 190 796 290 18 16 44 137 52 19 57 72 54 284 798 1166 1409 2104 1964 2178 1841 1579 1422 1551 1482 1294 884 796 1177 1372 1203 1528 1510 1397 1252 1254 1036 1008
1443 918 1206 785 406 1061 1396 893 450 592 228 269 39 59 33 9 56 62 89 147 361 420 1661 2011 1946 2209 1479 1342 1544 1618 1577 1910 1806 1746 1813 1742 1724 1592 1645 1671 1592 1749 1667
1438 1642 845 795 992 436 785 856 813 1072 221 95 45 35 29 23 19 49 39 61 101 330 816 1953 1682 1757 1365 1288 1281 1459 1550 1925 1827 1761 1773 1840 1779 1811 1967 1780 1602 1824 1859
1528 1680 1238 751 563 365 855 1116 436 27 0 0 16 18 9 21 7 13 185 98 81 127 413 896 1014 1171 1226 1141 1099 1082 1188 1452 1578 1784 2032 2023 1884 1961 1958 1765 1453 1579 1611
1663 1886 1619 828 1164 541 1120 752 345 363 0 0 5 3 0 0 18 17 43 51 92 35 106 283 246 343 602 1203 764 747 782 784 1181 1241 1301 1122 1115 1176 1156 1062 903 1010 1225
1885 1836 1250 859 1231 1128 1068 836 927 453 42 0 81 20 4 0 3 1 0 0 6 3 90 118 97 140 378 282 704 1437 1509 1198 1197 1138 1021 1088 1285 1285 1096 779 647 706 707
1890 1512 1504 1305 1416 1279 1294 1118 1199 739 50 0 13 37 1 0 8 10 3 0 0 0 84 294 247 109 128 119 374 314 762 781 712 482 270 197 269 227 124 23 0 0 0
1629 1636 1562 1206 1443 905 709 1091 1226 761 404 0 0 11 15 34 0 0 0 0 0 0 1 52 84 138 1 0 0 0 7 0 0 0 0 0 0 0 0 0 0 0 0
1725 2020 1736 1527 1488 1624 953 522 1120 1248 1240 310 0 0 0 0 0 3 0 2 0 0 0 0 0 0 0 0 0 0 0 0 0 0 0 0 0 0 0 0 0 0 0
1259 1667 1853 1755 1753 1494 1259 840 1295 1457 905 1327 254 76 0 0 0 0 0 1 0 0 0 0 0 0 0 0 0 0 0 0 0 0 0 0 0 0 0 0 0 0 0
1351 1574 2031 1652 2003 1483 1687 1343 1313 1948 1279 1160 1170 53 88 0 24 0 0 0 0 0 0 0 0 0 0 0 0 0 0 0 0 0 0 0 0 0 0 0 0 0 3
1402 1423 1807 1956 1627 1745 1815 1386 1602 1654 1840 1170 1601 517 33 79 44 0 0 0 0 0 0 0 0 0 0 0 0 0 0 0 0 0 0 0 0 0 0 0 4 53 76
765 1471 1612 2268 1800 1729 1663 2062 1791 1523 1983 1519 1096 1344 448 60 34 31 1 0 0 0 0 0 0 0 0 0 0 0 0 0 0 0 0 0 0 0 0 0 0 0 7
1100 1044 1711 1621 1958 2060 1903 1738 2169 2068 1759 1782 1360 1294 1120 466 67 51 40 0 0 0 0 0 0 0 0 0 3 0 0 0 0 0 0 0 0 0 0 0 0 0 0
1424 1300 1936 1664 1901 1858 2275 1931 1733 1999 2208 1901 1680 1410 1167 752 82 36 47 66 0 0 0 0 0 0 0 0 0 0 0 0 0 0 0 0 0 0 0 0 0 0 0
1477 2420 2359 2100 2180 2009 2012 2336 2121 2124 1783 2018 1964 1514 1283 957 372 156 533 6 22 10 0 0 207 189 0 0 0 0 0 0 0 0 0 0 0 0 0 0 0 0 0
2167 1542 2544 2463 2343 2267 2282 2170 2308 2358 1886 2021 2052 1886 1615 1088 707 426 432 507 53 5 93 0 230 102 61 113 64 30 14 2 0 67 10 0 0 0 0 0 0 0 0
1708 2780 1710 2409 2446 2422 2242 2356 2309 2307 2316 1791 2183 2177 1927 1406 1102 762 422 274 391 276 393 106 0 80 315 323 62 164 254 320 220 201 0 0 0 0 0 0 0 0 0
2165 2098 2621 2039 2607 2438 2474 2315 2406 2438 2395 2393 1883 2309 2278 1885 1384 1058 916 383 172 441 173 217 159 25 5 395 465 183 45 96 220 117 3 0 0 0 0 0 0 0 0
1892 2427 2369 2369 2601 2805 2799 2165 2396 2513 2508 2485 2505 2131 2476 1989 1525 900 838 705 391 62 520 216 126 217 84 2 228 237 213 164 187 12 46 4 0 0 0 0 0 0 0
2864 2405 2305 2697 2430 2728 2714 1607 1540 2588 2543 2584 2596 2605 2370 2553 2038 1873 584 617 443 315 27 333 204 69 50 56 124 174 158 71 6 0 5 6 2 1 4 14 0 0 0
3051 3137 2988 2656 3034 2876 2719 1611 760 2332 2660 2556 2724 2711 2657 2583 2520 2291 1972 1049 918 498 288 28 111 90 19 26 97 184 93 42 34 18 0 0 1 2 0 0 0 0 0
3200 3236 3324 3266 3186 3244 2762 1843 370 1763 2565 2710 2689 2674 2806 2770 2687 1716 2280 1957 1266 1124 414 140 85 53 122 675 568 344 161 54 11 26 0 4 10 2 0 0 0 0 0
3484 3496 3429 3561 3411 3441 3350 1699 339 2411 2591 2659 2712 2628 2380 2610 2826 1506 1909 2276 1902 1405 954 539 5 1 49 69 381 221 88 24 0 15 47 16 33 16 0 0 0 0 0

GFSMA_con_sbcape_036.txt.gz
CAPE
349 504 675 459 459 307 54 1 510 286 160 40 34 577 222 86 63 545 1053 1968 2341 2057 1568 1550 1218 728 686 1117 1226 1158 1194 1347 1458 1256 1178 1174 1051 1055 652 500 531 789 835
327 676 653 370 391 273 16 0 239 11 19 43 53 243 45 35 56 294 552 1200 1958 2077 1946 1446 1573 1460 1384 848 617 965 1315 1322 1093 1138 1268 1298 1179 1234 1136 698 495 750 985
572 546 490 188 151 124 41 154 140 16 44 55 59 14 42 41 36 113 549 587 1289 2043 2057 1961 1726 1625 1389 1632 1621 1034 555 698 905 1255 1396 1304 1490 1368 1205 1161 1192 1171 989
815 645 294 362 439 280 455 412 247 246 141 141 41 35 34 37 31 52 128 376 506 470 1899 2108 2069 2034 1592 1545 1678 1577 1581 1441 1441 1560 1739 1612 1628 1493 1517 1522 1574 1573 1457
1016 782 646 333 131 333 346 362 283 602 105 108 138 18 20 18 49 33 31 26 88 246 1048 1560 1691 1383 1431 1340 1438 1546 1654 1653 1697 1641 1621 1715 1719 1709 1631 1602 1494 1547 1523
1198 931 471 679 482 85 542 575 91 0 0 1 14 10 4 9 23 21 28 22 30 147 450 749 698 722 1230 1253 1169 1244 1405 1508 1536 1601 1709 1870 1851 1718 1676 1600 1335 1271 1249
1074 1059 946 670 237 215 644 117 34 6 0 0 0 0 0 0 2 9 42 20 2 42 156 332 301 455 567 1071 832 751 684 789 1006 1080 1228 1639 1302 1146 999 870 867 948 872
1079 1093 973 619 721 384 502 292 410 16 0 0 7 0 0 0 0 0 6 20 8 14 48 123 70 61 307 240 415 1100 1207 922 1040 1108 968 940 1019 1039 862 642 531 384 314
1275 1353 796 774 793 709 712 609 576 66 0 0 3 0 0 0 0 0 0 0 0 0 9 36 28 33 80 44 652 665 970 835 713 588 457 377 362 255 97 9 0 0 0
1281 1181 1054 1002 870 672 835 710 758 329 0 0 0 2 1 0 0 0 0 0 0 0 0 54 54 23 5 0 0 0 506 296 160 0 0 0 0 0 0 0 0 0 0
1258 1097 947 908 800 770 352 551 995 622 124 1 0 0 0 0 0 0 0 0 0 0 0 0 22 15 0 0 0 0 0 0 0 0 0 0 0 0 0 0 0 0 0
784 1185 1172 942 785 1093 749 257 420 937 539 221 0 0 0 0 0 0 0 0 0 0 0 0 0 4 0 0 0 0 0 0 0 0 0 0 0 0 0 0 0 0 0
553 986 1423 1198 1022 1043 981 646 470 1054 562 875 234 31 0 0 0 0 0 0 0 0 0 0 0 0 0 0 0 0 0 0 0 0 0 0 0 0 0 0 0 3 5
564 640 1331 1324 1263 1178 1030 762 724 914 1149 640 727 55 1 22 22 0 0 0 0 0 0 0 0 0 0 0 0 0 0 0 0 0 0 0 0 0 0 0 2 30 36
959 804 1022 1503 1249 1347 995 1124 849 951 1517 1072 565 828 88 1 4 17 0 0 0 0 0 0 0 0 0 0 0 0 0 0 0 0 0 0 0 0 0 0 0 0 0
721 1172 1045 1526 1441 1289 1162 1247 1258 1052 1215 1331 917 598 632 275 26 0 0 0 0 0 0 0 0 0 0 0 0 0 0 0 0 0 0 0 0 0 0 0 0 0 0
482 659 1189 1193 1652 1462 1270 1128 1335 1636 1198 1293 1429 972 646 479 252 6 0 0 0 0 0 0 0 0 0 0 0 0 0 0 0 0 0 0 0 0 0 0 0 0 0
929 505 1218 1288 1429 1677 1616 1420 1285 1502 1851 1426 1499 1348 1071 746 516 75 0 0 0 0 0 0 0 19 0 0 0 0 0 0 0 0 0 0 0 0 0 0 0 0 0
664 1212 1476 1441 1370 1545 1628 1826 1610 1488 1452 1749 1581 1521 1470 1029 976 540 32 29 4 0 0 0 0 7 0 0 0 0 0 0 0 0 0 0 0 0 0 0 0 0 0
354 956 1536 1896 1701 1730 1586 1653 1920 1881 1714 1612 1608 1648 1594 1400 1321 977 376 87 30 51 0 0 0 0 0 0 0 0 0 0 0 0 2 6 0 0 0 0 0 0 0
1655 780 1156 1431 2165 2053 1996 1926 1825 1843 2035 2019 1632 1834 1774 1664 1458 1276 957 512 60 49 14 0 0 0 2 49 49 2 0 0 12 3 1 0 0 0 0 0 0 0 0
1171 1667 1551 1904 1642 2238 2301 1802 1993 2067 1948 1914 1983 1730 1712 1771 1432 934 685 911 420 267 83 82 64 8 6 0 16 16 3 0 7 0 31 18 0 0 0 0 0 0 0
1849 1263 1378 1889 1956 2028 2129 1338 1263 2090 2127 2098 2057 2022 2001 1873 1699 1812 367 165 288 59 280 47 85 31 4 0 0 2 52 15 29 2 4 33 0 0 0 0 0 0 0
2578 2364 1775 1609 2125 2062 1983 1142 558 1847 2236 2206 2258 2225 2173 2201 2056 1922 2067 952 606 701 96 29 3 30 19 10 0 0 12 57 2 0 0 7 0 1 0 0 2 0 0
2566 2587 2665 2382 1954 2062 2077 1317 250 1415 2067 2463 2517 2348 2402 2396 2303 1520 1956 2183 1623 1120 888 81 65 9 1 0 0 0 4 6 25 27 0 2 0 0 0 0 0 0 0
2798 2710 2667 2778 2735 2591 2195 1165 252 2087 2242 2355 2510 2650 2076 2205 2567 1673 1417 2150 2272 2200 1560 1371 184 9 1 0 0 3 40 6 6 0 0 0 0 0 0 0 0 0 0

GFSMA_con_sbcape_039.txt.gz
CAPE
298 423 463 147 219 220 93 0 159 40 49 39 59 511 557 80 66 629 953 1889 2218 1795 1488 882 622 1070 1349 1297 1200 1234 1445 1390 1310 1040 999 1195 1014 1021 679 502 521 744 842
114 223 399 312 297 236 66 1 98 0 12 47 75 307 45 20 93 485 706 1286 2357 1986 1426 1524 1161 741 703 919 1152 1219 1232 1218 1159 1218 1313 1270 1152 1229 1036 975 537 612 873
182 610 393 272 142 88 2 90 205 51 5 47 63 41 36 35 44 145 384 608 1241 1769 1559 1396 1603 1442 1363 1082 590 467 658 1208 1223 1289 1350 1321 1393 1395 1171 1255 1296 1425 1384
229 270 296 218 175 100 176 209 157 164 67 56 29 24 36 31 37 54 298 351 591 913 1384 1581 1375 1596 1307 1346 1458 1489 1205 602 620 941 1422 1507 1335 1418 1365 1414 1282 1278 1394
668 398 285 308 283 238 383 288 196 368 75 83 76 7 16 35 26 24 43 113 99 138 781 1424 1554 1653 1277 1093 1321 1285 1478 1514 1499 1522 1496 1497 1540 1459 1404 1434 1256 1046 967
820 516 408 204 190 112 113 133 6 0 0 7 12 0 2 5 22 9 0 17 31 73 437 674 478 658 1070 1004 1127 1204 1257 1362 1501 1524 1500 1471 1417 1206 1189 1156 962 912 823
946 554 288 457 186 0 349 22 13 0 0 0 0 0 0 0 6 16 19 19 37 46 109 243 176 223 400 992 961 793 685 711 849 1001 1113 1218 896 773 606 500 626 660 710
774 768 712 604 376 116 378 171 44 0 0 0 0 0 0 0 0 0 8 24 20 16 19 98 55 74 70 186 164 721 795 760 830 929 798 754 804 796 594 423 270 78 28
744 1008 787 538 419 293 280 182 215 0 0 0 0 0 0 0 0 0 0 1 11 1 0 5 0 0 39 16 333 484 834 702 652 527 410 360 323 224 45 0 0 0 0
785 1153 729 559 519 638 478 339 296 0 0 0 0 0 0 0 0 0 0 0 0 0 0 0 9 4 19 0 109 126 600 368 425 119 3 0 0 0 0 0 0 0 0
766 1136 921 673 618 598 446 522 531 167 0 0 0 0 0 0 0 0 0 0 0 0 0 0 11 18 20 0 0 0 172 89 7 0 0 0 0 0 0 0 0 0 0
614 965 918 665 518 612 376 187 394 386 221 4 0 0 0 0 0 0 0 0 0 0 0 0 0 21 18 0 0 0 45 0 0 0 0 0 0 0 0 0 0 0 0
450 765 929 738 578 545 671 250 109 447 319 531 3 0 0 0 0 0 0 0 0 0 0 0 0 0 12 0 0 0 6 0 0 0 0 0 0 0 0 0 0 0 0
390 565 905 959 796 691 733 540 316 262 603 229 423 0 0 0 0 0 0 0 0 0 0 0 0 0 0 0 0 2 0 0 0 0 0 0 0 0 0 0 0 0 0
277 309 714 1067 1020 949 784 668 468 459 877 658 267 324 16 0 0 0 0 0 0 0 0 0 0 0 0 0 0 0 0 0 0 0 0 0 0 0 0 0 0 0 0
466 469 503 831 1038 1035 863 763 663 539 662 887 774 331 389 133 0 0 0 0 0 0 0 0 0 0 0 0 0 0 0 0 0 0 0 0 0 0 0 0 0 0 0
306 710 619 719 985 1021 950 853 923 816 704 804 1043 830 477 294 308 21 0 0 0 0 0 0 0 0 0 0 0 0 0 0 0 0 0 0 0 0 0 0 0 0 0
187 335 767 797 971 1113 1041 965 983 1332 1048 916 965 1101 1038 667 367 92 4 0 0 0 0 0 0 0 0 0 0 0 0 0 0 0 0 0 0 0 0 0 0 0 0
365 301 487 790 943 1193 1286 1159 1146 1047 1334 1416 1267 1173 1306 1080 923 602 157 17 0 0 0 0 0 0 0 0 0 0 0 0 0 0 0 0 0 0 0 0 0 0 0
245 512 658 861 975 1055 1333 1441 1413 1265 1120 1296 1576 1557 1506 1404 1297 1077 666 263 11 0 0 0 0 0 0 0 0 0 0 0 0 0 0 0 0 0 0 0 0 0 0
721 575 714 1042 1244 1214 1306 1351 1545 1579 1414 1325 1277 1408 1519 1574 1460 1337 1291 986 141 12 2 0 0 0 0 0 0 0 0 0 0 0 0 0 0 0 0 0 0 0 0
1441 1069 644 849 1216 1574 1679 1290 1415 1527 1643 1648 1610 1445 1439 1347 1258 872 781 1018 990 619 403 101 299 31 0 0 0 0 0 0 0 0 0 0 0 0 0 0 0 0 0
1010 1301 1402 1038 1003 1102 1361 1029 865 1737 1693 1652 1669 1670 1710 1681 1398 1616 623 197 118 147 614 1132 333 517 211 12 0 0 0 0 0 0 0 0 0 0 0 0 0 0 0
1304 1200 1088 1229 1411 1468 1515 513 386 1483 1944 1945 1864 1795 1743 1789 1740 1512 1665 1544 792 936 477 88 772 1294 645 354 2 0 0 0 0 0 0 0 0 0 2 0 0 0 0
2101 1949 1732 1332 1135 1339 1422 693 71 1212 1815 2018 2054 1990 2044 2051 1982 1512 1570 1842 1882 1573 1080 479 128 209 226 82 64 0 0 0 0 0 0 0 1 0 0 0 0 0 0
2319 2352 2450 2402 1920 1573 1537 454 5 1413 1712 1875 2112 2231 2008 2039 2235 1837 1386 1958 2079 2190 2163 1704 859 54 16 20 0 0 76 3 0 0 7 0 1 0 0 0 0 0 0

GFSMA_con_sbcape_042.txt.gz
CAPE
279 443 443 144 298 284 33 0 384 24 66 60 49 665 623 311 219 825 1260 1584 1314 1201 645 719 1435 1291 1287 1316 1430 1458 1305 1349 1202 806 862 1179 938 1018 704 576 469 665 911
137 244 395 407 273 203 118 11 171 14 36 68 406 421 282 133 306 704 942 1543 1563 1265 1314 919 583 618 933 986 985 1029 1139 1263 1241 1228 1284 1227 1117 1156 937 968 810 955 1027
83 273 249 360 237 260 55 294 260 78 60 70 102 87 70 71 218 527 662 868 1442 1421 1005 1319 1221 851 714 658 609 810 994 1126 1043 1108 1306 1197 1274 1246 1263 1358 1314 1106 1037
202 305 269 262 228 244 358 440 227 224 87 62 60 54 69 51 56 153 473 602 812 937 1341 1082 1184 1425 1348 1329 1193 725 518 377 422 555 952 1022 1226 1138 1224 1180 1148 942 874
394 322 214 144 378 443 586 619 219 390 168 113 60 21 51 57 46 58 283 378 351 396 1035 1138 1232 1154 1230 1001 1079 1109 1138 1318 1383 1413 1377 1351 1303 1110 1068 946 893 833 866
693 407 124 196 274 257 387 352 38 0 3 31 18 2 6 16 48 35 46 68 62 194 522 1004 752 809 1028 825 1000 872 1153 1270 1317 1165 1273 1311 1152 828 895 878 645 625 625
968 533 351 232 171 127 446 152 25 0 0 0 0 0 0 0 23 23 24 21 57 101 299 544 411 427 469 838 996 870 674 659 759 946 1057 1224 927 789 489 536 466 385 407
896 693 309 456 66 210 484 198 27 8 0 0 0 0 0 0 0 0 7 21 26 27 136 272 260 285 271 364 374 437 598 621 680 844 697 613 662 597 421 253 105 0 0
658 929 703 562 533 174 420 233 129 0 0 0 0 0 0 0 0 0 0 3 30 6 10 45 138 125 122 249 205 500 680 513 563 446 346 329 315 214 50 0 0 0 0
574 917 877 580 495 518 505 438 244 22 0 0 0 0 0 0 0 0 0 0 0 0 3 0 68 115 116 155 65 170 252 282 403 201 38 1 0 0 0 0 0 0 0
408 933 913 655 580 713 447 630 535 272 0 0 0 0 0 0 0 0 0 0 0 0 0 0 60 150 146 126 89 0 13 102 45 20 0 0 0 0 0 0 0 0 0
385 729 1009 740 672 644 637 627 602 410 274 5 0 0 0 8 0 0 0 0 0 0 0 0 2 127 253 178 79 0 0 8 0 0 0 0 0 0 0 0 0 0 0
309 550 798 727 591 572 723 395 382 691 474 523 75 0 0 0 0 0 0 0 0 0 0 0 0 17 171 236 72 42 0 0 0 0 0 0 0 0 5 2 0 0 0
314 519 699 822 715 668 722 655 333 339 663 518 710 102 0 0 0 0 0 0 8 0 0 122 0 0 40 252 144 12 13 0 0 0 0 0 0 0 0 0 2 2 7
223 441 628 927 906 827 844 820 727 719 758 765 544 577 176 28 0 0 0 0 28 27 18 37 56 0 0 0 164 199 92 0 0 0 0 0 0 0 0 0 0 0 0
255 384 507 795 989 1034 995 920 864 672 735 980 910 637 558 378 70 0 2 0 0 0 12 0 21 0 0 0 0 142 41 0 0 0 0 0 0 0 0 0 0 0 0
155 332 398 576 899 1069 1142 1067 1121 1018 846 962 1025 1095 1070 517 568 235 4 0 0 0 0 5 0 0 9 0 13 87 1 16 0 0 0 0 0 0 0 0 0 0 0
145 417 513 565 713 947 1047 1151 1218 1353 1181 1142 1121 1139 1321 1080 820 592 214 92 1 0 0 36 0 0 0 2 3 2 12 0 0 0 0 0 0 0 0 0 0 0 0
157 265 500 706 776 978 1098 1133 1203 1325 1475 1471 1402 1305 1378 1317 1446 1175 789 460 67 1 0 0 6 0 0 0 0 0 0 2 0 0 0 0 0 0 0 0 0 0 0
484 413 498 613 874 1025 1262 1343 1329 1344 1386 1578 1670 1569 1530 1531 1554 1720 1199 1024 827 430 43 12 8 0 0 0 0 19 9 0 0 0 0 0 0 0 0 0 0 0 0
392 453 578 656 845 1028 1141 1461 1595 1560 1520 1483 1539 1685 1771 1655 1401 1496 1705 1632 1255 973 1007 428 452 79 13 10 8 91 0 47 70 1 0 0 0 0 0 0 0 0 0
853 657 605 739 843 966 891 803 1295 1726 1757 1690 1627 1566 1625 1262 1130 854 659 964 1454 1350 1330 1200 1017 1075 1042 530 114 41 10 19 123 45 0 1 0 0 2 7 4 0 0
1252 1125 856 898 979 1177 1017 444 421 1574 1740 1827 1847 1823 1775 1689 1319 1791 1039 184 161 141 686 1820 1610 1354 1268 1327 908 336 63 67 204 204 0 0 34 0 5 0 0 0 0
951 1283 1397 1186 983 1025 857 226 104 1201 1673 1792 1844 1924 1964 2061 1983 1820 1979 2064 1910 1482 664 399 1090 1698 1986 1929 1469 946 607 337 70 95 8 0 38 0 0 0 0 0 0
1195 1066 1137 1326 1471 1420 693 197 0 1085 1694 1846 1969 2061 2056 2069 1870 1341 1848 2094 2190 2242 1680 824 440 555 303 140 288 1096 601 0 3 67 151 0 9 0 0 0 0 0 0
1856 1754 1574 1484 1205 1361 1139 238 0 1148 1396 1615 1992 2175 1745 1902 2016 1579 1190 2137 2314 2424 2362 2254 1652 242 49 113 4 0 308 582 444 176 422 0 1 1 2 0 0 0 0

GFSMA_con_sbcape_045.txt.gz
CAPE
1492 1353 1212 927 1140 1267 878 1068 1084 710 869 555 904 1164 1165 1029 483 484 1120 1126 1187 825 637 1448 1554 1369 1173 1310 1484 1394 1275 1256 944 671 851 975 828 995 801 916 619 677 819
1462 1625 1912 1221 1446 1473 1240 1241 752 539 752 1040 1228 1127 1198 967 547 498 575 1238 1178 999 967 483 640 829 1093 943 853 977 1157 1277 1148 1085 1137 1031 1087 1094 1043 911 1100 1177 1035
1080 1442 1573 2036 1451 1356 1034 1491 1268 839 546 803 1190 1116 1072 906 564 425 452 639 1058 1009 884 987 828 575 539 574 676 892 988 1036 886 877 1040 1198 1006 858 1031 1164 1135 920 874
1078 1762 1618 1462 1424 1318 1239 1344 1187 630 475 397 787 833 902 680 479 265 343 414 551 559 1098 907 911 1195 1142 1087 945 611 419 429 384 446 606 1069 900 1008 957 800 800 818 805
1295 1678 1525 1576 1675 1638 1639 1400 1478 1259 805 303 240 491 690 591 307 74 443 504 520 547 753 1122 1054 917 968 820 1066 1078 1105 1244 1294 1265 1181 1175 1119 952 712 778 710 635 691
1383 1803 1562 1619 1552 1896 1447 1412 416 84 660 646 65 53 157 308 432 145 287 314 326 426 614 966 768 674 760 885 892 883 854 1124 965 1072 1045 1123 993 791 626 692 467 542 560
1638 2002 1651 1546 1596 1593 1547 1423 490 261 93 107 92 72 63 47 338 274 260 296 429 368 497 692 626 494 462 659 916 850 661 654 701 811 886 1011 800 685 438 429 420 305 385
1901 2127 1891 1652 1625 1472 1785 1431 1109 75 64 55 55 63 36 38 35 117 283 384 505 486 444 522 679 658 603 287 326 447 562 652 685 791 630 524 579 539 383 204 51 0 0
1864 2255 1946 1683 1674 2060 2382 1712 1157 331 46 137 57 32 21 23 47 27 139 327 682 641 586 554 552 617 665 487 278 183 680 401 485 400 315 294 302 239 69 0 0 0 0
1638 2017 2288 1956 2148 1678 2021 1725 1475 734 291 163 156 73 59 74 16 18 11 161 365 630 650 586 392 596 753 552 303 186 137 351 315 267 139 47 13 1 0 0 0 0 0
1629 1699 2035 1986 2236 2148 2030 1993 1923 1648 331 79 111 451 585 73 19 6 18 34 31 109 275 688 458 558 770 737 558 296 22 252 163 103 0 0 0 0 0 0 0 0 0
1431 1625 1819 2113 2138 2024 2143 2087 2170 1972 1592 691 74 297 365 331 244 137 66 308 234 216 307 479 542 513 664 837 803 303 15 48 55 0 0 0 0 0 0 0 0 0 0
1191 1594 1928 2111 2054 2300 2231 2093 2234 1952 1961 1566 1476 188 34 80 151 293 262 293 284 413 356 441 501 520 539 860 872 674 453 9 5 0 0 0 0 60 65 10 0 0 0
768 1422 1933 1927 2112 2230 2225 2196 1979 1986 1975 1947 1884 1792 1178 634 76 136 199 216 296 651 601 936 671 638 652 785 932 741 596 14 0 0 0 0 0 0 2 20 70 105 67
600 1326 1760 1886 1980 2083 2212 2292 2054 2301 2105 2270 2161 2213 1917 1420 914 514 257 276 463 559 442 589 515 813 700 746 844 996 988 564 1 0 0 0 0 0 0 0 0 0 0
991 990 1783 1893 2061 2097 2225 2394 2086 2313 2550 2347 2063 2182 2167 1526 1475 1124 842 624 497 516 584 499 575 689 725 452 559 649 848 503 147 0 0 0 0 0 0 0 0 0 0
1319 1550 1862 1947 2063 2133 2249 2476 2396 2245 2552 2633 2466 2300 2389 2413 1975 1699 1371 1092 898 643 600 546 663 557 909 1102 819 631 647 738 525 0 0 0 0 0 0 0 0 0 0
1389 1620 1702 1908 2031 2060 2141 2333 2266 1998 2454 2522 2597 2608 2458 2148 2449 2451 2150 2041 1507 1351 886 1646 1193 747 977 1010 1202 1170 826 400 438 152 0 0 0 0 0 0 0 0 0
1718 1325 1560 1775 1998 2002 2122 2237 2312 2378 2411 2398 2485 2695 2727 2619 2614 2278 2427 2238 2118 2023 1655 1281 1297 987 743 489 794 996 799 880 554 154 0 0 0 0 0 0 0 0 0
1816 1769 1764 1902 1849 1979 2062 2155 2268 2423 2495 2472 2561 2612 2709 2798 2855 2919 2779 2772 2652 2489 2451 1985 1695 1581 1574 1700 1122 854 848 802 661 375 136 5 2 0 0 0 0 0 0
1976 2018 1905 1743 1827 1801 1703 2128 2343 2521 2626 2672 2677 2737 2771 2584 2221 2402 2687 3236 2859 2604 2288 2041 1861 1730 1626 1567 1643 1333 1270 1246 1391 1058 716 600 487 248 49 0 0 0 0
1953 2180 1835 2059 1924 1656 1051 1025 1738 2301 2742 2869 2824 2806 2815 2073 1774 1054 748 1047 1925 3437 2902 2574 2433 2534 3593 2846 2462 2260 2057 1903 2029 1944 1570 847 529 535 421 269 0 0 0
2061 2213 1922 1983 2199 2480 1263 436 368 1927 2421 2699 2897 2954 2895 2495 2201 2657 1808 284 199 226 710 2867 3445 3551 3826 3350 3543 3310 3439 3065 2588 2324 1998 1821 1349 1393 682 524 0 0 0
2608 2519 2198 2295 2304 2526 1517 402 2 1411 2602 3004 3092 2898 3199 3240 2998 2579 2726 2738 2833 2951 2281 1571 2083 2685 3381 3487 4017 3513 3177 2481 1864 1858 2114 1325 1406 1591 1566 1099 170 0 0
2151 2419 2321 2486 2460 2532 1196 556 17 1615 2093 2889 2997 2970 3002 3043 2510 2206 2591 2726 2966 3090 2486 2109 1746 1473 1126 687 368 1055 1293 1652 1501 1606 2359 1340 1342 1632 1636 1233 907 3 0
2136 2003 2115 2396 2239 2773 1948 50 0 1601 2071 2022 2899 3132 2071 2018 2309 1805 2221 2600 3074 3148 3286 3570 3591 1779 581 800 15 8 744 966 1040 1438 2161 2153 1287 603 593 1190 931 569 371

GFSMA_con_sbcape_048.txt.gz
CAPE
1219 1108 1201 1043 1030 971 813 843 758 854 1206 988 1032 946 721 345 167 464 1201 1165 1147 645 1245 1604 1590 1446 1168 1348 1492 1277 1295 1093 737 665 860 789 761 871 821 899 876 1104 961
1794 1061 954 1182 1506 1145 974 794 684 375 164 492 1134 858 705 558 484 289 629 1103 931 1040 649 528 899 1017 1134 981 885 1084 1243 1229 1107 946 951 814 1002 1045 958 1019 1028 959 791
1905 1114 1118 1079 1401 1313 1365 1057 663 355 116 148 768 826 615 714 542 527 478 591 967 918 952 1083 673 547 558 597 662 846 919 976 846 736 722 876 934 900 894 972 978 812 805
1718 1696 1067 1155 1385 1035 790 341 120 446 400 82 293 372 367 446 522 509 486 502 431 890 1000 821 914 1022 972 1080 1012 752 539 493 415 447 599 1079 1130 971 753 685 607 712 683
1829 1727 1300 1942 1474 1064 1088 454 234 304 149 74 73 88 91 212 212 214 530 341 336 394 611 982 882 785 852 666 802 1097 1111 1147 1136 1081 1093 1036 964 882 676 686 640 512 562
1854 2113 1553 1382 1242 753 967 959 529 314 202 87 44 40 73 68 182 152 189 144 90 201 266 769 1022 785 755 735 1020 909 815 925 1006 1027 1004 1023 744 694 581 621 361 461 472
1971 2410 1870 1118 1258 795 862 1220 585 952 176 133 74 29 21 41 357 229 145 76 204 142 244 286 437 524 793 801 867 780 575 540 642 706 790 763 748 548 396 343 301 225 187
2198 2085 1594 1157 1449 1425 819 867 1161 220 111 101 86 51 44 56 68 139 177 158 222 176 213 365 181 370 176 21 176 423 499 503 499 651 546 421 416 400 317 127 18 0 0
2167 2243 1626 1430 1050 1192 976 1255 1352 681 113 222 410 500 40 318 64 90 299 185 346 271 274 397 363 258 385 363 332 278 389 325 306 310 311 252 274 244 105 0 0 0 0
2062 2227 2307 1777 1503 1895 1309 1268 1243 404 728 137 72 41 315 505 110 317 86 150 288 346 421 438 349 441 496 453 438 105 66 344 217 196 170 85 71 36 0 0 0 0 0
2136 1928 2287 1667 1683 1369 1729 1796 1868 1550 270 224 50 120 310 257 280 216 152 293 242 175 227 550 390 406 582 545 477 595 262 259 277 122 25 0 0 0 0 0 0 0 0
1839 2159 2227 2398 1705 1464 2030 1811 1748 2065 1383 666 202 352 326 422 473 379 271 514 413 414 387 434 529 513 521 687 818 790 327 63 149 112 94 17 1 0 0 0 0 0 0
819 1605 2403 2667 2297 2259 2170 2048 2069 2180 2104 1509 1684 167 59 165 321 386 471 376 481 510 586 554 618 726 618 661 694 843 711 121 48 15 0 0 7 60 45 2 0 0 0
546 877 2160 2208 2414 2371 2425 2527 2549 2147 2071 2077 2051 1830 682 588 558 228 274 462 421 679 669 1200 659 707 868 938 849 1096 746 215 17 0 0 0 0 0 16 75 116 139 135
642 866 1173 1930 1920 2205 2440 2495 2037 2485 2298 2400 2424 2416 2109 1006 1121 818 634 533 544 664 557 1246 402 936 754 733 904 1095 1193 662 74 0 0 0 0 0 0 0 0 0 10
1471 948 1358 1414 1604 2092 2312 2612 2125 2365 2612 2476 1934 2115 2525 1224 1281 1335 1170 912 800 811 685 497 672 735 1070 1091 748 1049 1080 797 213 3 0 0 0 0 0 0 0 0 0
1660 1930 1414 1365 1792 2232 2401 2644 2476 2122 2714 2755 2605 2343 2578 2674 1996 1423 1332 1232 1200 1055 933 612 491 693 1503 1714 1532 1449 1214 1196 852 131 5 0 0 0 0 0 0 0 0
1939 2036 1862 1740 1707 1867 2348 2690 2608 2041 2510 2636 2691 2695 2678 2323 2769 2751 2047 2328 1991 1964 1148 2492 1981 1095 2070 2081 1699 1671 1490 976 790 334 1 0 0 0 0 0 0 0 0
2151 1929 1965 2068 2007 1796 2288 2594 2655 2556 2449 2590 2737 2765 2842 2967 3074 2592 2431 2124 2082 2377 2613 2321 2176 1597 1460 1613 2029 2682 2192 2210 1347 744 162 0 0 0 0 0 0 0 0
2265 2220 2153 2122 2178 1877 1826 2270 2471 2643 2527 2552 2817 2846 2944 3174 3408 3523 3478 3381 3228 3097 2942 2402 1955 1545 1268 1815 1677 1709 1801 1798 1758 1632 1215 687 238 13 0 0 0 0 0
2456 2427 2413 2252 2235 1948 1534 2124 2096 2195 2558 2696 2774 3030 3108 2950 2756 2991 3297 4363 4345 3412 2539 2047 1878 1868 1894 1993 2645 2259 2474 2493 2824 2614 2470 2386 2205 1844 1266 0 0 0 0
2840 2617 2481 2417 2348 1931 991 835 1200 1818 2223 2658 2889 3018 3155 2635 2467 2123 1787 1642 1818 3646 4571 3164 2557 2531 4485 3655 2892 2723 2528 2547 3115 3310 3916 3258 3202 3146 2780 2313 1480 0 0
3005 2869 2606 2773 3171 3090 1462 514 559 1681 1767 2441 3083 2842 2604 2021 2463 2908 1462 1049 846 628 622 2504 3304 3594 4254 4132 4667 4500 4353 4176 4107 3767 3892 3335 3174 3306 2792 2463 1533 424 0
3453 3294 2894 3398 3600 3312 1968 914 29 1936 2324 2535 2769 2890 3409 3320 2891 2496 2865 2834 2926 3107 2764 2186 2675 2886 2862 3305 4272 4577 4500 3964 3568 3315 3297 2949 2910 3174 3030 2978 2020 1115 142
3312 3209 2980 3532 3733 3773 1665 1135 137 1993 2185 3004 2849 3112 3563 3633 2840 2313 2801 3047 3087 2996 1952 1726 1900 2093 2091 1810 1544 2530 2325 2845 2822 3267 3602 3225 3271 3448 3218 2848 2358 1358 348
3204 2877 2995 3378 2875 3425 2567 326 331 2202 2474 2150 3332 3928 2248 2155 2526 1998 2831 2780 3063 2803 3066 3651 4551 1625 651 2141 752 1223 2661 2371 2689 2505 3125 2741 2866 2450 1914 1974 1220 816 767

GFSMA_con_sbcape_051.txt.gz
CAPE
1531 1631 1024 1145 1176 1314 800 935 420 1112 175 294 1060 913 274 228 930 944 970 1267 844 1226 1678 1584 1646 1218 1102 1440 1297 1134 1144 847 630 746 865 836 802 868 875 765 840 931 754
2448 1266 1111 1691 1993 210 808 1079 1295 457 555 162 338 441 622 243 419 968 991 1082 1361 871 533 899 836 1027 1002 897 837 1095 1244 1071 935 680 678 774 776 672 702 814 835 840 720
1609 1694 1885 888 1684 1362 929 562 225 767 132 683 207 704 146 929 321 457 1026 755 988 1259 1266 807 636 512 570 552 584 666 698 737 641 492 387 364 791 843 751 803 613 657 699
1520 1782 1270 715 1324 1576 1445 303 238 402 248 379 420 331 481 384 286 379 485 1034 1372 1021 939 1204 1166 1025 869 993 964 799 625 494 512 499 578 815 1053 965 823 564 634 629 596
1678 1595 1548 1406 1414 1572 1144 936 143 51 614 180 72 233 496 133 648 149 254 277 94 874 1245 1496 1132 895 835 728 768 932 1076 1058 1108 961 875 838 845 804 737 514 569 430 479
1685 1843 1596 1301 1624 363 941 1211 820 405 402 97 31 60 134 141 67 245 120 101 40 164 878 1329 927 853 1214 665 935 902 802 824 955 1003 1075 1086 812 634 553 507 284 332 358
1618 1918 1305 1453 1496 1218 2190 730 462 443 73 89 28 19 28 28 125 42 57 82 72 105 55 255 778 1217 633 1259 809 795 647 524 579 586 750 612 792 520 467 312 270 173 92
1878 1237 1869 2296 1122 1500 1339 969 1119 742 47 488 1335 50 208 481 127 179 54 76 168 165 299 345 140 194 544 647 1226 478 287 294 201 291 475 385 344 325 310 213 63 0 0
1961 1827 1511 2144 1447 2175 1099 1308 1189 1964 457 27 471 1272 839 331 365 84 242 213 372 343 286 424 320 301 296 512 322 370 281 150 54 113 263 244 258 273 181 42 0 0 0
1969 1932 1784 1814 1549 1343 2428 1591 1448 1806 1390 318 16 108 917 598 1250 632 107 169 250 318 423 450 488 497 556 523 553 589 623 221 91 55 84 84 98 125 57 0 0 0 0
1981 1904 1798 1925 2122 1598 1723 1773 1837 1833 395 2106 776 37 309 210 1196 589 912 346 371 194 303 639 433 412 783 568 543 851 400 412 425 214 117 5 0 0 0 0 0 0 0
1692 2217 2057 2160 2057 1819 2262 1973 1852 1758 2307 1160 942 720 881 736 801 363 407 839 432 482 391 424 568 529 553 778 914 645 555 169 212 277 342 274 81 0 0 0 0 0 0
701 2912 3106 2825 2276 2236 2107 2213 2420 2068 1858 1602 1654 525 185 363 344 478 406 419 435 493 721 685 679 774 685 750 769 1098 857 227 71 65 62 68 109 122 83 41 15 0 0
506 3533 2537 2185 2421 2516 2176 2778 2188 1983 2350 1860 1899 2681 1125 385 514 468 396 601 678 834 1045 831 736 839 899 959 1066 955 843 197 33 0 0 0 0 1 32 92 106 92 79
634 1654 2309 2203 2234 2041 2811 3266 1823 2405 2750 2486 2675 2455 1965 1014 854 731 539 610 658 899 889 1892 470 1024 667 576 909 1229 1713 833 98 1 0 0 0 0 0 0 0 0 34
2502 1366 1749 1787 2049 2503 2703 3776 2631 3186 3130 2309 1659 3757 3445 1757 1346 1202 1091 899 701 731 801 674 799 842 922 932 921 1095 1103 708 201 45 0 0 0 0 0 0 0 0 0
3157 2950 2433 2315 2322 2293 2936 3858 3620 2704 2769 3373 3074 2713 3094 3824 1961 1152 1176 1114 1063 1042 974 882 725 1361 2640 2980 2525 2321 1593 2213 1285 125 3 0 0 0 0 0 0 0 0
2907 3098 3081 2904 2621 2453 3352 3583 2795 2274 2751 2935 2947 3470 2614 2273 3862 3997 2491 3843 2216 2627 1399 2826 2038 1857 3103 3060 3237 3524 1858 1596 1614 976 1 0 0 0 0 0 0 0 0
3601 2322 3304 3539 3035 2723 3310 3596 3690 3175 2905 2934 3041 3461 3304 3565 4177 3011 3688 2414 1898 2674 2783 2511 2584 2336 2286 2055 2565 3579 3604 3139 2406 1633 996 120 0 0 0 0 0 0 0
3717 3574 3761 3664 3241 2987 2868 2817 3280 3489 3450 2942 3319 3395 3527 3775 4255 4634 3870 4611 3837 3434 2768 2412 2352 2537 2348 2702 2362 2417 2748 2662 3025 2436 2219 2048 938 0 0 0 0 0 0
3629 3930 3955 3740 3527 2637 1963 2839 3314 3494 3740 3385 3403 3418 3425 3333 2639 3528 3293 4160 4315 3825 2725 2554 2337 2148 2037 2230 3070 2902 2921 3304 3324 2982 2876 3541 3582 3533 1896 0 0 0 0
3838 3987 3941 3918 3638 2164 1290 921 1977 2906 3415 3728 3867 3965 3932 2664 2274 2239 2287 2324 2403 3664 4845 3257 2616 2571 3791 3442 3129 2874 2979 2769 3318 3486 4550 4244 3735 3566 3641 3338 2900 109 0
4080 4223 4114 4035 3977 3793 1517 509 545 1971 2823 3275 3679 4016 3471 2039 2768 3796 2070 1943 1623 1064 864 2992 3520 3617 3720 4134 4461 4427 3601 4171 4581 4037 4142 3694 3681 3465 3569 2981 2744 2397 467
4008 4174 4275 4288 4216 4080 2344 833 27 2303 2444 2890 3581 3813 4108 3833 3813 3427 3877 3741 3663 3818 3257 2247 2914 3371 3939 4248 4491 4156 4683 4643 4239 3630 4278 3580 3488 3869 3753 3552 2529 1681 1120
4138 4173 4311 4440 4423 4283 2119 1321 95 2308 2358 3164 3359 3394 3507 3916 3559 2748 3352 3509 3755 3841 2075 1660 1553 1879 2222 1809 1108 2252 3173 3373 3413 3558 3856 3806 3701 3706 3095 2090 1800 879 679
4250 3707 4116 4362 4032 4562 3343 507 299 2290 2709 2433 3445 3840 2753 2554 2923 2272 3368 3923 3998 4105 3700 3557 3921 2752 1419 1999 1048 1114 2801 3001 3296 2926 3816 3170 3275 2879 1963 1999 1551 1119 695

GFSMA_con_sbcape_054.txt.gz
CAPE
1789 2278 411 323 1516 463 846 496 1649 1110 1133 900 864 495 435 884 981 767 865 2053 2189 2004 1532 1573 1178 968 1063 1291 1075 1059 891 579 705 832 830 672 747 777 749 853 811 873 732
2261 2606 2590 758 894 406 970 47 1547 1450 319 807 614 310 345 1220 1278 906 1036 1258 1512 1792 1860 1406 964 878 1204 1012 898 1181 1138 876 719 474 457 688 787 731 759 774 751 694 736
2707 2414 2519 417 229 1351 2376 2089 1593 75 1198 583 481 419 1235 1098 1118 1203 742 993 1399 1447 1329 1172 793 673 534 414 470 518 540 537 455 342 314 343 652 825 793 583 601 659 602
2214 2052 1966 1999 1702 1695 324 20 66 997 326 917 1103 363 277 788 835 1106 1137 991 1033 997 1693 1618 1320 939 707 795 836 726 592 482 546 596 682 819 978 880 765 571 573 494 483
1722 1174 836 2335 309 134 832 1326 1142 724 1553 420 49 327 965 359 135 250 906 1243 1543 822 949 1839 1873 1662 1016 921 911 887 1047 1034 1108 1094 843 788 656 754 707 510 462 350 405
1674 1261 1337 2033 2356 243 194 1200 662 121 1078 333 12 538 502 613 572 792 447 333 732 1418 953 1031 1290 931 1431 1129 948 820 790 744 911 1056 1207 1274 1186 646 536 446 274 233 211
2198 554 1251 1968 1804 1654 568 2552 1443 1357 1080 120 541 200 292 388 259 817 558 227 323 1025 1153 1619 1213 1444 859 1539 1236 1032 641 561 478 436 546 481 644 521 453 272 229 121 0
2876 2533 2086 2175 606 1785 2571 2372 1735 2171 696 1507 1102 1510 330 772 294 96 863 420 380 582 626 671 1291 1513 1177 573 863 1292 601 357 195 176 251 303 262 266 294 246 114 0 0
2781 2357 2431 2643 3004 2294 2353 2444 2391 1760 1535 551 670 1654 257 348 476 688 486 742 615 577 918 684 848 756 617 951 1507 924 594 384 198 65 164 216 228 289 273 167 52 0 0
2521 3131 2825 2692 1881 1764 1682 2874 2456 1874 569 1707 654 1330 1208 1116 530 800 1048 978 622 525 704 1192 791 971 1026 789 1238 753 718 456 310 141 124 143 166 198 211 148 14 0 0
3457 2917 3136 3310 2922 2539 2901 2676 2675 2496 2738 1871 775 1091 1164 1310 1989 1254 676 1049 923 1016 1149 958 1000 979 1149 964 1000 583 640 342 298 368 391 373 227 30 21 0 0 0 0
2818 3224 2738 3514 3619 2674 2622 2680 2886 3043 2766 2517 1806 2175 120 1287 1601 1383 1405 1645 1349 1025 1060 1119 950 841 1341 1136 1003 1120 697 349 237 233 320 467 409 182 0 0 0 0 0
1749 2832 3118 3350 2883 3209 3041 2999 2989 3316 3095 2840 2376 2323 789 833 362 1487 1160 1644 1161 1377 1387 1280 1462 1362 1092 1315 1325 805 767 240 98 37 44 139 259 287 211 102 40 0 0
1830 2625 3166 2742 3324 3277 3199 3339 2713 2754 2954 3067 3072 3075 2661 2244 1280 1480 1366 1587 1402 1824 2301 1538 1552 1660 1606 1469 1768 1221 805 169 10 0 0 0 0 4 9 55 64 55 33
1772 2696 2876 3369 3243 3213 2918 3410 2710 2901 3155 3278 3224 3494 3210 2257 2110 1580 1841 1484 1882 1418 1746 1972 1524 1516 1266 1209 1828 1008 1163 562 59 0 0 0 0 0 0 0 0 0 0
2596 2857 3060 2878 3165 3395 3274 3465 2930 2992 3475 3007 2767 3181 3314 2385 2695 2436 2230 2358 1909 1624 1577 1597 2072 2095 1795 1208 1797 1723 1677 1119 353 70 1 0 0 0 0 0 0 0 0
3855 3283 3613 3248 2900 2952 3459 3681 3107 2973 3143 3321 3534 3680 3518 3346 3147 3015 2695 2170 2130 2489 2043 1838 2408 2035 3101 3138 2018 2130 2394 2002 1690 594 42 0 0 0 0 0 0 0 0
2782 4287 3302 3819 3032 3009 3089 3202 3196 2062 2772 3186 3287 3293 3562 3174 3727 3468 3176 3351 3564 3935 3157 2737 2646 2240 2197 2416 3055 3409 2735 1747 1643 1691 736 0 0 0 0 0 0 0 0
3048 2535 3637 3050 3246 2682 2857 3185 3198 2892 2872 3219 3109 3417 3319 3643 3812 3620 3710 2901 2557 2946 2849 2804 2679 3224 3131 2913 2532 3605 3365 2450 2042 2016 1757 645 37 0 0 0 0 0 0
2522 2796 2762 3212 3106 2704 2534 2972 3272 3160 3005 2811 3377 3002 3438 3533 3580 3933 3563 3637 3691 3591 3153 3120 2615 2481 2615 2630 3343 3045 3114 3240 2691 2633 2358 1644 1526 327 0 0 0 0 0
2545 2854 2844 3113 3108 2845 2330 2499 2735 3191 3169 3102 3035 3253 3267 3409 3062 3517 3563 3781 3702 3725 3423 3259 3015 2918 2483 3094 2755 2701 2889 3071 2512 2432 2051 4071 3688 3515 2733 135 0 0 0
2561 2852 3060 3067 3275 2767 2065 1410 2084 2401 3261 3140 3100 3110 3545 2499 2119 2115 1883 2238 2429 3453 3340 3733 3555 3077 2860 2958 2943 2475 2601 2624 2582 3172 3987 3486 3688 3509 3521 3141 2573 444 188
2526 2847 3080 3255 3273 3198 1901 836 774 2043 2465 3005 3401 3275 3293 2712 2478 3179 1936 1234 1456 1478 1304 2362 2583 2558 2543 2652 3025 3304 3219 3254 3471 3894 3466 3398 3558 3440 3414 3390 3069 1871 1105
2550 2877 3142 3273 3424 3349 2566 712 59 1335 2131 2715 2895 2872 3191 3133 3092 3461 3412 3329 2655 2695 2253 1242 1554 2297 2824 3215 3561 3506 3473 3453 3291 3416 3551 3150 3240 3430 3577 2696 2484 1719 640
2848 2888 3135 3417 3450 3497 2670 1701 3 979 1639 1947 2073 2275 3091 3549 2941 2449 2190 2513 2685 2971 2902 2666 2965 3090 2690 2254 1868 1369 1848 2169 3195 3272 3423 3232 3462 3167 2701 2445 2138 257 93
2980 3009 3127 3307 3348 3558 3003 1102 102 1820 1824 1910 2306 2571 2301 1963 2150 2140 2285 3264 3071 3006 3181 3247 3190 3183 2551 1549 1103 207 1730 2661 3064 3147 3048 2858 2948 2809 2067 1601 285 132 34

GFSMA_con_sbcape_057.txt.gz
CAPE
735 761 527 338 388 437 530 374 27 2 264 571 639 243 175 307 430 1037 1399 2178 2283 1987 1467 1223 1324 1071 1125 1100 1061 1039 735 514 796 861 570 621 657 595 607 682 778 698 714
967 461 196 634 374 71 155 35 387 67 347 613 124 158 580 463 425 549 1003 1645 2313 2229 1929 1513 991 1045 1534 1323 1068 1087 1028 760 574 363 356 356 627 758 794 656 614 606 630
1141 1133 318 178 51 515 804 944 316 234 294 261 51 188 512 725 556 770 734 693 1266 2276 2199 1228 1215 1243 733 538 485 520 508 461 329 198 309 362 633 981 790 652 570 577 486
841 804 687 778 117 665 94 55 44 210 96 61 175 101 268 529 734 565 698 786 795 593 1493 1597 1392 1324 695 623 606 607 550 575 591 701 852 823 857 812 721 639 471 345 364
478 275 370 847 185 374 306 215 151 115 231 71 26 62 132 231 638 752 475 646 637 836 897 1733 1644 1510 992 1043 1066 1011 968 1303 1306 1303 927 786 704 700 650 618 424 284 316
130 0 67 829 151 91 49 315 535 65 286 37 35 26 378 53 35 133 514 895 900 580 571 927 1424 1330 1744 1268 1308 1056 822 922 1084 1239 1300 1274 1280 1136 831 658 445 250 194
905 503 391 828 184 14 0 612 107 95 191 53 0 28 6 36 70 134 126 281 777 726 485 442 612 462 707 1611 1422 1424 846 732 716 660 683 550 676 791 612 382 271 166 43
781 168 285 1008 564 665 955 860 977 482 257 35 78 369 32 8 169 32 67 47 157 715 869 898 646 658 264 520 728 1507 1477 874 392 326 531 561 453 390 415 376 287 104 0
1227 1412 1132 1116 605 850 812 818 919 914 142 44 60 214 17 64 92 147 12 88 7 264 312 526 949 850 496 317 634 1129 1341 532 606 190 226 392 503 463 445 445 296 63 0
1325 1404 846 964 1163 1184 1126 1027 1234 915 52 443 6 146 107 98 92 92 224 169 48 332 267 158 459 446 204 480 1118 946 864 418 514 524 343 300 420 291 294 315 341 52 0
1494 1302 1296 1387 1068 614 627 978 1369 1178 1087 938 30 79 6 62 397 467 217 148 101 95 107 192 283 296 259 258 390 446 698 511 376 470 615 661 508 175 79 117 128 9 0
1844 1905 1474 1399 1197 1101 1235 1070 1589 1133 1116 1360 804 1041 43 142 592 456 321 253 120 133 260 202 188 448 436 360 608 678 989 488 210 216 281 445 639 440 39 0 0 0 0
1575 1689 1449 1846 1866 1396 1133 1239 1545 1612 1546 1334 1550 910 791 527 85 579 291 318 422 276 223 233 344 89 375 465 449 1026 976 326 74 0 0 55 185 366 491 407 260 129 25
1106 1678 1463 1623 1302 1659 1578 1536 1214 1369 1635 1263 1275 1769 1198 968 1062 387 85 152 210 392 948 233 488 346 253 442 526 1002 477 240 31 0 0 0 0 0 14 58 130 114 152
977 1244 1719 1494 1751 1759 1748 1760 1125 1596 1654 1730 1308 1151 1823 1243 1076 1042 408 138 384 290 284 780 968 658 468 519 625 773 349 289 71 0 0 0 0 0 0 0 0 0 0
625 1352 2050 1564 2008 1706 1412 2002 1204 1633 1403 1744 1820 1850 1565 1480 1003 1754 818 954 687 257 333 526 569 1231 1098 922 881 553 328 461 558 88 0 0 0 0 0 0 0 0 0
1753 1927 1931 2022 2111 2007 1829 1669 1396 1798 1437 1711 1770 1578 1735 1659 1506 1715 2365 1885 1157 962 873 621 1215 1163 1223 1275 1269 817 593 880 795 769 229 0 0 0 0 0 0 0 0
660 1857 1964 1846 1746 1709 1986 1911 1865 1770 1660 1868 1969 1733 1796 2154 1940 1604 2006 1882 2000 2072 1740 1234 1134 1136 1450 1635 1522 1486 1705 1982 1377 1286 1157 464 0 0 0 0 0 0 0
548 1455 1720 1742 1760 1650 1598 1868 1879 1865 1666 1773 1908 2047 2008 1658 2196 2411 2019 1988 1842 1712 2233 1954 1915 1992 2302 2087 1905 1568 2130 2435 2015 1664 1402 1355 990 108 0 0 0 0 0
1849 1404 2100 1609 1803 1422 1676 1723 1977 2033 1897 1747 2158 1968 2012 2269 2073 2235 2534 2448 2272 2316 2104 2060 2046 1896 1818 2095 2043 2240 2059 1885 2035 2003 1737 1338 3002 2780 1471 204 0 0 0
553 1430 1498 2090 1720 1858 1525 1573 2132 2081 2048 2034 1749 1946 2152 2105 2439 2461 2577 2604 2723 2655 2605 2609 2493 2290 2041 2010 2165 2246 1880 1463 1841 1845 1691 3256 2883 2866 2946 2732 800 129 11
1461 1011 1247 1637 2087 2048 1943 1502 1539 2072 2200 2156 2183 1957 2210 2270 2094 2187 2255 2720 2863 2848 2929 2769 2521 2540 2151 1947 1979 1874 1741 2466 2323 2113 3439 3067 2850 3132 2995 3017 2817 1403 267
465 1497 1633 1728 1780 2102 2001 1500 927 1435 1496 2167 2182 2126 2102 2226 2205 2232 1998 1210 834 787 1132 1782 1785 1769 1803 1736 1852 2016 2308 2632 2621 2759 3118 2815 2751 2767 2727 2993 2107 430 0
740 830 1423 1814 1880 1969 2190 1108 477 769 1328 1426 2197 2240 2179 2165 2097 1902 2014 2128 1667 1048 951 660 662 1480 1701 1822 1981 2256 2528 2698 2863 2139 2483 2960 2540 2776 2826 2342 947 0 0
1311 1113 1466 1768 2020 2101 1986 1415 35 39 787 1246 1548 1793 2050 2206 2196 2282 1754 2121 2318 2704 2804 2083 2023 1462 1341 1268 1509 1483 2335 2646 1902 2506 2797 2868 2649 2555 2494 1432 3 0 0
1133 1515 1368 1700 2067 2151 2072 1049 19 898 377 697 982 1156 1718 2017 2453 2259 1494 1596 1418 1529 1622 1954 1842 1039 544 429 431 119 1328 1480 2084 2853 2674 2583 2595 2037 843 376 0 0 0

GFSMA_con_sbcape_060.txt.gz
CAPE
123 214 258 11 23 155 17 230 3 1 176 380 497 128 345 711 895 1161 1345 1785 2041 1726 1656 1419 1471 1180 1071 1127 1064 1068 538 436 731 802 373 605 638 648 680 689 629 650 707
350 206 256 253 188 72 312 62 263 49 60 454 69 64 149 259 687 996 1063 1527 2169 2133 1496 1097 1016 1059 1304 1163 945 978 975 750 557 321 289 237 383 760 670 592 582 661 583
544 34 64 175 119 143 27 5 242 141 105 203 48 271 194 141 323 723 931 1082 1769 2022 1777 1506 928 1090 1292 913 689 819 678 546 420 294 265 388 565 938 839 675 528 504 445
538 388 5 93 0 176 0 0 99 232 116 49 46 320 332 414 400 416 515 569 899 1400 1963 1774 1607 1541 770 513 495 565 576 546 477 628 932 902 807 802 759 661 441 309 362
374 220 341 491 121 106 146 14 54 40 59 37 12 17 150 370 489 477 554 508 399 453 538 1483 1680 1530 819 870 921 1072 1031 1188 1371 1137 1062 787 772 747 669 573 405 259 267
41 33 235 188 82 28 6 105 123 23 140 33 39 47 26 21 179 405 391 526 457 639 514 539 1147 1067 1558 1242 1441 1176 1005 975 1132 924 1276 1281 1036 1007 774 565 474 234 165
0 0 274 338 0 14 9 268 44 35 100 31 0 9 9 35 0 34 245 419 587 611 430 431 686 829 773 1843 1798 1632 1056 877 772 799 920 794 479 736 689 521 272 209 80
316 35 202 489 102 132 64 420 285 217 46 8 18 69 0 0 0 0 13 222 245 681 635 424 352 465 246 366 739 1494 1603 1069 515 412 586 834 491 478 407 347 312 193 13
449 260 462 598 146 273 373 361 350 150 8 12 20 25 0 0 2 18 0 0 0 451 732 663 593 448 371 160 375 892 1500 1218 765 315 384 709 621 365 321 396 400 226 21
740 896 815 699 91 431 332 321 745 102 30 37 5 50 11 4 0 18 31 72 0 173 280 218 746 676 527 307 339 622 1000 1068 668 546 389 540 717 374 268 315 462 366 33
811 1027 539 604 658 642 420 388 866 777 402 276 10 24 0 14 61 81 89 93 2 0 19 70 48 251 144 153 325 617 1111 780 524 425 685 827 833 336 181 110 231 285 82
1022 872 679 798 561 365 288 469 628 194 473 772 168 176 13 44 282 277 84 27 0 0 24 7 1 53 46 30 215 746 777 723 435 271 238 364 610 640 207 166 94 96 73
1161 1166 989 882 671 683 864 478 812 1136 719 886 965 349 226 243 0 120 11 122 160 93 85 83 50 18 133 99 118 923 1059 654 424 143 0 15 83 250 517 632 594 436 287
1224 1396 955 1042 1185 831 712 672 797 724 1049 722 752 1106 779 374 588 208 0 0 47 45 266 239 126 90 10 97 164 486 554 540 350 114 0 0 0 0 11 89 182 279 300
799 1296 964 1089 977 1079 897 841 645 738 939 1102 817 493 872 884 419 470 180 0 11 100 44 342 686 284 186 125 218 361 543 271 202 69 0 0 0 0 0 0 0 0 0
743 961 1186 1012 1024 1031 1070 1030 653 811 946 901 1195 1348 812 871 722 1081 1083 230 89 0 134 87 167 536 864 547 435 499 350 305 208 98 0 0 0 0 0 0 0 0 0
273 656 1344 1083 1131 1214 899 1302 833 732 1037 880 1070 1060 1248 1105 1067 993 1302 1356 1150 326 355 231 213 832 1015 755 863 713 677 363 286 415 301 71 0 0 0 0 0 0 0
618 1051 1464 1244 1201 1351 1048 879 1163 1128 1153 1011 1087 1291 1367 1659 1525 1145 1193 1349 1256 1111 1032 1106 421 873 1134 1640 1586 1605 1675 1719 1659 1684 1361 653 178 16 0 0 0 0 0
75 1342 1429 1549 1378 1376 1400 1240 1103 1103 1025 1135 1191 1318 1324 1116 1567 1667 1418 1472 1438 1595 1463 1426 1805 1327 1679 1416 1494 1317 1481 1841 1901 1909 1890 1616 1254 2200 2000 266 12 0 0
0 377 1483 1365 1298 1295 1259 1375 1233 1174 1148 1114 1205 1282 1464 1481 1239 1349 1735 1867 1900 1802 1609 1439 1325 1426 1512 1692 1468 1848 1720 1180 1248 1555 1614 1308 2499 2348 2572 2524 1567 226 0
13 134 856 1379 1346 1206 1090 965 1139 1221 1229 1241 1264 1326 1541 1564 1669 1621 1678 1808 1880 1833 1861 2018 2039 1962 2078 2232 2178 1722 1518 1196 1415 1615 1645 2734 2490 2486 2541 2474 1828 33 0
337 194 984 1237 1234 1418 1207 1136 1163 1292 1323 1382 1397 1337 1280 1552 1561 1661 1644 1981 2041 2066 2135 2190 2344 2548 2282 1689 1379 1370 1269 1513 1925 1707 2620 2455 2260 2474 2412 2413 0 0 0
0 527 327 1080 1461 1358 1388 723 777 1180 1456 1566 1531 1559 1535 1812 1734 1754 1683 912 561 1380 2112 2162 2171 1782 1610 1433 1326 1462 1531 1601 1956 2187 2560 2972 2177 2440 2233 1393 0 0 0
11 0 718 525 921 1402 1652 677 368 857 1001 1141 1672 1779 1710 1742 1606 1605 1609 1665 1578 1217 615 102 445 1175 1240 1335 1455 1747 1726 1877 2283 2738 2121 2052 2093 2569 2170 0 0 0 0
602 37 293 1242 1078 1026 1051 675 26 649 968 977 913 1289 1638 1672 1648 1640 1459 1657 1668 1773 2098 1625 835 851 795 898 611 1353 1763 2123 2407 1812 2210 2786 2373 2489 1726 31 0 0 0
791 784 428 375 1129 1495 1288 468 1 1025 810 761 845 908 1095 1659 1846 1629 1161 1448 1433 1358 1115 981 1219 886 333 361 396 109 1279 1742 1922 2058 2156 2724 2525 1144 509 104 0 0 0

GFSMA_con_sbcape_063.txt.gz
CAPE
65 116 42 4 24 94 1 62 0 20 166 426 127 148 358 516 780 1025 1239 1711 1978 1671 1418 1304 1372 1212 1057 1168 965 999 433 354 674 709 255 480 632 712 740 580 599 670 617
90 267 83 44 180 94 152 60 122 22 14 342 202 103 300 554 760 1040 1020 1210 1649 1728 1413 1155 1198 963 1080 972 871 917 814 724 562 334 274 286 335 710 790 727 552 612 484
226 55 106 166 116 44 84 112 149 100 95 156 13 23 78 361 606 902 949 1052 1345 1579 1550 1110 857 920 1445 1343 812 832 960 586 404 355 321 470 670 927 838 731 498 401 366
415 33 54 51 0 250 89 34 30 196 78 27 0 146 161 142 269 550 692 771 1026 1427 1470 1895 1395 1039 967 639 501 506 593 640 627 636 954 1118 826 769 661 705 461 259 313
565 222 31 78 17 47 16 10 24 36 13 7 5 85 274 294 273 307 348 338 402 652 528 1257 1953 1646 1014 843 867 926 1091 1149 1388 1162 1102 920 842 943 925 564 416 218 221
240 135 180 44 12 3 39 29 38 6 25 11 22 20 8 46 225 298 286 349 237 214 234 258 416 920 1367 962 1352 1373 1116 1030 1181 1063 1060 1127 848 707 831 626 484 244 170
5 0 216 298 33 10 15 54 14 34 76 5 0 0 0 0 0 143 259 227 367 376 398 358 297 572 631 1184 1905 1648 1244 960 843 777 1126 1088 560 385 620 546 349 226 149
3 22 211 297 4 0 40 329 83 185 32 0 1 4 0 0 0 0 0 135 261 439 494 410 313 352 370 241 353 998 1648 1317 676 494 793 917 842 518 504 385 324 253 155
374 98 140 261 84 29 323 258 167 49 9 0 0 0 0 0 0 0 0 0 32 90 416 498 396 243 132 108 284 439 1318 1349 1114 637 593 867 963 674 335 421 426 306 173
560 234 392 617 82 219 209 230 393 51 5 14 0 14 0 0 0 0 0 0 0 0 37 264 449 495 373 244 308 511 677 820 1222 1064 516 818 958 841 359 359 619 529 236
576 774 630 734 170 361 239 206 737 349 54 75 0 11 0 0 0 0 23 13 0 0 4 28 66 97 300 322 233 164 724 924 961 1061 864 780 989 749 353 378 509 526 369
687 768 499 511 507 338 302 133 478 286 332 311 36 11 2 14 88 57 31 8 0 2 0 0 0 0 7 24 49 434 771 789 851 675 554 461 564 539 261 334 456 787 419
899 908 627 591 420 435 170 234 551 307 300 604 152 29 8 44 0 18 0 34 37 33 22 0 3 0 3 14 18 292 597 634 552 391 232 125 144 212 213 260 481 502 636
976 965 747 802 673 486 676 370 701 603 831 358 713 898 242 202 259 75 0 0 0 0 5 306 43 17 0 0 22 388 227 212 230 208 128 50 1 0 9 82 212 291 469
862 950 843 840 886 834 592 488 597 613 681 770 572 276 442 449 264 171 42 0 0 24 11 5 324 109 195 12 20 89 85 213 296 168 21 3 0 0 0 0 0 0 2
569 832 1007 723 863 908 828 611 537 447 501 717 975 892 421 437 434 400 627 45 0 0 126 0 38 64 684 749 485 700 716 639 534 221 51 3 0 0 0 0 0 0 0
462 514 1005 941 785 883 885 903 732 507 830 770 653 935 919 782 874 723 899 974 664 72 369 314 6 566 714 627 1080 1020 1088 1073 921 1529 1280 815 275 11 0 0 0 0 0
2 209 562 1031 886 907 851 949 1097 1076 687 825 868 835 1029 943 1225 910 798 1047 858 574 655 864 337 856 1033 1272 1204 1472 1402 1472 1615 1418 1305 1301 1048 1396 1280 759 232 0 0
0 269 609 996 913 907 1006 812 831 1016 1002 957 1020 963 948 1079 1285 1150 1049 1143 1114 1153 801 1066 1649 981 1181 998 1480 1286 1352 1452 1183 1142 1410 1641 1465 2037 1810 1376 265 0 0
0 0 870 1139 1143 986 1059 1116 991 885 878 941 986 1040 1194 1226 1189 1038 1047 1463 1396 1499 1328 1179 1009 983 1086 1360 1208 1620 1852 1171 1083 1252 1528 1397 1929 2199 2117 1337 1 0 0
0 0 73 1091 1112 1140 1172 1115 1200 1137 1066 976 986 1039 1141 1266 1396 1380 1239 1176 1239 1361 1372 1401 1430 1416 1629 1779 2036 1361 1269 1006 974 1211 1383 1883 2080 1946 2040 0 0 0 0
0 0 0 56 974 1210 1236 1129 1144 1120 1029 1027 961 880 1029 1371 1273 1208 936 1299 1786 1609 1556 1527 1642 1864 1795 1610 1120 1049 918 1063 1529 1235 2198 2126 1991 1946 1659 0 0 0 0
0 0 4 132 200 727 1156 797 344 901 835 919 993 1018 1009 1321 1246 1268 1313 923 307 298 1110 1861 1881 1811 1771 1296 939 971 936 969 1227 1556 2099 2639 1808 1838 155 0 0 0 0
0 0 0 24 385 538 748 534 130 615 984 937 1028 1091 1134 1231 1310 1373 1411 1429 1286 1106 582 171 669 1538 1425 1296 905 1085 1203 1186 1321 1854 2348 2180 1675 2271 1 0 0 0 0
0 0 0 0 4 250 580 321 0 367 715 826 787 916 1284 1376 1401 1266 1273 1355 1300 1251 1282 1009 534 552 439 529 162 765 1084 1266 1727 2097 1364 2215 2024 2265 182 0 0 0 0
217 85 1 0 0 134 107 59 0 743 850 923 958 735 650 1046 1269 1150 592 1119 1273 1442 1308 1029 653 255 33 53 1 61 848 1481 1671 1635 1678 2299 2197 1308 530 9 0 0 0

GFSMA_con_sbcape_066.txt.gz
CAPE
207 195 161 11 127 88 207 32 10 275 371 678 434 461 703 833 1029 1326 1656 1735 1756 1535 1342 1276 1287 1080 952 1104 887 904 448 387 546 357 208 276 259 542 739 686 550 689 520
107 144 170 97 242 178 172 195 165 219 242 491 401 496 628 816 1085 1280 1456 1410 1468 1426 1480 1113 1164 882 976 913 809 854 904 767 468 314 298 356 504 687 926 735 523 467 398
60 109 247 220 264 88 330 384 350 320 337 342 336 294 465 712 882 1197 1247 1344 1453 1479 1536 1191 891 864 1097 1437 979 654 741 587 438 461 476 726 982 803 793 796 532 382 356
226 43 140 293 91 416 213 74 191 477 256 164 151 348 358 415 652 945 1031 1092 1205 1480 1603 1760 1783 1125 899 874 633 577 664 736 798 906 1083 1142 938 737 698 656 549 315 279
502 73 82 239 46 107 42 30 79 312 204 106 140 213 533 540 476 425 621 765 753 1137 1023 1143 1743 1859 1047 943 928 992 1033 1333 1444 1112 1146 932 955 927 981 801 519 352 207
268 159 314 214 87 66 82 75 116 52 136 113 49 175 378 433 615 628 547 466 450 385 380 400 475 607 1091 1097 1054 1305 1379 1085 1337 1172 1232 1123 906 585 391 772 581 489 227
159 112 153 140 152 34 35 80 33 107 205 2 16 48 2 0 115 313 625 577 589 619 560 644 641 578 690 905 1174 1351 1351 1314 1018 940 1094 1146 931 541 428 520 447 321 245
2 69 230 149 26 10 207 242 100 406 70 1 0 14 0 0 0 54 92 317 483 511 716 762 741 710 700 656 626 827 1124 1285 1236 819 963 948 1064 971 666 536 446 264 276
168 114 191 211 40 14 401 395 224 77 19 2 0 30 6 2 0 14 90 12 77 242 349 642 782 750 689 538 486 566 924 968 1261 1280 1165 1071 1059 1102 810 624 626 507 344
463 270 203 339 292 259 339 394 555 126 16 32 0 21 2 1 64 221 38 119 75 40 63 178 396 693 784 733 676 863 906 774 934 1115 1408 1542 1115 1211 1197 889 760 751 603
623 406 525 668 222 446 398 413 794 269 89 162 5 64 7 41 5 72 263 265 172 137 96 227 299 356 439 568 651 580 574 678 750 1136 1337 1601 1294 901 737 1133 1117 963 608
692 634 818 321 217 511 618 443 653 646 660 502 125 32 27 212 345 262 231 184 109 279 107 110 116 184 189 177 206 466 587 584 547 623 788 997 1117 910 763 676 1078 1175 1371
776 800 766 364 264 495 480 314 714 451 497 887 444 187 24 279 37 131 46 234 301 344 432 246 216 173 103 180 178 213 473 255 175 143 108 169 449 696 866 958 903 909 894
739 885 820 659 497 543 447 248 621 937 733 607 1058 1087 513 587 588 427 172 155 465 170 113 824 556 471 537 308 165 399 572 60 42 59 36 2 1 52 237 380 424 424 515
627 906 707 774 695 553 640 632 613 639 756 1008 708 635 835 904 596 486 414 37 292 608 509 431 890 630 1321 1107 848 1217 1329 928 579 539 729 382 13 0 0 0 9 8 22
528 853 1012 844 857 1037 637 663 589 573 684 765 1057 957 640 644 779 533 1091 212 103 224 857 157 589 434 1149 1459 1367 1954 1826 1066 1245 1381 1041 573 256 189 23 0 0 0 0
439 637 981 949 888 863 1069 852 796 721 759 760 707 1159 1295 1032 1107 1097 1159 1341 1049 297 1097 1329 307 1098 1556 2005 2297 2117 2137 2307 2320 1608 1008 733 907 884 704 139 21 0 0
278 651 699 1005 929 897 749 1093 1036 1143 812 908 1071 908 1175 1113 1238 1322 1208 1399 1400 1083 1195 1552 1127 1649 1914 1977 1930 2260 2200 2230 2013 1509 1058 1094 1255 1421 1321 428 0 0 0
0 93 409 755 1037 1036 1039 1053 1152 1267 1225 1036 1040 1105 1231 1171 1531 1557 1539 1542 1470 1449 1296 1466 2111 1635 1708 1648 2165 2328 2295 2295 1785 1398 1481 1515 1380 1685 1198 23 0 0 0
0 0 233 549 895 976 1065 1147 1034 1119 1201 1215 1233 1252 1372 1359 1457 1590 1436 1636 1747 1839 1807 1791 1681 1604 1610 2057 1853 2153 2490 2011 1878 2004 1841 1395 1723 1780 26 0 0 0 0
0 0 8 496 947 1075 974 1165 1220 1139 1110 1146 1244 1223 1221 1243 1086 1385 1701 1911 1622 1640 1788 1910 1946 1868 2045 2223 2421 2192 1867 1693 1890 1828 2222 2610 2612 2560 62 0 0 0 0
0 0 0 71 594 927 1102 865 990 1320 1309 1311 1318 1265 1376 956 883 775 653 823 1518 2138 2257 2023 2261 2183 2530 2082 2130 1928 1656 1828 2280 1969 2808 2770 2774 2474 20 0 0 0 0
5 0 0 0 163 481 561 719 311 1242 1257 1296 1374 1383 1146 1125 916 1447 1055 397 17 96 721 2193 2287 2444 2495 2452 1958 1927 1549 1519 1873 2137 2311 2975 2556 1831 0 0 0 0 0
0 3 8 3 2 73 156 74 28 737 1118 1028 1088 1142 1199 1352 1317 1372 1498 1681 1756 1680 948 404 966 1893 2242 2332 1832 1925 1619 1575 1609 2015 2285 3161 2067 1983 0 0 0 0 0
0 0 0 1 37 62 0 0 0 382 682 983 995 1115 1236 1325 1057 663 1475 1732 1843 1834 1297 864 670 693 675 597 346 1029 1418 1658 2113 2304 1973 2534 3312 1886 0 0 0 0 0
85 2 9 0 0 18 0 0 0 189 284 480 861 953 477 1034 1009 569 868 1619 1667 1682 1708 1617 1188 308 56 87 0 162 1206 1859 2326 1870 2346 2744 2670 2332 1022 0 0 0 0

GFSMA_con_sbcape_069.txt.gz
CAPE
1081 1117 1068 900 1070 875 795 764 1293 1271 1497 1463 1400 1394 1218 849 1013 986 1094 1739 1733 1531 1384 1259 1284 1106 930 962 853 831 648 543 466 362 267 415 501 639 1105 826 582 567 500
1353 1016 907 997 1124 1197 1043 1041 1088 1302 1409 1375 1434 1420 1011 796 1039 1135 1085 1304 1498 1474 1550 1167 1204 941 1101 1032 817 783 912 850 458 402 508 555 761 998 902 873 609 496 440
1407 989 1321 1101 1177 1184 1521 1539 1400 1315 1292 1173 1334 1172 1047 917 846 1141 1111 1220 1264 1490 1611 1496 1106 907 933 1223 854 639 534 556 613 725 774 1043 1272 813 808 720 664 484 414
1437 1471 1263 1632 1256 1362 1204 1202 1189 1217 1200 1141 1206 1170 1125 1044 965 1146 1166 1163 1112 1069 1404 1623 2002 1626 1061 1010 1003 818 850 927 1163 1150 1073 1097 908 832 917 1029 645 525 331
1547 1340 1204 1350 1337 1162 795 858 1266 1254 1067 1020 923 1099 1338 1363 1318 962 1178 1201 1095 1160 1105 993 1351 1595 1438 1027 983 1104 1199 1244 1255 1088 1000 1007 970 896 664 678 745 551 367
1539 1384 1169 1393 1322 1017 908 1008 1403 1105 1051 947 565 909 1307 1407 1482 1490 1375 1251 1221 1179 1023 1156 1192 813 734 1049 1146 1180 1282 1425 1410 1260 1312 1146 976 765 427 503 783 617 533
1502 1561 1738 1281 1181 940 1124 1192 1032 1292 995 871 776 685 827 1053 1031 1052 1179 1287 1298 1238 1271 1298 1528 1376 1063 947 1051 1174 1112 1155 1305 1392 1329 1312 1201 912 660 402 453 419 394
1434 1391 1577 1293 1306 737 1445 1356 1200 1175 993 561 574 706 335 402 513 734 902 918 1057 1067 1051 1276 1483 1578 1687 1418 1164 887 1116 1290 1351 1398 1610 1483 1258 1283 1175 847 645 298 314
776 1093 1488 1383 1246 959 1359 1622 1310 1465 707 552 817 627 366 453 827 765 972 717 878 856 987 1052 1255 1426 1647 1586 1537 1273 1122 874 1020 1241 1552 2048 1674 1364 1393 1138 815 734 633
1374 1024 1389 1485 1346 839 1584 1643 1652 1266 685 674 641 726 835 868 682 708 753 791 911 818 883 820 895 1060 1489 1491 1464 1591 1202 953 1083 1164 1413 1954 2247 1816 1518 1517 1199 945 877
1834 1455 1320 1568 1607 1652 1794 1850 1982 797 892 653 548 773 857 673 1040 1104 813 937 984 884 878 915 936 1069 1284 1400 1307 1187 967 827 744 944 1146 1439 1625 1967 1863 1751 1699 1545 1332
2564 1897 1640 1857 1863 1786 1925 1811 2071 2161 1908 1714 1327 1125 660 915 1140 1149 1083 1378 1304 1236 1247 1133 1134 1109 1140 1183 1008 559 751 657 492 491 597 856 1038 1176 1445 1647 2026 1951 1926
1856 2102 2148 2289 2067 1853 1989 1939 2044 2156 2060 1779 2015 1259 1039 1528 1523 1619 1130 1085 1132 1308 1422 1426 1779 1914 1569 1710 1575 503 873 415 187 77 62 86 321 564 749 977 1155 1240 1299
1544 2111 2235 2207 1981 1900 1742 1819 1838 1754 1788 1753 2200 2279 1608 1638 1789 1864 2047 1226 1015 1034 1258 1838 1622 1756 2335 2328 1781 970 2527 1872 684 764 494 197 95 24 144 362 510 549 525
1356 1933 2203 2228 2053 1981 2009 1944 1596 2049 2257 2191 1906 2090 1867 1727 1642 1527 1900 1428 1384 1154 1015 1360 1405 1988 2429 2702 2202 2791 3218 2054 1351 1182 848 503 342 250 49 9 21 20 44
1673 1643 2012 2194 2241 2218 2110 2101 2001 2009 2131 1896 1776 2197 2039 1446 1560 1605 1689 1860 1750 1838 1503 1592 1675 2173 2768 2987 2253 3028 3380 2029 2517 1808 1204 462 419 721 708 448 13 0 0
1791 1922 2067 2085 2279 2256 2356 2320 2108 1938 2127 2076 2008 2099 2244 2439 1654 1719 2079 2199 2152 2005 1970 1826 2170 2432 3156 3246 3047 3265 3105 3013 2161 2066 1185 494 510 615 1091 410 0 0 0
1730 2003 2066 2222 2354 2287 2343 2425 2296 1868 2012 2062 2017 2071 1913 2018 2632 2570 2271 2753 2440 2591 2320 2428 2525 2483 2910 3127 3337 3522 2925 2287 2944 2046 1628 1151 768 780 873 2 0 0 0
1596 1611 2152 2298 2389 2390 2456 2412 2378 2335 2279 2029 1998 2172 2127 2281 2508 2210 2639 2560 2438 2723 2826 2689 2534 2497 2663 2655 2972 2743 3123 3263 2476 1806 1572 1342 1484 848 27 0 0 0 0
1121 1304 1621 1928 2323 2436 2434 2400 2437 2484 2468 2269 2194 2147 2175 2294 2534 2830 2637 2800 2736 2740 2602 2822 2321 2367 2366 2665 2952 2710 2383 2344 2661 2667 1778 1568 2052 0 0 0 0 0 0
1078 1175 1143 1272 1525 1639 1670 2190 2370 2371 2354 2373 2305 2247 2150 2017 1830 1962 2082 2377 2697 2871 2460 2310 2223 2176 2137 2103 2218 2494 2489 2646 2921 3031 2302 2632 3151 3497 35 0 0 0 0
1057 1165 998 1053 1170 935 478 853 1625 2183 2329 2353 2397 2357 2285 1430 1169 817 624 886 1394 2688 2851 2527 2049 2124 2556 2689 2406 2446 2526 2589 2019 2195 2837 2729 3115 3466 1443 333 0 0 0
1386 1256 1015 1125 1398 1557 475 238 404 1548 2134 2490 2519 2436 2243 1747 1759 2253 1009 131 93 48 581 2378 2541 2345 2527 2466 2846 2902 2832 2930 2438 2072 2470 2877 3242 3313 893 0 0 0 0
1303 1374 1126 1209 1336 1209 432 4 0 1314 2078 2033 2242 2508 2516 2386 2259 2099 2206 2162 2171 2169 1778 1281 1880 2340 2619 2855 3052 2933 3068 2901 2495 2329 3080 3305 2877 3488 794 4 0 0 0
977 988 993 1197 1221 1236 73 0 0 927 1221 2222 2160 2195 2513 2451 2174 1310 1888 2129 2225 2252 1425 1574 1507 1582 1495 1105 1176 2086 2163 1905 1509 1354 2647 3521 2783 3266 1171 291 0 0 0
980 817 723 861 721 1257 488 0 0 295 792 864 1696 2303 1098 1482 1554 840 1409 1964 2185 2071 1777 1692 1986 714 125 788 0 935 1963 1934 1564 1626 2289 3024 2584 3196 2647 1215 9 0 0

GFSMA_con_sbcape_072.txt.gz
CAPE
1287 1112 1232 1078 1000 1040 1145 1545 1658 1790 1835 1563 1430 1302 1013 1068 954 701 842 1512 1689 1369 1309 1153 1017 939 780 780 728 767 921 849 437 445 531 592 753 1035 1019 888 674 558 498
1394 1303 1266 1168 1186 1080 1274 1450 1749 1567 1292 1342 1506 1294 1111 1231 1403 1305 1232 1241 1404 1367 1456 1016 1029 865 1010 1348 1032 724 644 614 649 694 781 915 1399 879 864 779 785 569 467
1786 1511 1414 1282 1157 1574 1718 1760 1653 1526 1058 1221 1508 1420 1195 1113 1298 1356 1066 1150 1411 1209 1539 1447 1141 917 828 886 874 789 719 830 953 1103 1237 1159 1053 845 864 984 765 632 422
1164 1289 1055 1054 1394 1441 1261 1214 1298 1094 984 1062 1215 1042 1128 948 1165 1342 1141 1090 1041 1228 1204 1434 1777 1648 1246 1012 1133 1044 1087 1090 1191 1115 1036 1045 964 936 834 790 978 674 460
989 901 1013 1219 1750 1223 1056 967 1149 1046 980 886 850 1004 1122 997 1136 944 1206 1213 1085 910 811 1080 1142 1445 1411 1236 1065 1047 1217 1430 1394 1172 1088 1018 906 892 666 470 723 785 663
1571 1338 1030 1373 1385 908 984 1083 1171 1067 947 824 594 711 732 721 798 807 922 866 1069 1141 841 1089 1103 941 1130 879 1097 1228 1325 1401 1484 1499 1235 1299 1062 918 729 424 506 723 673
1616 1855 1413 1407 1257 841 1388 1615 1241 1176 601 851 638 455 443 831 624 474 586 559 849 866 928 1019 1169 894 1117 1547 1286 1190 1250 1410 1520 1484 1886 1935 1639 1427 1244 979 513 405 468
1578 1399 1370 1419 1110 793 1474 1457 1346 480 505 768 468 513 316 623 506 417 496 474 653 624 630 879 1046 1322 1407 1115 1173 1141 1352 1470 1528 1688 1946 2375 2139 1703 1535 1366 1086 590 580
1731 1701 1916 999 1770 1177 729 1459 1289 1362 270 617 1298 630 523 476 709 450 660 383 754 554 619 773 889 1089 1476 1519 1574 1670 1824 1220 1222 1572 1729 2267 2493 2328 1803 1535 1368 1074 857
1574 1542 1903 1885 1982 1100 1319 1520 1389 1222 1475 174 352 606 1545 1403 866 666 364 512 570 502 674 526 579 868 1331 1441 1222 1483 1530 1344 1349 1233 1421 1696 2212 2522 2627 2096 1679 1408 879
1643 1587 1867 2035 2026 1620 1699 1523 2046 1718 852 162 150 559 1121 1120 1820 1018 418 400 393 485 579 651 748 845 1373 1606 1531 1274 784 705 807 1001 1122 1132 1337 1563 1827 2370 2591 2126 1924
1708 1830 1710 2124 2044 1737 1866 1672 2015 2034 1481 960 506 947 726 1100 1062 875 704 719 725 870 852 1015 1178 1355 1564 1663 1262 722 955 814 638 508 466 588 867 1195 1509 1729 1847 2092 2478
1230 1893 2014 2012 1720 2077 1617 1451 2348 1733 2290 1320 1655 798 831 1345 1554 1548 1084 873 929 1071 1138 1260 1631 1835 1823 1974 2251 1596 1747 1367 995 668 439 364 374 585 779 1026 1203 1296 1392
1360 1720 1967 1628 1797 1767 1668 1679 1622 1329 1441 1735 1831 2094 1171 1432 1610 1594 1594 1371 889 833 1595 2285 1544 1669 2126 2454 2028 2197 2113 2178 1407 1126 653 570 273 320 468 527 561 505 452
1204 2083 1545 1496 1513 1952 2082 2284 1786 1811 1672 2015 1664 1727 1883 1458 1489 1464 1544 1537 1517 1123 1076 2063 1565 2102 2178 2262 2182 2567 2730 2121 1850 1747 922 573 412 668 738 297 167 60 54
1611 1635 2226 2015 1682 1987 2395 2501 1508 1936 1919 1548 1198 1884 2220 1272 1661 1497 1413 1491 1559 1516 1398 1613 1678 2082 2889 2774 2212 2705 2496 2469 2597 1661 948 902 651 497 851 184 0 0 0
1653 2127 2219 2316 2188 1921 2210 2768 2080 1686 2362 2063 1669 1754 2273 2198 1569 1303 1571 1615 1641 1626 1455 1391 1917 2236 3363 3351 3262 3184 2469 2161 1336 1811 1332 1093 733 501 479 0 0 0 0
1709 2158 2562 2368 2460 2174 2516 2576 2086 1656 1880 1929 2138 1962 1977 1626 2485 2364 1837 2024 1843 1869 1862 2018 2470 2281 2659 2941 2968 3317 2617 1972 2348 1171 1299 1190 1013 598 24 0 0 0 0
1732 1837 2121 2494 2403 2333 2771 2804 2255 2044 2262 2152 2150 2106 2212 2024 2145 1667 2197 1644 1768 2119 2240 2218 2083 1960 2161 2518 2645 3285 2595 2628 1817 1149 821 1251 915 92 0 0 0 0 0
1649 1755 1978 2189 2280 1790 2225 2486 2677 2293 2218 2118 2437 2370 2129 2144 2418 2685 2522 2708 2637 2359 2498 2114 1955 1827 1854 2050 2499 2019 1603 1536 2006 1908 1382 1274 692 0 0 0 0 0 0
1622 1621 1624 1765 2043 2112 1563 2156 2626 2517 2636 2535 2603 2718 2425 1761 1699 2076 2362 3127 3285 2615 1947 1707 1714 1761 1728 1693 2365 1489 1625 1433 2279 1746 2198 1546 1890 709 0 0 0 0 0
1869 1761 1636 1439 1436 1282 928 1063 1782 2514 2531 2586 2576 2790 2712 1709 1546 1596 1483 1284 1231 2655 2767 2368 1812 2029 3136 2439 1972 1487 1576 1314 1528 1595 1956 1195 1609 3082 3399 1911 0 0 0
2045 2299 1862 1772 1957 1830 495 180 725 1475 1744 2156 2442 2407 2478 1953 2019 2349 885 546 313 261 527 2176 2537 2655 2934 2377 2646 2609 3248 2330 2193 1857 1816 1164 1504 2833 3736 56 0 0 0
1854 1994 2169 2489 2469 2060 727 177 0 1299 1796 2266 2183 2238 2856 2821 2213 2185 2338 2123 2271 2226 1934 1609 1878 2058 2564 2634 3237 3048 3281 3169 2414 1995 2639 1885 1726 1781 3591 1640 0 0 0
1921 1759 1772 2302 2576 2563 669 273 0 1055 1059 2086 2333 2662 2908 3077 2360 1493 2192 2188 2332 2221 1130 1543 1620 1536 1220 1322 1272 1619 1259 936 646 448 802 831 1533 1965 3304 2557 301 0 0
2021 1764 1765 1856 1518 2258 1457 32 0 787 1178 690 1653 2514 1599 1742 1947 1337 2460 2576 2590 1988 1318 1186 1769 1175 495 1373 342 1282 1682 1105 501 339 816 1145 1500 1599 2103 2987 2084 8 0

GFSMA_con_sbcape_075.txt.gz
CAPE
1623 1939 1770 1250 1625 1328 1228 1590 2151 2099 1552 1529 1114 953 841 760 616 674 458 1819 1361 1210 986 1055 837 854 765 810 619 610 871 830 617 670 748 800 1297 909 844 919 786 554 410
2317 1154 1206 1384 1582 2081 2407 2220 1979 2124 1595 1196 1521 1350 1654 1199 1264 1643 1093 989 1461 1400 1202 887 842 733 901 1295 1148 807 712 734 794 918 1033 1285 1069 919 799 860 757 580 414
1591 1320 948 1600 1488 1862 1706 1620 1414 1692 1453 1302 1736 1474 976 1614 1087 1568 1293 1563 1177 1373 1309 1064 901 816 766 804 974 905 877 937 998 1092 928 949 1039 863 808 954 1062 669 424
1544 2039 1182 1485 1079 1653 1590 2219 1805 1711 2043 1433 2014 1599 871 822 969 905 739 1314 1747 1524 1523 1569 1555 1439 1186 1003 1074 1031 1109 1202 1273 1074 970 886 796 784 734 531 646 785 612
1503 1488 1335 1418 2342 2782 2160 1227 1595 1579 1382 1365 938 1538 1193 1041 1211 626 777 877 601 901 1352 1741 1536 1343 1337 1299 1169 1082 1116 1288 1443 1466 1202 1038 981 804 723 515 358 744 710
1355 1483 1374 1350 2517 1844 1273 1712 2195 1029 1514 1445 491 730 1091 546 392 572 746 754 839 957 708 912 1628 1293 1685 1236 1112 1205 1347 1479 1524 1566 1721 1798 1514 1083 859 698 430 397 613
1444 1635 1185 1373 2339 1852 2044 1301 1179 1358 747 709 1648 589 442 507 457 238 392 447 584 779 646 899 1170 1122 1462 2099 1629 1328 1401 1467 1682 1882 2217 2439 2443 2021 1776 1575 1134 404 408
1633 1583 2253 1628 1915 1275 1581 1227 2122 2475 853 790 2019 1291 586 430 283 371 307 288 582 501 566 823 775 1209 1447 1519 2227 2236 1796 1706 1688 1758 2242 2504 2570 2562 2199 1695 1511 1369 848
1528 1671 1993 2661 1267 2303 1076 1541 1261 1906 1904 221 1431 1093 1378 904 657 592 462 397 687 522 498 599 746 1074 1471 1660 1873 2446 2264 1789 1615 1699 1900 2384 2459 2543 2593 2386 1848 1524 1353
1614 1682 1646 1733 1720 1616 2322 1126 763 2415 1519 584 250 532 1509 1764 2286 232 294 326 376 526 512 565 730 826 1336 1898 1409 1350 1795 1415 1267 1269 1406 1600 2020 2148 2303 2412 2566 2108 1656
1712 1574 1893 1900 2025 1952 1732 2123 1956 1887 540 709 506 614 1209 665 1095 1359 303 321 386 416 534 858 745 839 1448 1591 1535 1196 658 514 766 908 1150 1325 1591 1838 2081 2266 2498 2563 2671
1545 1695 1781 1984 2079 2515 2060 1516 1767 1756 2153 1970 1449 1176 1492 1261 1753 588 424 1053 672 780 762 916 1129 1184 1468 1751 2025 1440 1252 821 802 768 670 810 1137 1522 1840 1927 1921 1970 2080
942 2466 1940 2309 1876 1981 1552 2051 2445 1932 1269 1717 1723 2116 1285 1475 1590 935 2155 1003 1128 972 1134 1338 1438 1564 1770 1927 2560 1948 2338 1472 1016 1194 963 665 686 888 1215 1471 1424 1368 1393
1041 3035 1932 1633 1725 2089 1784 1836 1829 1345 2523 1506 1256 2329 2250 1409 1733 1801 1979 1397 868 1037 1314 2686 1353 1519 1908 2173 2305 2123 2305 1867 1495 1620 1328 899 684 498 753 795 672 529 457
1122 2014 1866 1781 1761 1773 1987 2437 1585 2173 2662 2046 1667 1905 2191 1593 1026 1282 1108 1223 1706 1542 1333 2189 1506 2569 2095 2068 2226 2685 2717 1474 1904 1758 1237 1056 747 419 580 376 120 34 46
1443 1366 1940 2027 1778 1698 1846 2244 2598 2505 2008 1605 979 3049 2947 1862 1112 1090 1141 1198 1319 1490 1521 1560 1576 2169 2982 2960 2530 2925 2936 2147 1982 1967 1149 1099 1022 439 378 25 4 1 0
1752 1735 2864 2198 2143 1980 1936 2756 3138 2086 1944 2309 2656 1692 2683 3725 1803 1063 957 1109 1301 1434 1409 1290 1724 2904 3273 4061 3525 3928 3042 3574 2277 1505 937 1159 973 619 123 0 0 0 0
1825 2050 2121 2199 2248 2192 2502 2685 2136 1509 1978 1999 2268 2885 1770 1691 3670 3615 1931 3773 2436 3225 1927 3909 2786 1738 3568 3571 4577 4833 3053 1959 2448 1170 951 1064 997 606 4 0 0 0 0
2298 1505 2247 2553 2055 2101 2900 2758 2816 2196 2047 1939 2014 2429 2310 2814 3235 2406 2974 1985 1812 2267 2424 2065 2265 1880 1893 2083 2885 4012 4501 3705 2635 928 367 985 898 160 0 0 0 0 0
2599 2451 2408 2850 2526 1935 2065 2358 2781 2666 2636 2386 2361 2565 2463 2686 3355 3728 2859 3779 2931 2790 2348 1676 1510 1595 1812 2656 2181 2232 1937 1391 1546 1423 1036 1635 984 0 0 0 0 0 0
2764 2648 2670 2765 2404 2123 1505 2798 2687 2676 2814 2896 2912 2602 2999 2256 1712 2464 2186 3288 3626 3162 1784 1492 1388 1427 1471 1695 2956 2335 1919 1783 2559 1466 1199 1665 1638 579 0 0 0 0 0
3201 3276 2544 2659 2666 1419 855 875 1732 2822 3262 3564 3659 3784 3684 1739 1496 1184 1345 1482 1549 3063 4449 2496 1924 2012 4356 2934 1811 1695 1688 1354 1179 1596 2035 1667 1107 954 1580 651 0 0 0
3027 3600 3194 2843 3115 2970 1033 183 757 1622 2709 3355 3268 3788 2801 1580 2196 2894 1265 1161 1109 663 344 2583 3413 3319 3354 3586 3681 4073 3042 3119 2295 1750 2000 1313 1257 1714 2085 0 0 0 0
2612 2996 2997 3528 3591 3104 1548 522 30 2208 2387 2611 2981 3396 3547 3490 3401 3197 3183 2808 2572 2586 2349 1377 1898 2509 2998 3399 3628 3334 4037 4392 3110 2721 3167 2003 1573 1518 1704 3 0 0 0
2242 2243 2547 3291 3621 3618 1795 850 0 1263 1424 2375 2660 2655 2982 3537 3015 2164 2677 3520 3464 3465 1274 1632 1751 1938 1856 1340 1137 1622 1386 998 660 535 636 580 705 959 1247 1417 0 0 0
2165 1960 2321 2564 2469 3268 2538 1463 0 1389 1545 1581 1995 2361 1387 1624 2119 2047 2757 3149 3217 3204 3319 1990 1783 894 325 1117 493 1005 1641 1574 954 631 574 593 527 880 1267 1435 288 0 0

GFSMA_con_sbcape_078.txt.gz
CAPE
2242 1489 888 1946 670 832 943 1728 1587 2461 1285 1375 1448 1615 923 1182 511 921 1662 2240 1797 1224 914 876 775 731 749 870 624 570 614 580 657 756 835 1072 1182 946 843 802 786 534 325
2568 2178 988 2290 2171 667 2209 1179 2417 1468 1621 1557 1537 1614 1446 1419 1914 429 903 1706 1896 1783 1111 904 696 641 843 932 980 721 657 678 826 970 997 1007 1053 861 721 972 878 620 396
2016 1133 2187 1013 1533 3157 3033 1843 2495 2892 1560 1465 1956 2119 1463 1681 1234 1676 934 822 1401 2095 1661 1241 870 604 635 709 880 867 860 920 960 971 888 893 794 777 774 689 974 731 510
1737 232 1774 1336 1738 2710 2568 597 2044 636 1991 694 1844 2176 1472 1604 1432 1737 1522 1449 871 871 1781 1928 1703 1324 1080 954 1034 956 1024 1216 1395 1352 1267 1078 875 725 661 570 481 796 697
2457 2052 1545 817 1663 2228 2272 726 1743 1872 2132 1754 1373 1781 1400 1435 1391 828 1094 1438 1423 1296 1307 2096 2138 1918 1410 1326 1257 1169 1181 1459 1779 1949 2024 1871 1605 1414 1165 910 565 517 837
2107 2320 1296 3049 2938 2769 1592 1696 2085 1289 613 595 424 834 1296 1361 1563 1298 1134 1120 1202 1245 1296 1349 1595 1331 1999 2061 1817 1561 1462 1792 2129 2241 2287 2425 2460 2110 1723 1464 1154 828 761
2597 2443 2713 2563 2123 1362 472 3235 2745 1971 2362 1429 2654 1765 1613 826 737 1295 1070 931 1213 1374 1290 1375 2277 1728 1191 2398 2150 2133 2032 2060 2252 2459 2593 2656 2630 2614 2428 1954 1648 1331 873
2577 2248 1774 2391 1888 2173 2891 2667 2402 2019 2279 1220 2001 1888 794 1293 858 490 1124 945 1163 898 1152 1497 1412 1747 2145 1729 1687 2329 2478 2410 2428 2533 2605 2589 2643 2606 2524 2439 1998 1652 1529
2442 2450 2642 2915 715 2630 2762 2656 2100 1106 2627 1241 1485 2405 1295 1261 1675 859 840 908 871 1464 863 1024 1732 1923 2034 2605 2920 2671 2673 1977 2285 2032 2305 2287 2307 2314 2323 2402 2516 2199 1743
2302 1899 2888 3026 2419 871 558 2980 2145 1943 1904 2165 1524 1281 1816 2191 2504 1311 1286 816 1586 675 1214 1476 1198 1833 2060 2509 2408 2270 2412 1846 1087 1326 1620 1946 2252 2366 2591 2640 2496 2394 2389
2302 1805 2612 3006 2021 905 533 1839 2729 2883 2918 1990 398 2419 2079 2598 2514 3019 1042 978 1360 1017 1137 1489 1582 1343 2074 2213 2121 1152 823 601 692 902 1331 1482 1774 2194 2586 2723 2536 2412 2499
2487 2122 2057 2982 2319 649 1387 1109 2674 2303 3361 3609 2778 2657 2627 1954 2014 2090 1746 1405 1594 1640 1425 1297 1439 2113 2300 2964 1997 1480 1296 1353 1369 1093 1001 977 1276 1780 2238 2421 2339 2147 2011
1823 2602 3403 3449 2295 2660 2163 2564 3193 3159 2425 2816 3944 2458 2603 1656 2430 1980 2831 2106 1869 1488 2493 2229 2089 2287 2307 3136 2351 1765 2961 1697 1650 1179 1120 872 714 963 1392 1631 1581 1456 1335
1303 2102 2417 2930 2915 2650 2695 2911 2856 2748 2969 2598 2635 2913 2954 2097 2651 1443 2850 2490 2449 2491 2534 3264 2386 2887 3208 3356 2296 2042 1803 2173 1595 1102 1750 1020 464 589 831 767 442 391 370
1724 1514 2138 2569 2709 2001 3076 2801 1935 2514 2486 2390 3175 2743 2854 1799 2178 1802 2366 2585 2323 2477 2449 3170 2186 3088 3162 3519 1861 3429 3319 2596 1963 1255 2028 1332 421 548 675 176 61 81 85
233 343 419 1529 2784 2104 2290 2609 2735 1292 2114 1701 1978 2819 3080 1027 2632 2347 1955 2528 2488 2600 2001 1994 3071 3695 3613 3439 3179 3968 3971 2947 2766 1479 2041 1365 421 711 399 25 8 6 0
527 24 0 0 1387 2734 3045 2972 2205 1847 2275 2392 3174 2794 2866 2908 2296 2963 2377 2660 2471 2861 2875 2632 2819 4715 4202 4404 3607 4048 4044 3485 3004 1515 1942 1204 448 834 174 0 0 0 0
2959 923 0 8 1454 2456 2515 2862 2413 2095 2093 2568 2776 2428 2771 2385 3218 3304 2855 2822 3264 3117 3119 2907 2831 2627 2354 2778 4706 4219 4148 2664 2639 1698 1284 919 427 703 9 0 0 0 0
3145 2555 2655 3267 3096 2424 2679 2368 2858 2826 2155 2308 2971 3135 2851 3133 3028 2645 3524 3304 2603 2913 3106 2700 2253 2904 3093 2954 3256 4230 4193 4053 3681 1392 765 581 233 315 0 0 0 0 0
3007 2781 2901 3099 2794 2901 2863 2644 2683 2957 2477 2513 2824 2991 3089 3023 3023 3142 2987 3129 2695 3173 2609 2851 2233 1868 1938 2140 3574 3067 3234 2317 2026 2140 1301 1046 252 0 0 0 0 0 0
2960 2987 2886 2644 2841 2499 2046 2613 2977 2803 2353 2132 2364 2680 2936 3260 2490 2934 2523 2947 2850 2975 2553 2094 1849 1908 1951 3294 3371 3242 2554 2725 2331 2326 1424 2492 566 3 0 0 0 0 0
2943 2802 2880 2788 2523 2362 1350 873 2093 2694 2831 2869 2422 2860 3230 2470 1784 1150 1194 1349 1406 3020 3035 2868 2760 2373 2368 3085 2843 2806 2390 1720 1202 1958 1988 1572 1492 1305 443 0 0 0 0
3037 2933 2888 2845 2796 2660 1643 245 159 1933 2666 2932 2912 2711 2710 1720 2191 2176 875 847 813 323 603 1423 1648 2148 2278 2198 2762 3066 2713 2906 2596 1838 1741 1125 1320 1781 1846 52 0 0 0
2778 2769 2670 2853 3051 2905 2134 1559 154 961 2099 2056 2506 2804 2678 2441 2747 2769 2970 2454 1657 1656 1216 395 554 758 1047 1356 2161 2102 2031 2401 2640 2710 2511 2110 1933 1857 1484 65 0 0 0
1938 2238 2231 2442 2785 2984 2359 1382 704 956 1201 1727 2027 2090 2083 2936 2518 1962 2014 2698 3062 2960 2279 1900 1670 1099 879 761 816 1633 1523 1226 898 717 547 519 374 1058 1182 39 0 0 0
490 1574 1961 2189 2058 2505 2682 2099 252 1337 1533 1305 1230 1530 1563 1471 1400 1428 1453 2191 2129 2011 2718 2679 844 196 55 258 188 247 1339 1400 1220 1088 779 446 548 708 730 1491 0 0 0

GFSMA_con_sbcape_081.txt.gz
CAPE
291 517 391 732 1173 247 135 780 877 1505 744 619 699 521 292 548 798 1030 1075 1509 1927 2039 1019 874 783 651 771 897 653 617 589 607 668 791 916 1173 1104 921 768 808 741 502 289
618 0 165 1000 626 613 412 850 1149 871 884 444 589 483 331 358 387 920 1389 1451 2010 1710 1275 889 683 758 942 878 1096 727 677 711 832 940 977 862 1013 892 769 940 1047 678 437
652 863 710 926 597 512 534 548 955 1534 811 860 808 645 631 622 120 304 769 915 1377 1916 1556 922 1028 774 635 689 859 957 991 1184 1067 1125 1078 988 891 812 802 757 766 950 667
3 0 1093 545 942 1248 150 420 852 357 676 308 749 913 527 791 398 333 379 473 794 884 1816 1816 1702 1451 987 942 1075 1170 1387 1602 1793 1880 1879 1524 1194 1074 908 799 631 676 912
509 508 1448 318 1337 1409 1178 511 760 906 877 729 805 944 678 734 318 827 769 606 384 611 775 1619 2227 2072 1573 1409 1465 1596 1900 1944 2026 2250 2363 2393 2228 1841 1681 1420 1190 925 949
1335 910 977 990 1131 1062 585 452 824 647 384 414 375 379 405 563 445 482 362 854 739 620 757 747 1551 1430 2027 2160 2526 2555 2409 2381 2464 2456 2443 2415 2438 2511 2341 1801 1575 1384 1148
1398 1315 902 589 555 840 578 448 1318 641 1273 260 835 553 798 404 603 365 381 447 480 1000 990 670 848 797 880 1989 2489 2476 2491 2707 2716 2660 2585 2516 2521 2565 2475 2391 2023 1766 1370
1421 1316 817 553 437 688 1445 1380 1069 1250 1108 429 420 799 474 243 138 80 392 456 296 582 637 723 1374 1185 889 760 1281 2196 2385 2549 2751 2818 2903 2572 2405 2327 2300 2271 2284 2194 1875
1281 1339 558 1085 495 1039 1242 1033 712 403 1302 88 130 895 774 971 287 14 146 103 59 439 534 790 667 798 906 1555 1647 2015 2513 2174 2187 2333 2324 2389 2297 2298 2448 2481 2289 2257 2284
1140 1429 1582 800 458 280 580 1494 1598 1263 1213 843 302 875 754 863 964 166 241 38 112 430 94 217 929 803 948 1041 2257 2065 2467 2101 1564 1261 1779 2072 2278 2540 2943 2843 2436 2310 2317
1302 1253 1142 1221 607 267 428 648 1273 1367 1578 1455 606 1229 693 1559 1476 1368 57 14 236 252 100 541 472 675 927 1423 1161 938 1937 872 825 935 1355 1580 1787 2502 2968 3027 2776 2453 2315
1439 1298 1416 1088 1037 721 776 684 894 1139 1105 1613 2001 1013 1600 541 574 1330 403 52 162 364 141 396 441 587 912 1321 1441 1537 1651 1070 1482 1158 1033 935 1161 1808 2475 2553 2409 2192 2028
1119 915 1237 1311 1323 1081 726 789 1448 1174 1358 839 1950 1072 1471 1545 1284 1134 1408 825 365 370 806 639 875 1508 1385 1366 905 1525 2292 1385 1714 1437 1043 803 630 812 1495 1542 1299 1364 1321
837 1094 1485 1368 1134 1029 1123 1181 995 1360 1316 984 477 960 1545 1030 1412 1276 1217 1130 1159 1486 1024 1269 1377 1021 1938 1895 1943 2155 2076 1586 1686 1659 1059 806 726 496 872 384 378 457 424
791 766 778 1319 1276 1227 1181 1392 857 1094 1174 1083 1233 1380 1003 1013 495 1318 1218 1206 1002 1069 1051 1508 819 1328 1927 2123 1633 2435 2431 2874 2012 1783 1154 1032 742 408 445 82 62 37 7
506 174 34 151 917 1257 1524 1336 1091 935 929 643 536 643 1245 982 404 1309 1715 1418 1160 964 1084 1288 1886 2557 2708 2511 2271 2631 2616 2556 2569 2270 1375 1132 649 361 210 5 0 0 0
27 25 3 0 38 1070 1233 1238 1006 1074 967 860 1140 1637 1387 1752 1334 1656 1637 1348 1578 1690 1567 1598 1908 2522 1669 1798 2342 2608 2711 2574 2360 2036 1099 1190 661 316 92 0 0 0 0
388 44 0 0 0 615 1227 1327 1166 1107 1013 1112 1057 1462 949 1610 1718 1995 1488 1543 1459 1299 1307 930 977 883 1134 1271 1693 3175 2766 2945 2496 2043 1341 1281 494 295 32 0 0 0 0
190 0 0 0 357 750 1111 1388 1311 1598 1179 1110 1039 1296 1386 1285 1507 1475 1153 1440 1544 2006 1793 1807 1653 1428 1808 1018 951 1397 2456 2663 2185 2005 708 417 169 195 17 0 0 0 0
1533 1134 1179 1129 1240 1281 1199 1591 1373 1209 1486 1315 1339 1581 1577 1131 1264 1396 1127 1215 1543 1378 1446 1492 1207 1026 809 939 1483 2078 1677 1168 1379 1378 484 273 57 37 3 0 0 0 0
2169 1962 1656 1890 1715 1557 1801 1821 1541 1213 1330 1299 1430 1465 1600 1878 1920 1726 1459 1274 1677 1589 1468 1669 1429 1296 1608 1704 2166 1965 1383 1328 777 556 872 1098 259 25 0 0 0 0 0
1924 2117 1975 1802 1716 1896 1493 1477 1567 1735 1695 1429 1111 1052 1486 1441 1643 1519 1555 1667 1622 1939 1556 1452 1526 1873 1711 1619 1756 1431 1887 1321 1175 1065 1206 832 421 520 82 0 0 0 0
1455 1800 1921 2049 1803 1660 1768 842 154 1367 1933 1656 1294 1294 1419 1613 1705 1837 1385 524 490 600 1084 976 1025 833 775 653 837 808 716 1202 1349 1230 1258 1532 1286 1036 1102 16 0 0 0
494 1527 1388 1534 1785 1941 2001 1722 738 5 320 1468 1969 1946 1740 1389 1291 1469 1805 1322 598 412 229 20 326 517 199 92 219 397 723 943 1048 1476 1649 1596 1370 1342 1129 402 1 0 0
20 285 1214 1428 1382 1348 1701 1628 490 333 381 538 1007 1417 1761 1582 1474 1519 1327 1912 2014 1788 1449 886 308 145 135 21 21 786 1074 1109 809 536 172 370 274 71 50 309 0 0 0
0 0 163 344 1256 1320 1508 1623 764 343 431 819 646 767 1245 1287 1404 2037 1417 1259 1141 1333 1701 2335 568 156 26 15 0 0 352 379 517 689 502 429 388 58 83 130 0 0 0

GFSMA_con_sbcape_084.txt.gz
CAPE
119 384 599 743 1078 64 29 547 678 1130 552 461 273 212 244 281 476 807 859 1133 1986 1649 796 726 714 638 727 833 639 655 660 680 725 874 1016 1139 1187 1076 788 896 837 562 297
277 119 182 722 767 279 124 383 867 669 275 142 134 131 164 313 495 696 645 812 1631 1708 1066 910 809 855 1081 1088 1321 911 784 753 875 981 1066 943 959 1099 933 939 1247 856 562
313 0 258 590 304 220 606 480 749 609 346 408 204 102 97 135 376 765 1014 901 1243 1405 1035 1032 927 825 738 714 812 957 1087 1128 1210 1251 1315 1141 1106 1013 954 947 821 1165 924
289 370 519 556 723 1098 277 471 454 332 546 141 485 415 160 119 162 214 481 509 653 947 1457 1434 1655 1391 944 982 1056 1256 1452 1873 1851 1694 1770 1778 1530 1344 1269 1032 941 799 1093
0 127 729 282 1096 994 186 361 501 652 906 463 499 601 418 249 62 241 244 144 233 524 465 1142 2217 2129 1554 1565 1606 1742 2144 2379 2290 2308 2542 2662 2653 2584 2279 2002 1708 1458 926
1100 452 298 689 1124 824 647 243 778 624 173 172 331 139 280 291 133 258 391 410 229 375 275 477 881 1586 2113 2044 2690 2933 2837 2861 2656 2648 2699 2598 2629 2722 2739 2668 2221 1884 1595
1059 239 730 638 546 554 462 290 302 368 740 131 403 158 396 171 233 248 111 565 548 632 525 620 430 856 750 1961 2194 2559 2425 2741 3051 3115 2879 2695 2652 2606 2554 2521 2512 2459 2058
894 985 840 450 408 575 734 957 603 843 647 210 190 244 205 12 0 0 138 190 253 692 883 811 660 710 704 783 704 1977 2559 2615 2503 3125 3005 2564 2334 2305 2307 2304 2211 2350 2455
971 471 682 700 335 832 783 564 204 295 744 25 6 338 466 390 22 0 24 96 147 141 418 536 623 1081 1005 830 1233 1555 2343 2057 2452 2589 2402 2488 2294 2382 2733 2703 2393 2251 2279
856 815 637 550 450 166 488 1015 1268 971 572 683 59 347 335 400 246 0 6 24 0 133 155 227 468 454 513 547 1238 1979 1926 2023 2227 1673 1813 2074 2230 2649 3137 3006 2584 2272 2231
884 882 835 382 101 31 312 386 915 876 1168 1023 611 932 816 1075 545 217 29 17 2 64 65 34 54 342 445 583 921 1000 1904 1745 1162 1068 1259 1546 1729 2365 2966 2988 2752 2469 2316
890 1142 858 699 695 362 622 247 458 676 771 982 950 849 796 349 531 847 217 0 0 5 39 0 55 222 302 671 1185 1008 1368 1148 855 1162 906 895 1122 1574 2339 2354 2155 2116 1959
863 841 891 745 563 480 220 437 983 864 762 370 943 659 879 933 944 794 891 325 158 63 250 191 79 398 445 928 921 1335 1572 1472 1068 1267 959 851 664 801 1332 1134 1304 1428 1349
578 775 929 885 845 842 674 586 667 748 800 962 280 571 769 432 741 955 681 523 771 744 536 750 974 532 863 1010 943 1670 1750 1816 1520 1298 1355 613 564 780 808 270 396 424 275
378 564 1050 1044 945 650 585 970 595 640 803 672 599 809 695 451 161 993 783 759 448 626 647 1210 1001 1107 1652 1636 1504 1342 1989 2067 2347 2045 1712 803 569 564 617 109 58 3 0
743 620 789 946 933 932 739 923 808 404 491 406 176 274 423 947 158 768 1112 923 689 480 675 787 1799 2164 2075 1570 1582 1881 1921 1968 1968 1965 1611 902 430 391 420 20 0 0 0
500 256 105 126 285 591 984 1082 616 671 675 537 317 1106 947 1085 1101 1169 968 774 1013 1023 878 918 1504 1179 987 778 960 1022 1538 2144 2064 2118 1515 992 417 252 319 3 0 0 0
164 111 12 0 0 78 603 885 702 948 856 733 741 568 861 712 1028 1334 1098 1134 1306 1163 1061 1138 640 830 933 955 891 717 1326 1981 2129 1795 695 504 314 207 351 10 0 0 0
414 182 29 0 0 11 314 904 859 828 726 830 733 624 858 596 603 758 882 697 833 1254 1175 1328 1114 871 949 370 944 1114 1069 1453 922 1076 483 303 93 101 281 30 0 0 0
412 185 48 5 0 16 322 697 959 844 1073 1102 799 792 833 865 780 602 743 714 616 900 821 840 719 623 478 709 1183 1583 1057 703 912 534 158 348 43 0 63 0 0 0 0
801 369 252 251 187 570 773 745 1111 856 739 788 1038 1102 1157 1322 1348 1024 997 949 695 922 880 998 1196 1016 1178 1271 1429 1340 895 690 408 173 625 352 147 13 0 0 0 0 0
482 977 1052 1111 1320 1602 1396 1341 1199 1154 763 718 768 790 826 1040 1056 1319 1323 975 978 845 946 1098 907 987 931 1072 1173 1165 720 414 79 218 634 518 373 510 192 0 0 0 0
96 457 981 1013 1156 1173 1513 1474 739 641 1100 1095 1004 844 704 894 1036 1066 1267 1089 183 233 957 800 857 641 616 513 413 206 116 148 149 213 553 840 833 905 573 437 68 0 0
30 78 260 625 835 1123 1209 1240 391 28 235 918 1307 1090 877 917 973 985 824 905 935 459 43 0 306 549 241 318 9 2 0 88 255 405 739 1027 330 268 233 131 184 13 0
0 0 0 75 208 483 859 614 79 165 103 83 221 731 1382 1513 1416 977 565 1054 1191 1336 1283 387 91 110 208 240 17 4 142 418 477 394 191 345 276 40 0 2 0 0 0
0 0 0 0 0 18 155 519 441 137 324 373 467 303 406 754 1159 1243 319 782 802 906 935 1187 1168 67 3 0 0 0 161 205 211 386 162 278 105 43 93 0 0 0 0

GFSMA_con_sbcape_087.txt.gz
CAPE
231 341 690 712 955 170 37 410 586 668 322 512 1107 535 241 139 233 710 908 1200 1471 1239 780 664 728 790 741 910 913 765 840 782 770 910 1091 1141 1123 1137 918 949 1047 806 457
184 349 277 525 677 375 115 94 586 502 119 42 328 147 131 122 290 536 535 461 1363 1809 1323 935 853 838 987 1254 1151 1169 902 885 942 1053 1095 1125 1009 1021 1071 1013 1119 1351 840
243 3 131 532 307 204 549 428 600 185 146 123 77 36 94 138 244 442 538 572 740 1386 1189 1096 1070 943 905 861 797 949 1164 1343 1362 1371 1474 1496 1353 1278 1145 1049 1046 982 1317
403 351 441 491 611 877 265 252 193 216 215 96 245 157 56 65 55 275 528 584 404 678 993 1527 1467 1411 1155 1098 1187 1314 1754 2251 2236 1987 1982 1961 2062 2050 1883 1623 1187 1058 978
194 405 547 454 798 781 28 233 307 476 586 252 314 268 132 142 8 75 95 122 85 366 302 696 2000 2255 1665 1640 1885 2227 2538 2830 2770 2666 2665 2765 2801 2799 2798 2605 2289 1909 1481
59 476 806 275 1068 650 517 111 410 410 149 132 209 157 4 184 83 0 116 161 87 64 197 190 259 848 2049 2026 2536 2656 2678 3144 3153 3079 2981 2875 2770 2829 2877 2741 2694 2560 2059
595 413 369 658 484 528 311 298 391 251 398 42 263 105 5 128 77 132 50 174 430 459 361 417 418 455 610 1434 2133 2494 2103 2638 3120 3209 3343 2950 2642 2508 2416 2402 2404 2637 2696
512 664 571 416 323 427 415 737 612 504 298 85 125 62 36 0 0 0 0 73 231 366 700 753 714 620 495 547 823 1854 2201 2421 2464 2803 3188 2515 2401 2367 2530 2633 2500 2375 2398
543 824 510 610 395 751 577 533 178 121 268 82 0 165 284 160 6 0 0 47 119 83 111 353 559 558 750 785 951 1105 1923 1950 2467 2654 2678 2490 2284 2425 2923 2904 2554 2252 2211
702 585 449 622 320 143 557 764 1262 714 304 532 31 190 88 146 62 0 0 12 1 0 116 130 234 247 264 287 588 1388 1879 1746 2058 2234 1942 2146 2273 2476 3155 3153 2705 2351 2186
702 798 528 254 187 63 238 470 571 699 825 727 546 738 327 371 271 4 24 10 0 2 32 20 2 5 48 202 315 552 1129 1548 1349 1287 1340 1580 1769 2080 2697 2924 2666 2437 2309
610 700 725 320 172 90 187 203 617 458 479 910 380 715 503 519 800 659 357 11 0 0 4 3 0 0 45 89 638 1462 1351 990 892 727 927 930 1122 1403 2112 2069 2028 2022 1840
538 716 579 463 423 339 373 208 397 722 426 172 373 451 527 556 635 547 573 368 77 32 154 115 39 25 450 203 503 1081 1180 1144 1384 1176 704 714 787 624 1215 1038 1128 1291 951
498 566 629 612 394 442 194 233 662 712 588 769 373 486 572 257 360 637 562 312 539 309 249 510 624 466 554 960 886 1036 1500 1705 1635 1596 1248 638 562 498 777 342 243 243 110
309 361 538 802 577 549 362 588 417 371 510 481 394 447 479 495 137 519 631 488 200 476 460 916 1282 1043 1385 1196 1166 1503 1348 1491 1828 1817 1625 1001 589 373 607 268 72 3 0
121 356 614 779 742 669 310 405 587 248 344 263 106 144 95 720 378 728 737 604 229 179 488 366 1263 1847 1558 763 749 922 932 1175 1609 1739 1538 793 469 345 447 232 11 0 0
125 474 432 557 680 690 670 726 705 545 430 297 150 410 771 641 1014 980 845 556 825 671 706 526 958 761 781 724 644 624 675 1099 1527 1703 250 805 305 273 279 379 18 0 0
211 142 171 119 110 162 400 752 851 791 523 478 432 289 416 621 613 822 983 801 904 828 904 935 621 641 755 612 518 792 986 1142 835 823 414 249 204 122 79 284 22 0 0
194 58 72 38 12 0 87 455 714 701 516 492 389 409 447 470 436 118 446 489 387 647 839 866 722 564 623 238 711 981 855 635 448 631 252 300 188 90 6 8 0 0 0
370 157 39 0 0 0 5 189 492 621 639 706 758 493 260 419 488 495 248 332 271 412 432 530 467 395 380 601 761 1133 1079 427 642 274 13 315 135 57 1 0 0 0 0
109 509 206 59 0 0 39 83 352 689 609 549 608 756 729 678 839 815 606 647 387 409 389 362 464 560 655 562 650 758 851 532 220 4 18 323 54 64 63 50 0 0 0
34 70 340 428 366 499 489 534 567 628 768 656 608 512 485 637 722 792 534 415 771 926 709 480 546 568 461 431 498 629 448 199 0 0 298 110 79 323 285 107 52 31 0
0 0 0 170 488 603 1022 978 688 569 916 778 694 688 672 794 676 548 608 583 291 60 44 728 751 628 565 387 233 126 0 0 0 0 147 304 247 460 315 160 239 157 0
0 0 0 0 17 197 81 4 1 3 189 283 567 806 779 747 585 585 633 620 548 490 216 0 147 689 561 462 83 100 24 0 0 2 219 463 124 151 72 5 6 1 0
0 0 0 0 0 0 0 0 1 13 88 187 113 156 652 897 1027 992 249 588 701 723 778 572 83 140 141 123 16 0 15 65 471 348 152 305 111 72 0 1 0 0 0
0 0 0 0 0 0 0 0 0 2 153 168 330 257 210 143 418 546 116 515 657 687 706 681 579 67 7 0 0 0 146 165 463 473 221 299 38 8 59 0 0 0 0

GFSMA_con_sbcape_090.txt.gz
CAPE
252 409 613 786 980 109 242 509 834 901 271 365 1318 787 537 374 350 725 1011 1339 1447 1372 931 745 762 796 857 1102 1391 1302 1082 953 874 924 1096 1180 1082 1024 1275 1011 1158 1155 834
207 447 310 714 745 575 290 333 704 425 262 174 767 420 321 264 397 630 813 673 1200 1558 1907 1125 1026 962 981 1095 1087 1030 1105 1183 1270 1317 1346 1413 1350 1232 1180 1198 1164 1270 1363
170 47 230 563 392 345 568 620 667 353 364 204 228 218 331 303 374 500 585 538 633 1265 1373 1233 1219 1275 1146 1099 1057 1096 1505 1863 1730 1672 1924 1917 1975 1890 1616 1402 1288 1191 1144
405 328 496 509 752 995 344 344 395 458 273 288 379 321 316 305 341 455 598 734 694 557 825 1273 1676 1690 1467 1512 1554 1809 2411 2663 2826 2757 2713 2652 2598 2511 2345 2221 1736 1591 1235
300 511 568 444 878 752 210 436 482 558 684 357 385 517 455 387 378 298 392 444 362 499 550 525 1042 1849 1781 1938 2145 2845 3108 3245 3316 3237 3141 3108 3106 2953 2647 2612 2687 2424 1956
101 578 760 427 1110 797 608 503 483 540 420 242 238 328 202 278 463 248 301 407 466 396 381 584 671 688 1032 1711 2227 2312 2583 3035 3273 3238 3262 3275 2993 2871 2800 2686 2654 2809 2553
798 502 355 683 558 692 438 646 816 549 699 405 526 595 164 157 306 393 387 430 673 824 820 844 918 965 919 948 1441 1483 1979 2393 3047 3414 3222 2840 2584 2537 2610 2717 2632 2468 2566
680 518 395 400 398 498 416 861 672 601 431 239 403 206 443 229 142 39 35 280 475 556 786 1068 1176 1304 1275 1145 1241 2021 2373 2315 2628 3025 3178 2577 2417 2375 2770 2860 2590 2348 2271
428 883 515 425 351 637 602 634 338 466 486 299 16 463 757 585 42 16 174 225 423 462 457 455 657 960 1081 1129 1251 1176 1365 1802 2246 2878 2822 2502 2354 2284 2897 3012 2615 2287 2105
623 647 451 539 436 232 619 818 1322 861 478 868 415 402 271 373 619 236 115 125 129 209 251 493 535 593 701 724 798 949 842 1230 1885 2072 2183 2336 2291 2323 2984 3089 2648 2307 2143
609 782 358 502 285 190 293 618 795 988 965 930 812 927 551 466 339 125 607 204 139 108 194 362 358 342 317 404 687 741 1025 1062 975 1292 1346 1798 1914 2081 2606 2600 2526 2361 2197
643 689 603 212 190 106 225 375 897 594 630 1109 662 1021 830 1127 1477 1013 769 394 51 223 174 350 298 365 381 579 638 1234 1425 929 1076 1132 844 969 1280 1358 1980 1958 1860 1883 1532
568 751 679 519 405 316 395 222 589 931 415 450 465 830 778 871 1006 861 828 843 347 367 841 848 926 700 823 1168 1025 1032 1166 1235 1464 1282 1199 788 624 710 968 1112 973 938 541
525 650 743 696 557 372 211 337 676 804 894 907 726 852 890 613 713 972 1105 841 1028 747 694 1264 1116 1403 1738 2089 1612 1362 1981 1290 1319 1241 1224 720 716 473 470 586 215 130 9
394 511 587 699 669 547 468 424 594 657 661 618 705 632 719 746 793 743 997 878 768 1054 1078 1558 2402 2286 2450 2232 1733 2064 1944 1271 904 1247 1158 635 448 486 315 592 147 6 0
295 216 458 570 550 577 532 522 635 383 558 425 338 331 402 651 1123 1266 1029 1006 449 671 1273 779 1878 2188 1574 1352 1307 1508 1406 889 1292 1267 151 497 588 344 260 389 186 3 0
27 80 307 582 687 416 652 448 583 622 542 419 288 481 804 892 1215 1425 1262 902 1273 1112 1488 1443 1187 1425 1654 1773 1821 1750 1730 1971 1724 441 109 227 380 202 104 76 112 17 0
107 99 208 401 519 569 617 799 828 951 662 639 506 396 511 543 962 1079 1402 1242 1276 1220 1403 1554 1300 1325 1527 1396 1327 1517 1624 1288 1257 652 192 31 220 225 59 32 6 0 0
330 121 125 98 54 40 119 412 690 567 622 381 707 552 654 534 836 676 547 824 726 792 1131 1270 1252 944 1095 798 1272 1759 1876 1809 1265 608 189 11 309 133 19 0 0 0 0
386 247 171 118 74 15 0 24 411 632 558 525 292 644 617 534 798 885 751 782 619 706 787 829 880 806 712 1120 1082 1347 1430 1340 1307 658 41 19 165 95 56 76 30 0 0
11 239 420 215 114 39 36 48 144 530 778 739 689 799 745 524 322 651 1040 1203 754 833 929 1028 939 876 1045 996 1113 1092 1149 967 745 244 136 554 466 413 527 311 155 65 1
0 14 50 272 444 531 342 45 41 560 852 822 915 964 749 323 422 382 179 201 672 1294 1478 1072 1266 1257 1485 1099 1025 1019 927 707 594 112 540 495 334 687 665 723 340 79 1
0 0 0 0 0 113 0 0 0 48 730 1024 1053 936 951 972 699 774 370 21 0 0 312 1394 1423 1551 1472 1351 1044 1069 624 385 445 361 235 899 769 957 809 507 87 7 0
0 0 0 0 0 0 0 0 1 2 101 409 697 939 986 1123 1106 836 1021 993 1112 1000 510 90 470 1049 1267 1348 1039 1225 1008 441 162 206 261 770 983 823 979 630 89 0 0
0 0 0 0 0 4 0 0 0 1 130 254 375 346 442 711 649 415 485 818 1050 1101 748 393 110 184 159 70 158 310 531 627 944 1019 555 779 1118 641 612 542 439 0 0
0 0 0 0 0 0 0 0 0 3 4 78 280 403 208 87 92 0 12 454 708 908 938 1084 1019 325 71 40 0 0 510 734 795 777 1059 725 905 416 613 582 244 247 362

GFSMA_con_sbcape_093.txt.gz
CAPE
1533 1722 1825 1872 1641 1253 1628 1946 2135 1609 1330 1185 2010 1710 1420 866 350 450 585 1264 1253 1441 1374 961 906 939 994 1173 1352 1229 1231 1112 1172 1228 1368 1363 1387 1276 1309 1397 1195 1338 1280
1527 1521 1639 1765 1782 1532 1514 1973 1871 1578 1301 1573 2044 1728 1359 802 597 684 600 582 969 1330 1576 1477 1233 1121 1067 1088 1168 1116 1234 1479 1748 1737 1785 1836 1903 1832 1608 1447 1365 1241 1315
1257 1392 1610 1470 1477 1784 1765 2044 1575 1579 1288 1072 1378 1277 1211 1028 812 915 1008 942 859 880 1299 1499 1334 1423 1476 1475 1551 1635 1856 2104 2211 2261 2213 2229 2295 2422 2487 2198 1800 1500 1246
1573 1579 1568 1726 2083 1645 1564 1675 1540 1536 1281 1231 1316 1249 1223 1142 1242 1231 1237 1370 1362 1065 942 901 1348 1806 1852 1837 2147 2331 3117 3328 3349 3325 3283 3038 2852 2752 2987 2891 2615 2341 1606
1546 1834 1609 1663 2117 1258 1517 1647 1575 1776 1570 1404 1287 1393 1457 1312 1410 994 1294 1360 1442 1387 1394 1012 977 1183 1295 1888 2343 2568 2942 3343 3459 3491 3484 3535 3317 2915 2784 2773 2734 2968 2673
1332 1998 1861 1653 2207 1925 1730 1713 1944 1796 1687 1645 1038 1179 1326 1217 1505 1564 1283 1264 1530 1606 1583 1865 1972 1703 1154 1604 1824 2099 2332 3201 3395 3563 3537 3227 2819 2880 2928 2992 2874 2675 2750
1517 2022 1694 1924 1798 1941 1760 2210 1902 2156 1646 1694 1526 1370 1175 1098 1479 1511 1478 1440 1559 1533 1743 1959 2210 2026 1922 1416 1565 1749 2281 2635 3027 3371 3402 2725 2680 2610 2980 3080 2933 2755 2574
2034 1692 1853 1864 1763 1674 1932 2351 2216 1562 1501 1446 1342 1513 1133 874 1034 802 987 1152 1517 1500 1443 1603 1948 2237 2378 2111 1945 2095 1959 2063 2781 3105 3136 2589 2530 2443 2932 3023 2777 2631 2471
1558 1968 1657 1564 1807 1797 1629 2026 1882 2200 1520 1747 1584 1478 1441 1066 1194 743 1103 1276 1671 1517 1523 1506 1612 1842 2143 1962 1753 1681 1429 1405 2242 2784 2795 2511 2450 2423 2993 2984 2698 2514 2442
1440 1779 1890 1756 1976 1864 2091 2269 2185 2133 2081 2097 2008 1659 1872 2262 1786 960 985 1021 1058 1153 1344 1362 1330 1379 1720 1487 1220 1215 977 1527 1645 2056 2334 2452 2333 2476 3103 2828 2598 2425 2400
1763 1667 1691 1993 1883 1451 1964 2220 2422 2665 2218 2060 2153 2120 2271 1828 2149 2014 1078 994 999 950 1138 1281 1244 1317 1549 1855 2061 1394 1730 1411 1289 1605 1654 1698 2005 2034 2604 2398 2401 2231 1947
1826 1889 1606 1819 1745 1510 1825 1904 2348 2236 2253 2183 1937 2044 2101 2095 2368 2161 2039 2093 1291 1097 1332 1513 1599 1483 1826 2512 1665 1161 1464 997 1305 1436 1217 1118 1320 1632 1820 1992 1828 1657 1067
1999 1763 1894 1827 1502 1632 1498 1726 2543 2350 1863 1605 1846 1627 1613 1749 2256 2208 2289 2087 1377 1425 1767 1880 2357 2573 1907 2771 2780 1540 1932 1461 1114 942 824 812 654 918 1111 1468 1050 719 283
2423 1864 1852 1871 1734 1720 1639 1728 1511 1839 2166 1914 2029 2233 1757 1636 1415 1753 2244 2301 1867 1768 2076 3195 2829 3075 3139 2631 2138 1818 2244 1837 865 680 880 733 475 458 525 802 400 162 8
1255 1727 1786 1709 1957 1821 1667 1504 1277 1896 2113 2018 1800 2031 1515 1428 1924 1639 1853 2319 1996 1746 1788 2577 2800 2946 2472 2508 2017 2532 3125 1898 1069 963 156 225 403 338 336 325 238 33 0
1377 1508 1613 1711 1781 1897 1800 1738 1624 1643 1944 1760 1497 1733 1841 1303 1744 2068 2100 1895 1935 1864 1611 1938 2229 2489 2829 2388 1625 2489 2670 1644 935 423 65 0 116 221 229 167 184 49 0
920 1200 1377 1354 1703 1738 1748 1780 1700 1795 1736 1821 1644 1697 1742 2009 1488 1795 2326 2063 1988 1948 1653 1620 2040 2095 2702 2726 2122 2057 1747 2603 1748 832 490 76 8 122 112 133 57 62 1
1041 1035 1026 1272 1293 1258 1709 1877 1755 1273 1690 1754 1796 1580 1521 1275 2015 2059 1836 2622 2165 2198 1647 1676 1607 1353 1961 2224 2317 2545 2027 1492 1946 1455 897 275 0 72 1 13 0 0 0
1492 1415 1245 1315 1280 1249 1401 1614 1730 1633 1418 1641 1473 1758 1653 1765 1888 1292 1656 1366 1179 1557 1629 1696 1593 1679 1882 1873 2153 1945 2187 2120 1134 405 272 20 182 297 139 0 14 0 0
1562 1549 1525 1396 1125 1066 884 771 954 1319 1490 1542 1623 1607 1770 1661 1848 2136 1895 2074 1694 1792 1666 2018 1769 1819 1886 2103 2375 2073 1843 1813 1956 1712 687 59 150 349 231 305 156 112 1
652 1120 1509 1411 1288 988 717 721 665 682 994 1391 1354 1429 1713 1555 1132 1131 1401 2141 1949 1928 1530 1487 1453 1510 1542 1457 1723 1583 2147 2159 2184 1695 1191 1043 592 738 539 294 511 344 96
181 257 624 795 828 323 0 1 77 950 1269 1464 1781 1931 1720 875 776 228 55 138 786 2070 1925 1286 1238 1551 2325 2176 1736 1744 1692 1748 1399 976 1506 823 512 701 629 423 286 272 7
0 0 2 83 132 36 0 1 0 1031 1590 2062 2225 2377 2114 1384 1263 1717 934 264 91 0 32 2066 1863 2399 2460 2764 2492 2592 2241 2094 1878 1285 1459 938 618 699 815 479 553 347 1
0 0 0 0 0 0 0 0 1 187 751 1214 1520 1681 2027 2047 1809 1690 1914 1925 1986 2229 1850 1053 1362 1907 2255 2292 2496 2315 2239 2071 1730 1308 2028 1362 832 894 1043 1035 669 347 0
0 0 0 8 0 0 0 0 0 92 264 382 590 863 1030 1206 0 1 790 1727 1944 1976 1328 790 532 520 481 120 177 1052 1552 1486 1268 1100 1371 1458 1252 1134 1309 1221 1137 346 0
0 0 0 0 0 0 0 0 0 0 0 0 94 0 0 0 0 0 0 712 1244 1748 1559 1810 1789 1159 178 1248 65 209 1423 1588 1444 1394 1355 1363 1191 1239 1225 972 1101 1093 1081

GFSMA_con_sbcape_096.txt.gz
CAPE
1805 1679 1997 1664 1514 1477 1801 1977 1765 1775 1663 1732 1734 1634 1342 901 453 215 113 1056 1201 1391 1484 1175 1076 1052 1081 1116 1280 1200 1240 1388 1540 1709 1809 1848 1834 1786 1588 1394 1375 1223 1423
1793 1710 1896 1764 1515 1430 1688 1815 1911 1474 1273 1296 1583 1429 1160 723 1035 561 247 475 1036 1252 1360 1430 1295 1319 1305 1278 1385 1509 1608 1761 1967 2185 2183 2206 2287 2390 2400 2186 1767 1468 1302
2163 1828 1734 1574 1597 2085 2170 1841 1560 1385 1004 933 1278 1365 1121 1159 1205 1395 933 808 935 829 1158 1439 1540 1546 1583 1677 1929 2186 2401 2622 2644 2674 2781 2801 2876 2879 2999 2807 2569 2231 1713
2156 1933 1537 1566 1972 1758 1625 1451 1282 1089 1088 1034 1403 1269 1160 1079 1411 1415 1265 1503 1650 1565 1085 1010 1047 1466 1734 2064 2397 2589 3062 3591 3633 3429 3419 3313 3215 3094 3108 3235 2877 2915 2468
2131 1699 1581 2070 2173 1505 1552 1311 1427 1516 1353 1231 1042 1098 1139 1144 1286 1062 1418 1661 1665 1820 1909 1464 1311 1355 1502 1841 2199 2544 2764 3477 3663 3668 3702 3380 2816 2746 3042 3168 2934 2817 2964
2187 1846 1804 2064 2042 1681 1532 1593 2048 1662 1572 1461 871 946 944 1143 1326 1368 1287 1461 1719 1911 1744 2256 2389 2114 1982 1771 2020 2105 2420 3073 3544 3488 3511 3109 2948 2746 3131 3291 3155 3018 2782
1774 2120 1589 2042 1962 1924 2252 2250 1631 1949 1110 1180 1184 928 875 1096 1301 1271 1218 1366 1555 1467 1740 2135 2467 2602 2596 2532 1993 1946 2350 2516 3123 3242 3246 2642 2728 2607 3185 3276 3027 2868 2677
1990 2019 1835 1751 1932 1826 2218 2456 2501 1413 1106 1809 1139 1142 766 697 786 839 1020 1041 1501 1279 1546 1997 2262 2451 2536 2338 1997 1655 1623 1719 2649 2933 2949 2481 2509 2591 3107 3058 2915 2726 2590
1780 1990 1946 1708 1979 2237 1744 2114 2111 2450 1104 1744 2429 1758 1064 868 689 635 1047 1065 1557 1377 1619 1856 1888 2043 2324 2361 1923 2248 1349 1686 2148 2583 2802 2648 2296 2505 3177 2836 2702 2561 2496
1482 1596 2049 1926 2227 1656 1909 2260 2051 2063 2766 1564 1704 2167 2830 3039 1231 820 695 830 1296 1290 1600 1472 1551 1934 2323 2242 1656 1293 1028 2063 1972 2461 2601 2403 2413 2341 2998 2630 2525 2385 2269
1745 1473 2040 2046 2364 1803 2417 2260 2445 2606 1791 1929 1577 2012 2624 2415 2747 1447 678 630 885 997 1194 1394 1525 1757 2204 2568 2320 1301 1727 1759 1718 1951 2041 2173 2163 2276 2386 2359 2298 1975 1513
1877 1727 1835 2121 2202 1928 2062 1992 2473 2470 2455 2241 2046 2161 2021 2017 2029 1668 1216 1202 828 1044 1222 1365 1669 1838 2117 2383 2247 1655 1501 1506 1108 976 949 1185 1586 1884 2055 2228 1889 1483 843
1634 1918 1976 2084 1865 2224 1914 1723 1909 2169 2056 1842 2279 1675 1802 1967 2347 2398 1943 1418 1028 1184 1519 1676 2007 2321 2266 2644 2740 2001 2133 1627 1430 647 736 600 710 1026 1613 1987 1473 944 284
1141 1621 1330 1391 1729 1784 1975 2155 1748 1465 1656 1754 1994 2367 1576 1697 1830 2054 2419 2299 1492 1320 1817 2871 2467 2571 2740 2661 1880 1888 2227 1800 1270 848 149 143 308 383 823 1273 1128 597 149
1541 1363 1081 1101 1160 1442 1837 2007 1346 1951 2105 2004 1729 1930 1858 1214 1424 1604 1997 2236 2169 1623 1575 3025 2209 2990 2436 2346 1753 2083 2313 1607 1371 443 41 1 20 231 318 548 654 240 27
1930 1406 1329 1184 1192 1307 1785 2262 1405 1657 2133 1837 1441 1499 1803 962 1255 1301 1409 1451 1757 1915 1584 1918 1919 2253 2549 2202 1584 1871 1779 1314 921 340 709 505 1 145 206 215 238 194 40
1775 1961 1542 1137 1312 1134 1231 1755 1648 1556 1924 1724 1799 1745 1764 1690 1191 962 1220 1374 1212 1224 1373 1345 1769 1828 2665 2438 2312 2312 1725 1557 842 962 1060 831 159 45 69 94 70 55 60
1793 1617 1561 1630 1614 1328 1545 1565 1497 1297 1666 1451 1199 1443 1566 976 1504 1581 1160 1763 1965 1677 1341 1813 2159 1413 2103 2088 2055 2577 1719 1026 957 497 344 212 28 16 14 0 0 0 0
1289 985 1125 1235 1396 1567 1399 1666 1990 1750 1418 1204 1240 1224 1447 1336 1594 1027 931 904 748 804 1228 1054 1081 912 1279 1836 1934 2850 1705 1812 1404 458 383 133 20 27 191 98 17 2 0
1602 1109 1176 1223 1313 1815 1724 1700 1774 1853 1668 1326 1311 1178 1080 1211 1583 1766 1988 1825 1911 1843 1875 1098 837 619 734 1478 1555 1087 669 711 1134 967 768 420 211 369 383 348 184 221 47
1246 1485 1724 1889 1908 1821 1442 1840 1592 1501 1500 1393 1373 1451 1362 1147 970 1206 1417 2086 2308 1647 909 517 621 523 621 939 1674 879 906 845 1301 1081 759 1007 439 161 127 36 28 74 102
650 1050 1254 1542 1527 1188 0 1 135 1659 1695 1700 1849 2067 1832 1169 929 701 530 395 563 2300 2062 1615 1100 1227 2639 1963 1696 1397 1312 978 1044 827 1217 605 384 325 217 248 135 247 276
268 256 428 796 55 0 0 0 0 1174 2068 2063 2021 1962 1724 814 1214 1357 588 333 131 5 0 2472 1904 1933 2903 2915 2429 2415 2589 2054 1799 1181 1297 789 816 767 365 266 389 398 323
147 154 190 178 0 0 0 0 0 435 1402 1755 1753 1761 1956 1787 0 245 1686 1522 1577 1863 2184 1554 1749 2179 2671 2640 3149 2664 2674 2846 2290 1731 2051 1036 781 843 805 663 569 485 229
36 69 99 19 0 0 0 0 0 345 732 976 541 29 31 0 0 0 817 1808 1863 1821 1424 819 635 685 673 527 348 1215 1451 1361 1229 1050 1176 828 729 747 739 773 718 552 364
3 7 7 0 0 0 0 0 0 0 0 55 329 5 0 0 0 0 0 206 803 1200 684 440 838 824 315 973 156 910 1899 1761 1591 1406 1460 1617 1521 1406 1293 1015 721 733 896

GFSMA_con_sbcape_099.txt.gz
CAPE
1695 1812 2199 2082 1876 2334 2501 1662 1328 1480 1408 1196 676 678 379 405 175 9 0 1168 1122 1290 1364 1165 1128 1072 1058 1100 1307 1422 1520 1689 1861 2119 2230 2182 2193 2209 2189 1872 1509 1381 1142
2466 1842 1801 2442 1416 2512 2690 1406 1752 1102 1396 608 973 805 474 456 703 217 32 407 996 986 1200 1408 1272 1338 1392 1440 1659 1912 2132 2269 2407 2557 2650 2705 2727 2707 2687 2594 2488 2031 1592
2261 2144 1946 2158 1765 1753 2060 1928 1279 1056 552 371 1025 950 745 885 1057 1153 747 790 756 1046 1170 1231 1415 1549 1596 1708 2106 2505 2664 3051 2943 2959 3240 3371 3201 3278 3182 2975 2816 2670 2457
1937 2352 1529 2224 1404 2454 1036 1412 800 725 703 784 1019 1106 880 888 1204 1375 1437 1651 1812 1362 1271 1355 1318 1532 1684 2108 2510 2756 3004 3411 3355 3272 3441 3339 3021 2841 3095 3251 3092 2920 2770
2120 2574 2921 2004 2753 1761 1239 1699 709 1758 932 749 1029 1018 1027 983 1490 1135 1891 1999 1812 2139 1817 2012 2120 1856 1884 2106 2322 2496 2681 3218 3630 3321 3412 3233 2714 2740 3144 3430 3354 3155 2939
1922 2586 1726 1683 2653 2465 1395 1779 3346 1093 1478 1259 899 883 1000 1051 1260 1390 1729 1874 2005 2140 1538 2322 2917 2242 2770 2298 2202 2129 2525 3129 3402 3320 3277 2900 2940 2750 3126 3323 3193 3104 2949
1880 2316 2196 1978 2192 3085 2770 1612 1741 2219 717 826 1948 809 713 1067 1320 1272 1502 1714 1734 1314 1694 2494 2586 2835 2714 3148 2398 1730 2114 2347 3100 3117 3014 2501 2737 2953 3324 3237 2989 2931 2814
1954 2072 2538 2078 2584 1903 2205 2140 2468 2201 718 958 1645 1347 734 924 944 955 1141 1373 1619 1118 1582 2011 2358 2723 2951 2385 2483 1861 1328 1785 2537 2904 2992 2440 2365 2667 3281 2994 2880 2727 2627
1758 2150 2206 2166 1923 3153 2194 2256 1773 2397 1921 964 2341 2791 1773 1865 874 1005 1169 1396 1691 1216 1422 1829 1774 2147 2595 2334 2744 2099 1277 1927 2518 3077 3174 2918 2341 2351 3162 2808 2629 2496 2444
1562 1770 1879 1940 2422 2686 3898 2683 1698 3403 2691 1165 804 1607 2503 2967 2725 917 747 1141 1237 1213 1347 1659 1518 2060 2294 2275 2926 1445 1215 2219 2183 2694 2911 2979 2728 2460 2702 2599 2443 2159 1830
1658 1362 1760 1888 2215 2081 2089 3511 2452 3053 1736 2639 1801 1377 2474 1510 1827 1830 1245 840 1004 871 1137 1398 1185 1345 2075 2123 2674 1673 1309 1814 1945 1806 1824 2046 2503 2716 2504 2648 2286 1879 1290
1614 1649 1770 1982 2227 2307 2269 2163 2384 2402 3597 3315 2809 2733 2148 1709 2263 2352 1225 1205 988 964 890 934 1309 1346 1407 1890 2398 1602 1695 1532 1301 1004 885 1161 1566 1982 2619 2563 2228 1807 1110
1294 2415 1953 1880 1963 2285 1899 2072 2358 2451 2230 2752 2999 2300 1010 1574 1728 2180 2034 1722 898 959 1200 1191 1444 1605 2211 2006 2400 1740 3332 1548 1179 909 268 324 666 1073 1596 2359 2320 1669 957
852 2699 1745 1679 1631 2025 1960 1821 1586 1555 2527 1823 1986 3596 2281 1203 1508 1512 1910 1705 1864 886 1468 2375 1670 2267 1997 2401 1991 1329 1957 1084 1350 364 0 1 122 454 778 1433 1916 1646 1088
1855 1402 1208 1248 1443 1571 1776 1840 1453 1507 2131 2198 2119 2073 2099 1365 929 1470 1557 1393 1501 1412 1364 372 2665 551 1641 2143 1953 1998 2005 1225 903 726 87 295 71 149 388 624 860 897 482
1395 1608 928 1096 1165 1223 1455 1833 2307 1952 1867 1849 1560 2612 1808 1400 1442 883 1104 1146 1168 1265 1210 1490 2521 2625 2694 2415 1863 2662 2197 1447 1148 719 225 649 286 6 177 313 384 407 329
1466 1219 1452 1348 1344 1455 1529 2215 2473 1836 2103 2066 2383 2096 1611 2518 1368 986 1526 1113 981 1003 1073 1174 1367 3133 2602 2350 2242 2760 2342 2905 1143 648 486 703 173 4 58 88 114 136 113
1352 1373 1507 1602 1719 1499 2032 2196 1743 1478 1775 1637 1406 1341 1453 1091 2659 3020 985 2525 1404 1964 1173 2219 1718 991 2137 3091 3497 4129 2193 1339 1282 427 742 244 23 0 0 87 23 0 0
1427 1246 1506 1633 1504 2007 1958 1930 2099 1966 1571 1515 1279 1321 1249 1285 2100 1518 2309 1587 857 757 1357 993 1035 923 1053 937 1674 3165 3430 2424 1475 466 256 135 123 0 0 2 43 2 0
1345 1365 1383 1610 1491 1515 1790 1808 1828 1854 1626 1362 1367 1363 1247 1247 1776 2313 1344 3185 2240 1670 1509 1012 715 1031 889 1470 1111 1364 1016 827 829 674 531 421 274 186 0 0 25 0 0
1285 1322 1352 1456 1548 1461 519 493 1863 1760 1912 1766 1650 1562 1719 1254 762 1115 1296 2674 2906 2144 1378 1167 602 441 447 1757 1695 913 1466 1093 1611 1261 971 787 699 478 432 0 167 0 0
1076 1278 1375 1615 1477 0 0 0 0 2083 1618 1799 1745 2025 2375 1159 950 626 539 558 665 1994 2365 1716 1174 1329 2735 2068 1580 1655 1822 1202 1031 1323 1506 1393 1088 986 670 873 53 163 84
835 771 936 317 10 0 0 0 0 226 1641 2248 2427 2375 1838 970 1017 1627 480 303 285 140 264 2140 2032 2400 3069 3309 3432 3282 2819 2392 1901 1885 1988 2110 1577 1531 959 503 184 282 230
350 513 531 116 0 0 0 0 0 36 1015 1607 1511 1682 1933 969 0 7 563 1736 1638 1873 1411 1397 2129 2263 2949 3271 3117 2925 3286 3055 2585 2528 2634 2292 1879 1447 1161 915 218 276 323
293 316 313 59 0 0 0 0 0 426 1069 1094 272 32 560 142 0 0 166 1257 2003 2376 740 651 601 494 566 646 614 1165 1378 1020 1203 1406 1910 1700 1795 1963 1836 2065 1648 459 160
82 111 0 0 0 0 0 0 0 0 98 33 728 0 0 0 0 0 0 42 554 955 533 313 103 534 575 1105 452 498 2247 1961 2445 1657 1584 2180 1897 1905 1646 1700 1779 1871 1984

GFSMA_con_sbcape_102.txt.gz
CAPE
2940 1741 660 916 473 510 1347 2339 1945 2106 2289 1606 968 661 435 568 56 34 529 1517 1329 1111 1113 993 1007 974 1006 1144 1411 1666 1889 2041 2346 2357 2525 2589 2650 2716 2702 2456 1991 1584 1493
2119 1238 523 1745 1499 1178 2518 1437 851 973 2070 1073 1616 1310 816 1002 1282 7 136 963 1709 1356 1031 1236 1114 1210 1361 1528 1828 2202 2573 2973 3246 3320 3414 3530 3402 3073 2835 2873 2616 2556 2270
1449 597 1106 1929 2556 2538 2194 3024 3033 2021 1394 1178 1696 1747 1431 1498 1514 1090 206 245 968 1820 1588 1308 1318 1466 1568 1689 2144 2706 3267 3553 3671 3585 3649 3759 3712 3560 3354 3062 2941 2934 2923
2036 1689 2306 2411 3177 3668 3533 2177 2432 2425 1834 1902 1492 1911 1800 1520 1993 2047 2030 1097 879 631 1892 2154 2166 2272 2058 2071 2534 2985 3141 3375 3553 3554 3566 3628 3177 3066 3363 3561 3372 2998 3106
1491 2933 1634 2288 2743 3335 497 1319 1621 2182 2200 1323 1515 1863 1905 1710 2207 1740 2295 2564 2302 1577 1521 2068 2258 2399 2492 2331 2792 2727 2665 3079 3449 3316 3286 3144 2963 2952 3273 3525 3353 3282 3113
2588 2751 2980 2895 2105 3068 1062 3062 2728 1719 3245 962 1217 1510 1901 2007 2177 2149 2381 2042 2346 2381 1999 2052 1985 1959 2635 3328 2800 2239 2346 2779 3151 3188 3039 2618 2655 2910 3264 3322 3162 3110 2975
2338 3529 3123 2948 775 1919 2883 2986 2818 3154 3110 2792 3518 2246 1653 1724 1897 1998 2179 1902 2269 2199 2080 2840 3304 2713 1850 3153 2861 1919 1913 2133 2781 3224 2933 2390 2429 2657 3155 2996 2953 2919 2809
2783 2753 2745 2750 645 2033 3435 3156 3568 3724 2228 2364 2407 2599 2125 2068 1550 1301 2033 1936 1946 1269 2109 3113 2900 2847 3006 2557 2557 1962 1213 1668 2560 3204 3211 2640 2289 2383 2963 2788 2712 2660 2619
2564 2020 2445 1737 2343 1467 2168 3388 3557 3727 2870 2031 2922 2991 2357 1687 1684 1377 1488 2037 1730 2234 2021 2211 2581 3004 2918 3234 2903 2041 1338 1617 2289 3040 3381 3176 2764 2398 2575 2887 2529 2319 2236
2305 2584 2552 2201 2052 899 1093 2856 3400 3708 3829 3066 2146 2037 3100 2400 2683 2214 1833 1677 2121 1877 2164 2524 1911 2636 3077 3007 3306 2054 1514 1614 1785 2257 2671 2940 3086 3096 2851 3017 2530 2088 1575
2595 2069 2793 2717 2642 1995 1561 1026 2603 4183 3740 3339 2703 2921 2726 3345 3235 1612 1881 1386 1700 2091 1191 1774 1642 2209 2643 2777 2780 1588 1629 1376 1515 1344 1419 1944 2325 2768 3199 2924 2805 2301 1505
2367 3000 2071 3182 3059 958 1432 2766 3246 3377 4160 3764 3634 2697 171 48 0 447 1385 1494 1898 1719 1785 1637 1069 1979 2452 2426 2503 1754 2446 1278 1133 865 551 651 1225 1740 2315 3185 3098 2571 1955
218 1032 2820 2361 2690 2466 2431 2535 2843 3434 3772 3474 3796 3140 219 117 20 131 1927 900 1041 1009 1059 337 352 308 204 65 115 1524 2481 1435 913 340 56 54 267 745 1336 2090 2845 2768 2216
127 1117 2037 2149 2592 2586 2752 2764 2726 2589 3066 3142 3082 3270 3390 2179 1409 2675 2099 499 1017 386 6 248 166 229 62 0 95 379 1996 1138 837 276 3 2 120 171 519 889 1583 1897 1705
58 4 0 1638 2277 1832 2097 2149 2656 2538 1074 657 1788 3306 3377 2060 1363 1901 1991 2144 1458 470 0 0 0 94 1 0 8 2310 3123 2188 1556 582 118 235 270 106 266 425 690 832 883
0 0 0 894 2149 1843 2402 2727 2286 2077 2100 979 1601 2285 2786 2436 2141 1509 2007 1269 1603 1251 469 2 0 370 5 248 86 3003 3116 1996 1967 1207 277 265 450 218 57 217 323 401 393
0 0 739 1877 1761 2613 2534 2724 2699 2184 1405 1547 2109 1975 1798 2521 2221 1835 1538 1262 1538 1487 1565 1325 592 272 178 216 2729 2993 3180 2713 1961 295 380 244 465 247 1 55 77 102 129
2078 2267 2652 1972 2208 1810 1920 2331 2318 2038 1949 2051 1988 2491 2265 976 2232 2881 2471 2335 2350 2260 2077 1769 1865 1973 2266 2859 3043 3903 3201 1776 1608 1050 341 336 456 52 0 0 4 8 0
2221 2184 2203 1828 1447 1977 1533 1938 2298 2109 1873 2255 2209 2121 2211 1922 1975 2094 2272 2121 1648 1500 1329 1413 1395 1064 993 1025 1066 1934 2724 2016 2362 477 308 197 287 8 1 0 0 0 0
1093 1142 1862 1652 1579 2240 1672 1627 2035 1925 2216 2128 1966 2371 2355 2267 1698 1909 1623 1872 1637 1917 1704 1702 1747 1612 1231 1308 1972 992 593 1791 1636 1323 727 540 81 60 0 0 0 0 0
722 1035 1312 1581 229 0 0 4 63 1081 1432 2040 1979 1800 1928 1001 515 704 1499 1881 1744 1612 1395 1205 1101 1149 1506 1640 1676 1600 1909 1295 1201 1337 908 1214 830 712 593 499 1 0 0
445 599 472 893 19 1 0 0 0 905 1335 1340 2015 2498 2703 710 929 344 283 213 226 1503 1512 2102 1829 1462 1600 1878 1801 2052 1901 1811 1784 1992 1708 1176 995 1280 1411 1004 502 76 38
148 203 312 23 0 0 0 0 0 21 1120 1390 1425 1721 1423 232 0 4 452 255 177 182 4 922 1454 1608 1899 1963 2475 2128 2106 2243 1913 1555 1304 1380 1426 1502 1369 1284 30 53 74
99 158 128 0 0 0 0 0 0 0 455 1432 1611 1507 1250 0 0 0 0 976 1837 2129 1433 742 628 1499 2179 2205 1768 1791 1769 1675 1665 1560 1632 1636 1405 1636 1749 1791 1028 17 1
21 204 233 6 0 0 0 0 0 3 1535 1098 42 0 0 0 0 0 0 35 354 1192 51 20 7 0 0 17 9 332 685 1194 904 1021 1259 1458 1470 1261 1481 1670 1261 567 102
368 5 0 0 0 0 0 0 0 0 0 0 0 0 0 0 0 0 0 0 0 14 0 0 0 0 1 240 412 61 683 1013 1045 903 1583 639 166 259 190 781 907 1038 1645

GFSMA_con_sbcape_105.txt.gz
CAPE
526 139 0 42 109 216 251 179 686 594 742 354 15 16 0 0 0 213 714 1084 1504 1231 921 848 908 968 1021 1179 1410 1721 1978 2163 2556 2497 2674 2769 2882 2837 2606 2495 2378 1857 1537
624 438 0 9 246 359 236 347 0 150 435 250 255 47 77 0 0 18 503 874 1800 1869 1473 1175 1091 1237 1397 1608 1784 2161 2756 3231 3423 3266 3450 3493 3397 3216 2942 2774 2701 2502 2499
151 66 234 248 749 462 894 219 122 346 412 438 303 180 245 216 0 0 7 294 1037 1958 1891 1706 2020 2136 1858 1786 2023 2741 3398 3392 3532 3458 3264 3362 3383 3123 3293 3114 2981 2747 2790
426 693 536 782 1125 1872 1696 1796 1422 960 520 355 442 305 662 660 638 0 1 18 187 292 1418 2212 2256 2374 2525 2199 2643 3321 3066 2956 3041 3023 2997 2969 2788 2880 3298 3610 3451 3107 2986
1125 1595 1466 1000 1929 1541 221 827 744 851 843 735 646 635 375 601 798 839 335 249 174 323 306 1216 2080 2187 2314 2473 3326 3174 2866 2717 2979 2914 2815 2626 2492 2689 3101 3367 3359 3284 3106
1538 1686 1754 469 44 1164 1187 1576 1293 2004 1763 344 1120 658 487 730 825 1053 1248 915 738 582 587 700 1207 1391 2174 2886 3469 2775 2560 2648 2609 2890 2753 2380 2258 2514 2933 2921 2997 3109 2969
1744 1692 1494 406 0 889 1491 1663 1887 2116 1902 1636 1366 1197 417 525 930 847 1237 1253 1149 1259 1107 1057 896 1055 1321 2382 2844 2443 2165 1995 2290 2916 2879 2424 2113 2138 2748 2486 2593 2752 2734
1412 1803 1308 953 741 1093 1423 1668 1691 2394 1383 910 1179 1547 589 512 691 640 908 1295 1020 1245 1208 1750 2301 1744 1228 1347 1704 2368 1397 1407 2263 2974 3219 2814 2344 2078 2270 2357 2278 2292 2356
1478 1426 592 629 580 298 6 207 1941 2197 2260 1526 1456 1813 1320 1116 536 226 303 750 504 838 898 1701 1662 1656 2170 1532 2248 1910 1262 1222 1708 2554 2971 3046 2843 2564 2264 2594 2116 1892 1760
1478 1501 253 448 326 0 0 18 1835 2496 2185 2053 1855 1447 1560 1414 1356 481 571 594 384 678 707 667 1225 1033 1018 1048 1479 1447 1766 1203 1281 1752 2140 2426 2648 2836 3071 2638 2348 1870 1251
1294 1295 1549 1250 370 207 784 1016 802 2157 2195 1997 1772 987 655 186 17 595 606 373 432 476 261 81 419 178 379 735 373 391 728 1255 1084 1203 1258 1444 1891 2450 2991 3261 2806 2270 1668
718 705 1301 1240 487 8 0 146 1654 1913 2167 1904 972 234 63 16 0 324 321 106 72 306 281 236 220 91 164 51 0 81 238 476 798 772 568 397 802 1487 2165 2804 3240 2750 2251
100 269 412 1233 1023 240 117 902 1104 1277 1881 1811 1851 609 89 0 0 39 611 588 0 156 102 87 132 39 107 11 0 13 148 51 320 688 187 46 156 296 775 1572 2465 2798 2437
318 421 608 752 1005 1086 1075 1158 974 1259 1147 799 815 1444 980 627 0 10 34 0 2 212 170 47 4 17 0 0 0 17 26 0 1010 632 389 0 9 272 227 502 973 1541 1617
297 155 57 0 51 968 1260 1248 1018 827 724 430 30 884 1569 1456 1130 807 369 0 494 282 91 0 0 5 2 8 2 0 0 0 1060 960 857 339 41 268 360 119 412 709 805
20 82 0 0 47 953 927 994 1191 929 698 45 3 1156 958 1088 902 763 807 458 631 113 391 12 0 38 4 0 2 28 0 184 1465 1640 1443 502 156 223 448 11 79 259 346
0 0 0 124 871 1043 1180 1005 981 878 722 833 901 1040 832 908 1352 1413 912 955 860 912 571 875 24 0 4 10 0 150 647 1050 1532 1240 858 233 101 146 460 114 0 2 56
79 75 550 1192 948 1005 979 1239 1301 1251 924 759 747 918 838 974 728 752 866 873 690 709 548 263 656 701 94 303 401 750 1564 2317 1847 1231 336 160 1 105 232 30 0 0 0
761 1032 863 1032 955 813 797 935 1049 908 836 881 697 893 932 1017 1044 629 425 334 778 777 624 673 759 445 316 810 880 648 449 1294 891 1115 634 361 264 0 50 0 0 0 0
247 560 746 985 653 112 38 57 198 554 780 973 1031 872 971 841 631 616 599 563 695 329 491 460 466 482 660 883 1049 1022 1388 1065 721 1071 726 779 659 419 191 121 27 0 0
96 359 634 12 0 0 0 2 1 44 761 692 764 890 553 316 119 192 458 564 575 362 317 260 322 367 358 558 879 1098 1298 1010 1055 818 987 750 648 728 798 947 1078 729 1
3 161 3 0 0 0 0 0 0 0 348 824 680 420 327 0 0 0 0 35 2 152 186 489 558 704 593 696 989 1231 1344 1279 1346 769 999 962 873 948 1073 1140 1239 184 0
31 36 0 0 0 0 0 0 0 0 29 357 548 696 137 0 0 0 0 336 463 82 32 168 288 389 707 678 953 1064 1054 1241 1096 851 981 1114 1042 1011 1084 1167 1264 547 4
11 0 0 0 0 0 0 0 0 0 55 38 0 5 0 0 0 0 0 31 149 0 0 0 39 40 65 46 21 231 560 707 703 627 435 549 643 395 360 358 777 327 191
7 0 0 0 0 0 0 0 0 0 55 0 0 0 0 0 0 0 0 0 0 0 0 0 0 0 0 0 0 0 0 230 343 357 420 653 498 5 0 28 221 594 529
1 0 0 0 0 0 0 0 0 0 0 0 0 0 0 0 0 0 0 0 0 0 0 0 0 0 0 0 0 0 62 218 225 201 458 328 9 0 22 59 143 558 376

GFSMA_con_sbcape_108.txt.gz
CAPE
364 7 0 2 46 129 276 259 126 445 884 599 538 318 0 0 0 206 450 1333 1562 1026 829 798 907 1073 1172 1309 1510 1822 2137 2435 2642 2722 2912 2968 2892 2732 2719 2342 2398 2118 1718
373 8 0 0 68 226 240 118 252 0 58 181 0 0 0 0 0 66 344 536 1501 1451 1181 1148 1136 1265 1430 1671 1934 2222 2647 3228 3507 3305 3604 3571 3584 3301 3001 2892 2676 2448 2029
286 76 35 143 251 492 500 327 224 88 432 233 30 0 0 0 0 13 206 351 666 1622 1402 1434 2117 2260 1807 1857 2173 2845 3563 3660 3579 3576 3395 3323 3325 3113 3113 3317 3205 2988 2706
2 58 77 238 365 10 1265 1112 664 1094 727 288 52 146 144 1 0 0 3 38 250 386 945 2253 2434 2384 2215 2193 2753 3537 3572 3146 3127 3249 3060 3033 2853 2977 3153 3415 3483 3410 3157
878 1121 885 665 658 875 202 509 422 625 550 249 239 305 392 337 107 2 6 6 34 158 107 612 2154 2196 2112 2378 3481 3963 3515 2950 3013 3137 3067 2832 2533 2740 3115 3235 3194 3252 2842
1262 1535 930 274 0 1055 1099 1302 1306 1511 1032 316 586 694 343 248 365 532 121 206 151 194 195 309 549 1338 2176 2647 2897 3538 3236 3060 2814 3002 3094 2799 2284 2331 2854 2743 2818 2966 2924
1353 1194 1341 330 235 987 1313 1343 1314 1951 1343 608 655 662 171 223 418 494 628 771 529 567 392 491 491 628 738 2213 2265 2748 3185 3177 2826 2979 3158 2939 2469 2233 2371 2426 2427 2567 2533
1059 1105 1061 909 856 668 133 556 1837 1859 1342 410 1016 647 232 239 216 464 516 796 770 775 925 825 1372 1280 1185 1030 1773 2619 2528 2306 2632 3373 3324 3063 2862 2448 2119 2454 2158 2106 2053
1091 848 573 571 311 37 0 29 1348 1853 1593 1395 1091 1097 715 536 331 79 170 304 258 400 651 1059 881 1185 1109 956 822 1011 1736 855 2026 2484 3161 2797 2689 2721 2608 2258 2141 1803 1525
884 1016 177 501 124 0 54 452 805 1658 1440 1519 1309 687 128 436 870 384 188 267 266 248 279 392 382 826 685 662 1200 874 566 513 935 1334 2235 2792 2473 2493 2772 2935 2465 1840 1217
697 1290 44 651 172 131 459 885 1338 1391 1635 1226 614 249 200 34 196 274 207 4 137 264 212 237 253 346 419 9 2 290 409 291 399 552 858 1758 1989 2034 2702 3040 2865 2452 1680
425 402 1053 843 613 237 8 47 1143 1388 1466 1370 400 0 0 15 75 326 79 0 7 126 247 170 153 204 273 219 84 360 208 147 145 209 232 714 1016 1009 1328 1791 2720 3071 2562
253 201 578 694 247 101 0 262 737 726 1210 1207 1284 321 0 0 0 66 347 335 0 10 156 111 144 102 227 108 13 145 98 50 22 10 0 656 483 307 436 822 1294 2296 2831
43 191 385 597 685 683 470 859 615 749 773 446 316 436 895 11 0 141 84 0 6 6 85 21 6 48 41 28 3 228 27 9 2 0 36 622 416 46 176 206 343 938 1545
223 137 293 75 45 527 683 785 561 554 476 156 2 571 806 777 410 137 96 0 318 263 144 37 13 0 7 5 6 0 0 0 4 28 97 414 148 245 55 148 11 213 627
123 177 53 0 0 92 551 628 699 567 561 429 0 395 393 431 493 441 294 23 285 97 217 102 13 0 25 65 0 0 0 25 194 294 648 198 32 14 100 83 107 0 137
0 17 0 0 70 513 613 473 502 559 463 358 396 414 504 317 557 724 461 464 306 233 301 326 32 17 13 87 143 41 44 223 1031 1195 235 320 228 0 0 0 10 0 0
0 0 0 48 566 735 600 576 645 1051 640 537 403 432 538 581 377 361 349 354 361 282 303 101 130 305 204 136 305 393 643 1212 870 724 818 285 505 378 206 0 0 0 0
214 38 280 526 623 509 461 403 513 498 557 611 577 380 521 446 562 409 149 96 367 287 268 376 420 196 210 417 768 795 876 907 898 945 986 554 308 408 442 265 140 2 0
98 175 283 475 41 0 0 0 9 126 403 475 508 681 467 541 365 312 373 243 320 123 91 69 49 14 258 399 530 692 1013 696 774 823 520 542 572 601 608 716 596 467 27
62 69 1 0 0 0 0 0 0 0 199 242 438 409 44 9 2 6 97 203 303 118 96 37 60 54 58 156 401 649 808 760 651 480 599 564 679 653 784 765 670 316 0
13 47 0 0 0 0 0 0 0 0 0 343 457 294 0 0 0 0 0 0 15 122 66 109 158 225 176 226 396 609 711 666 682 425 564 678 683 616 526 392 101 223 119
38 0 0 0 0 0 0 0 0 0 1 186 242 183 0 0 0 0 0 140 11 0 0 18 127 109 173 241 269 204 139 307 375 413 614 591 306 473 67 11 0 170 231
3 0 0 0 0 0 0 0 0 1 3 0 0 0 0 0 0 0 0 0 0 0 0 0 0 0 0 0 0 0 0 46 183 226 206 338 266 279 7 0 13 2 60
0 0 0 0 0 0 0 0 0 0 0 0 0 0 0 0 0 0 0 0 0 0 0 0 0 0 0 0 0 0 0 69 61 123 19 60 30 3 0 0 17 5 197
0 0 0 0 0 0 0 0 0 0 0 0 0 0 0 0 0 0 0 0 0 0 0 0 0 0 0 0 0 0 0 0 0 0 0 0 0 0 0 0 0 7 0

GFSMA_con_sbcape_111.txt.gz
CAPE
320 0 0 0 4 54 96 126 100 119 0 47 10 543 108 0 18 231 493 1687 1694 1050 925 852 949 1145 1321 1470 1748 2058 2426 2775 3007 3053 3073 3021 2876 2710 2490 2271 2232 2176 2063
154 0 0 41 90 182 303 239 230 141 0 25 0 0 0 0 0 15 95 219 1191 1142 1164 1151 1296 1416 1595 1832 2099 2371 2685 3094 3298 3276 3477 3527 3471 3171 3105 3119 2811 2662 2344
145 0 52 222 379 14 647 808 644 285 217 262 0 0 0 0 7 10 51 125 228 1159 1257 1382 1970 2430 1885 1958 2391 3054 3382 3620 3417 3378 3395 3332 3234 3227 3073 3248 3400 2870 2468
61 49 112 349 262 0 704 233 413 723 770 229 5 0 0 0 0 0 0 0 22 172 481 1880 2533 2635 2189 2124 2819 3796 3764 3539 3157 3316 3303 3178 2964 2978 3231 3228 2859 3071 3023
30 550 761 604 457 733 770 620 621 418 633 240 140 81 94 76 6 0 0 0 0 20 0 120 1161 2178 2245 2483 3499 3699 3929 3465 3214 3158 3338 3198 2847 2568 2919 3209 2973 2800 2589
909 899 388 73 257 795 905 1028 983 1095 545 100 352 464 131 74 129 210 11 0 0 0 0 40 177 538 1486 2056 2930 3108 3587 3504 3326 3239 3345 3267 2973 2503 2401 2838 2667 2750 2840
1144 842 437 0 172 698 649 1336 1321 1182 566 223 387 175 22 102 121 248 281 342 396 275 300 309 365 499 652 1294 1756 2489 2212 2456 2928 3347 3327 3250 3142 2814 2197 2374 2280 2404 2423
949 822 668 505 525 16 112 1143 1525 1365 1048 682 931 74 51 109 69 50 143 307 431 380 559 820 1016 1312 1093 1067 1514 1962 1469 1399 2316 2900 3113 2974 2879 2797 2548 2006 2249 2072 1943
1161 743 606 185 135 0 0 411 1236 1375 1019 883 561 681 428 355 125 46 182 181 250 353 623 738 1194 1378 1290 1306 1360 1184 1314 592 1022 1720 2160 2302 2538 2519 2512 2484 2225 2004 1687
819 879 294 216 3 0 144 600 900 1370 822 821 400 91 80 290 490 164 114 162 190 221 279 399 738 890 971 894 1049 1114 1044 669 568 867 942 1255 1888 2279 2511 2593 2464 1939 1683
572 1044 142 403 2 96 343 742 1121 1209 1113 493 232 174 92 4 36 142 131 15 29 150 144 181 231 437 569 495 72 29 331 487 433 440 566 442 872 1861 1836 2518 2613 2407 2174
357 543 693 342 305 253 54 200 831 1061 1021 576 4 0 0 12 21 89 39 2 18 33 92 171 145 136 273 301 390 432 410 252 131 131 130 138 402 1454 1517 1235 1697 2470 2895
189 241 569 626 276 6 0 0 507 465 798 847 518 124 0 0 0 26 146 119 6 0 68 122 115 109 81 37 17 156 202 73 10 0 0 0 127 669 900 735 978 1109 2386
114 62 218 518 301 235 0 477 474 495 663 285 94 405 355 7 0 74 51 0 84 8 51 43 0 2 3 0 18 193 36 0 0 0 14 48 1 123 337 304 399 336 947
69 102 255 280 378 494 491 462 377 271 274 84 0 59 591 378 26 4 11 0 149 60 44 14 0 0 0 0 6 41 8 0 0 3 225 0 1 3 29 23 206 29 165
179 0 120 35 9 35 265 566 461 294 179 109 0 46 145 297 290 177 119 14 73 63 75 2 0 0 0 0 40 71 0 14 205 718 140 0 7 32 0 1 42 144 46
14 11 39 0 0 29 234 427 335 349 276 96 218 325 246 177 178 316 188 228 122 45 125 41 8 0 0 99 165 249 456 722 743 596 558 295 331 225 51 0 0 0 0
0 0 0 0 0 356 385 428 348 667 436 350 182 129 257 472 263 22 161 212 153 111 134 39 3 142 153 123 212 303 750 880 619 789 641 495 590 519 436 515 388 200 0
0 0 0 65 354 352 309 263 386 503 525 522 436 356 325 346 328 294 48 0 15 185 56 91 141 54 51 88 368 360 680 621 663 750 725 527 453 571 569 229 141 0 0
38 131 144 252 162 0 0 0 27 151 217 383 457 477 454 413 267 189 200 162 101 141 0 0 0 0 18 53 127 272 458 375 607 507 460 402 459 588 525 161 24 0 0
19 42 59 1 0 0 0 0 0 0 19 57 410 359 59 34 8 11 103 130 105 50 66 16 0 0 15 46 145 251 351 363 248 268 345 346 386 329 138 0 0 0 0
1 57 0 0 0 0 0 0 0 0 0 195 309 37 0 0 0 0 0 0 1 26 15 22 12 69 38 99 195 261 268 113 124 208 262 410 243 237 43 0 0 0 0
23 1 0 0 0 0 0 0 0 0 1 93 201 115 0 0 0 0 0 0 0 0 0 8 29 10 2 65 0 0 0 0 17 54 285 327 100 106 0 0 0 0 0
0 0 0 0 0 0 0 0 0 0 0 1 0 0 0 0 0 0 0 0 0 0 0 0 0 0 0 0 0 0 0 0 0 2 0 75 20 0 0 0 0 0 0
0 0 0 0 0 0 0 0 0 0 0 0 0 0 0 0 0 0 0 0 0 0 0 0 0 0 0 0 0 0 0 0 0 0 0 0 0 0 0 0 0 0 0
0 0 0 0 0 0 0 0 0 0 0 0 0 0 0 0 0 0 0 0 0 0 0 0 0 0 0 0 0 0 0 0 0 0 0 0 0 0 0 0 0 0 0

GFSMA_con_sbcape_114.txt.gz
CAPE
140 0 0 12 60 186 293 319 237 234 15 100 5 621 0 8 47 171 535 1195 1340 1362 978 862 949 1161 1394 1626 1940 2267 2546 2864 3105 3045 3250 3224 3122 3025 3038 3058 2524 2382 2388
137 0 0 115 266 282 415 439 412 289 124 237 4 11 122 0 10 60 225 198 1355 1054 1114 1111 1314 1496 1660 1906 2210 2568 3040 2927 2921 3101 3046 3034 3127 3189 3037 3176 3307 3194 2709
129 0 0 236 321 5 775 698 641 516 750 681 69 0 0 0 0 0 0 1 155 731 1091 1243 1599 2281 1999 1981 2323 3171 3641 3413 3246 3300 3334 3245 3059 3262 2917 2837 3210 3189 3150
121 45 138 314 211 36 832 842 755 746 839 516 146 23 5 0 0 0 0 0 55 73 259 783 2206 2582 2043 2254 2856 3636 3720 3249 3008 3169 3384 3349 3325 3122 2937 2372 2901 3000 2892
68 177 687 554 708 1114 1173 1077 990 655 693 332 292 231 190 135 3 0 0 0 0 59 113 118 476 1231 1772 2514 3036 3373 3532 2944 2859 2848 3055 3313 3302 3064 2862 2479 2655 2577 2727
756 909 523 78 675 1194 1341 1290 1149 1036 501 379 410 399 260 240 253 460 410 236 76 163 177 298 463 534 1118 1832 2539 2589 3142 2868 2490 2813 2993 3011 3029 3065 2762 2575 2557 2597 2553
1019 746 386 0 703 904 722 1613 1325 981 1060 449 686 400 156 184 283 442 378 434 648 773 650 764 898 1111 1121 1549 1772 2009 1901 2221 2839 2966 2790 2676 2673 2560 2676 2390 2343 2310 2145
882 670 352 323 689 46 663 1431 1477 1160 1016 710 1097 136 272 263 230 270 468 481 537 612 896 1229 1432 1583 1855 1757 1550 2150 1511 1063 1905 2415 2333 2185 2357 2166 2219 2411 2168 2257 1864
851 843 588 518 382 0 342 934 1493 1194 1230 626 445 851 602 445 288 431 419 411 419 708 882 1140 1533 1731 1786 1695 1638 1469 1532 1113 931 744 1776 1745 1740 2230 1838 2130 2432 2226 1873
724 532 465 132 0 0 407 892 1206 1294 832 1056 575 139 195 617 638 499 367 275 325 442 528 707 886 1018 1121 1133 537 433 223 682 667 488 681 871 1221 1945 2417 1815 2243 2361 1945
509 974 369 413 2 278 469 957 1174 1382 1149 493 436 388 198 113 94 447 535 298 164 274 541 570 462 548 622 655 898 413 422 484 141 327 382 636 808 1156 2085 1990 1911 2243 2415
259 600 582 150 260 274 161 521 975 1118 1086 443 32 40 114 167 260 364 360 122 181 411 264 373 452 479 693 402 310 436 500 303 102 75 67 257 580 803 1350 1654 1308 1705 2807
241 360 513 652 440 273 2 0 543 661 915 1116 604 328 14 0 0 263 491 366 132 41 258 482 524 383 377 227 121 73 430 60 0 0 0 67 161 311 667 1069 910 995 1499
194 152 204 634 442 173 0 26 534 507 695 587 472 734 722 91 0 320 392 312 644 387 369 532 206 167 85 83 108 181 344 0 0 0 108 0 0 15 167 347 452 537 681
136 113 211 543 435 522 459 509 528 363 348 203 86 195 851 746 24 44 110 142 695 694 638 475 252 28 141 395 459 830 591 61 268 357 17 4 39 0 0 47 18 64 76
90 74 140 153 186 127 365 571 687 512 346 150 0 142 453 559 570 322 311 42 236 452 658 269 391 96 278 336 414 841 905 485 558 246 0 48 229 0 0 0 0 0 0
147 117 49 91 1 10 186 412 468 544 418 309 324 291 592 345 350 479 444 336 250 144 424 433 199 222 405 678 895 784 1069 1293 1133 447 314 301 201 0 0 0 0 0 0
1 2 53 38 0 26 476 533 453 675 634 553 388 311 365 440 537 323 307 615 424 205 392 389 67 520 490 508 543 886 979 956 1186 625 467 321 307 251 124 0 0 0 0
0 0 0 0 39 495 565 471 435 355 732 706 754 521 638 518 626 545 355 310 132 274 226 270 388 208 185 250 659 646 899 1043 784 523 478 387 346 299 15 0 0 0 0
0 35 55 181 271 194 120 96 71 195 211 470 614 658 663 844 768 560 360 363 265 344 104 164 88 26 49 188 269 581 961 749 546 722 363 303 292 191 0 0 0 0 0
11 4 34 42 1 0 0 0 0 0 6 220 309 625 332 58 22 64 336 264 246 408 267 198 69 112 209 255 460 487 650 314 233 685 495 758 933 553 11 0 0 0 0
25 37 0 0 0 0 0 0 0 0 0 47 308 372 1 0 0 0 0 0 1 219 244 178 141 320 299 284 219 0 113 74 128 102 288 957 247 22 11 0 0 0 0
12 9 0 0 0 0 0 0 0 0 0 25 161 57 0 0 0 0 0 0 0 0 0 121 173 79 0 13 0 0 0 33 115 0 39 734 44 0 2 0 0 0 0
2 0 0 0 0 0 0 0 0 0 1 0 0 0 0 0 0 0 2 8 0 0 0 0 0 0 0 0 0 0 0 2 92 0 0 0 0 0 6 0 0 0 0
0 0 0 0 0 0 0 0 0 0 0 0 0 0 0 0 0 0 0 0 0 0 0 0 0 0 0 0 0 0 0 0 13 0 0 1 0 0 0 0 0 0 0
0 0 0 0 0 0 0 0 0 0 0 0 0 0 0 0 0 0 0 0 0 0 0 0 0 0 0 0 0 0 0 0 1 0 0 0 0 0 0 0 0 0 0

GFSMA_con_sbcape_117.txt.gz
CAPE
1080 302 810 949 1229 1429 1566 1531 1232 1252 1435 891 615 1324 682 388 176 27 229 880 1200 1352 1169 1014 1057 1328 1585 1854 2121 2412 2712 2972 3179 3082 2976 2944 2903 2910 2774 2971 3071 3040 3068
1363 736 600 1390 1527 1483 1721 1759 1658 1664 1778 802 652 747 846 339 197 109 124 263 1294 1480 1058 1150 1387 1729 1881 2034 2217 2556 3013 3385 3469 3175 3274 3349 3207 2967 2827 2883 2881 3146 3290
1167 1389 784 1431 1051 703 2176 1897 1945 1972 1630 745 872 586 456 322 139 29 74 126 217 453 942 1212 1549 1906 1997 2206 2394 3010 3904 3865 3618 3450 3521 3610 3525 3325 3061 2797 2641 2489 2884
1356 1264 1405 1355 889 1584 2291 2309 2193 1711 1342 1090 1072 673 542 386 305 221 171 253 352 302 394 429 799 1644 1873 2169 2718 3640 3824 3710 3215 3271 3373 3550 3696 3589 3271 3039 2753 2458 2540
1269 1425 1616 1616 2159 2572 2713 2446 2567 2009 1346 1100 888 869 893 949 697 322 470 524 460 452 626 475 638 1039 1361 2179 3143 3500 3243 3340 2863 2898 3255 3406 3223 3264 3244 2940 2787 2465 2434
1541 2302 1907 1573 2349 2674 2820 2428 2609 2217 1574 1425 783 945 1142 1130 1106 1317 1276 1181 1260 1157 1348 1624 1655 1542 1144 1451 2626 2942 2932 2830 2622 2998 3045 2982 2928 2886 3028 2843 2566 2542 2359
2208 2311 1725 1202 2275 2465 2991 2866 2302 2712 2270 1752 1802 1357 1287 1137 1117 1067 1171 1308 1488 1713 1944 2030 2376 2102 1974 1423 1789 2039 2136 1900 2842 2896 2705 2444 2667 2427 2342 2521 2336 2411 2280
2258 2108 1877 1381 2160 1798 2858 3058 2856 2234 2188 2161 1896 1122 951 1022 1135 1070 1375 1435 1586 1497 1587 1989 2328 2621 2881 2823 2372 1894 2164 1654 1416 1231 1642 2176 2132 2288 1840 1876 2281 2237 2314
2167 2117 1945 1900 1913 1126 1993 2812 2709 2766 2084 1721 2042 1838 1316 993 1455 1312 1528 1452 1660 1722 1814 1970 2204 2435 2615 2640 2382 2044 1290 756 906 782 925 1714 1824 2012 2208 1477 1807 2299 2284
2087 1927 1789 1446 1589 456 1932 2398 2476 2478 2557 1982 1446 1211 1786 2261 1530 1200 1332 1296 1280 1337 1598 1579 1520 1656 1917 1866 1304 997 475 625 735 497 635 759 1493 1302 2400 1774 1506 1782 2245
1895 1864 1745 1552 1052 894 1958 2547 2546 2787 1968 1388 1424 1476 1343 1022 1173 1384 1042 1100 823 705 868 1316 1355 1267 1263 1151 1024 825 516 497 444 418 328 483 1011 1436 1849 2182 1323 1381 2131
1369 1927 1983 1428 1633 1493 1649 2132 2539 2581 2322 1531 1188 1297 1209 983 981 852 940 1217 1224 1195 729 572 757 988 1174 1054 640 232 330 376 217 122 106 325 506 843 1419 2035 1383 1348 1618
1657 1821 2278 1538 1730 1846 1426 1020 2121 2316 2451 2197 2095 1503 1159 342 669 1394 1340 1269 1061 1075 855 1248 1013 963 970 1017 1140 246 717 306 24 0 0 21 94 282 694 1323 1244 1340 1079
1208 1417 1567 1955 2111 1592 1310 889 1096 1692 1778 1979 2065 2138 1925 994 839 1375 1243 961 1011 1225 1310 1693 1225 878 1074 1369 1111 530 1902 173 6 61 0 0 0 66 237 347 537 665 755
1109 1241 1128 1383 1793 1720 1369 1456 1064 1693 1741 1725 1464 1306 1843 1890 1027 1069 1149 883 898 610 645 949 893 1190 1149 1595 1075 2123 1794 499 323 130 0 0 0 7 0 0 0 18 64
1056 1273 1041 1112 1529 1724 1786 1753 1979 1891 1961 1590 1205 813 1369 1594 1608 1442 1377 1166 1083 1119 748 858 856 1242 1303 1415 1008 1529 1373 951 559 32 0 0 0 0 0 0 0 0 0
1067 938 1007 1025 1185 1255 1259 1515 1761 1751 1886 1616 1472 1330 1542 1830 1255 1164 1386 1386 1307 1279 902 568 1051 882 1544 1770 1825 1471 1052 1318 1043 380 11 0 0 0 0 0 0 0 0
967 990 877 765 752 974 880 1258 1420 1255 1588 1631 1517 1472 1402 1051 1650 2145 1364 1458 1351 1358 1076 1212 1159 995 1466 1340 1288 1491 1157 834 1264 337 170 116 0 0 0 0 0 0 0
891 647 416 336 861 727 705 1285 1803 1755 1457 1520 1429 1506 1430 1364 1799 1113 2312 2115 1462 1141 1494 1252 1215 1080 967 666 865 1206 1602 1490 430 451 285 281 0 0 0 0 0 0 0
751 875 865 869 701 860 1525 1677 1310 1320 1336 1304 1329 1540 1705 1637 1679 1591 1586 1826 1365 1875 1909 1698 1473 1007 779 1017 1068 1215 945 908 532 972 353 83 0 0 0 0 0 0 0
453 495 546 701 992 925 677 525 698 788 856 938 1097 1347 1354 166 0 62 452 1458 1430 1713 2000 1806 1959 1271 1750 789 1382 959 544 525 944 244 1105 186 27 9 0 0 0 0 0
191 459 275 0 4 20 0 0 0 106 183 320 859 1049 247 0 0 0 1 0 5 1139 1515 1613 1511 1198 1208 836 584 107 214 359 457 0 778 69 15 0 0 0 0 0 0
69 187 62 0 0 0 0 0 0 0 3 229 658 1262 99 0 0 0 0 0 0 0 0 885 1037 688 152 196 0 98 438 521 494 0 36 1226 0 4 0 0 0 0 0
76 14 0 0 0 0 0 0 0 0 48 3 1 77 6 0 0 0 0 0 0 0 0 0 0 0 0 0 0 47 233 274 0 0 0 87 0 0 12 0 0 0 0
17 0 0 0 0 0 0 0 0 6 0 0 0 0 0 0 0 0 0 0 0 0 0 0 0 0 0 0 0 2 0 4 158 0 0 0 0 0 0 0 0 0 0
2 2 0 0 0 0 0 0 0 3 0 0 0 0 0 0 0 0 0 0 0 0 0 0 0 0 0 0 0 0 0 0 11 0 0 0 0 0 0 0 0 0 0